<?xml version="1.0" encoding="UTF-8" standalone="no" ?>
<gpx xmlns="http://www.topografix.com/GPX/1/1" xmlns:xsi="http://www.w3.org/2001/XMLSchema-instance" xsi:schemaLocation="http://www.topografix.com/GPX/1/1 http://www.topografix.com/GPX/1/1/gpx.xsd" version="1.1" creator="VisuGPX - https://www.visugpx.com">
  <metadata>
    <name>Col d\'Oncet en boucle (au dessus de Barèges 65) Aller</name>
    <desc><![CDATA[Col d\'Oncet (au dessus de Barèges 65)]]></desc>
  </metadata>
  <trk>
    <name><![CDATA[Col d\'Oncet en boucle (au dessus de Barèges 65) Aller_1]]></name>
    <trkseg>
      <trkpt lat="42.90523" lon="0.10449">
        <ele>1491.7</ele>
        <time>2015-01-10T09:39:33Z</time>
      </trkpt>
      <trkpt lat="42.90524" lon="0.10449">
        <ele>1491.7</ele>
        <time>2015-01-10T09:39:38Z</time>
      </trkpt>
      <trkpt lat="42.90529" lon="0.10447">
        <ele>1491.7</ele>
        <time>2015-01-10T09:40:38Z</time>
      </trkpt>
      <trkpt lat="42.90528" lon="0.10456">
        <ele>1494.768248251</ele>
        <time>2015-01-10T09:40:43Z</time>
      </trkpt>
      <trkpt lat="42.90527" lon="0.10458">
        <ele>1494.768248251</ele>
        <time>2015-01-10T09:40:48Z</time>
      </trkpt>
      <trkpt lat="42.90527" lon="0.10458">
        <ele>1494.768248251</ele>
        <time>2015-01-10T09:40:53Z</time>
      </trkpt>
      <trkpt lat="42.90527" lon="0.10458">
        <ele>1494.768248251</ele>
        <time>2015-01-10T09:40:58Z</time>
      </trkpt>
      <trkpt lat="42.90517" lon="0.10454">
        <ele>1502.7174264482</ele>
        <time>2015-01-10T09:41:23Z</time>
      </trkpt>
      <trkpt lat="42.90516" lon="0.10456">
        <ele>1502.7174264482</ele>
        <time>2015-01-10T09:41:28Z</time>
      </trkpt>
      <trkpt lat="42.90516" lon="0.10458">
        <ele>1502.7174264482</ele>
        <time>2015-01-10T09:41:33Z</time>
      </trkpt>
      <trkpt lat="42.90524" lon="0.10451">
        <ele>1510.2009195158</ele>
        <time>2015-01-10T09:41:38Z</time>
      </trkpt>
      <trkpt lat="42.90528" lon="0.10449">
        <ele>1510.2009195158</ele>
        <time>2015-01-10T09:41:44Z</time>
      </trkpt>
      <trkpt lat="42.90528" lon="0.10454">
        <ele>1510.2009195158</ele>
        <time>2015-01-10T09:42:10Z</time>
      </trkpt>
      <trkpt lat="42.90529" lon="0.10453">
        <ele>1510.2009195158</ele>
        <time>2015-01-10T09:42:15Z</time>
      </trkpt>
      <trkpt lat="42.90526" lon="0.10462">
        <ele>1518.6232777534</ele>
        <time>2015-01-10T09:42:19Z</time>
      </trkpt>
      <trkpt lat="42.9053" lon="0.1046">
        <ele>1518.6232777534</ele>
        <time>2015-01-10T09:42:26Z</time>
      </trkpt>
      <trkpt lat="42.90535" lon="0.10457">
        <ele>1525.481248943</ele>
        <time>2015-01-10T09:43:55Z</time>
      </trkpt>
      <trkpt lat="42.90536" lon="0.10456">
        <ele>1525.481248943</ele>
        <time>2015-01-10T09:44:00Z</time>
      </trkpt>
      <trkpt lat="42.90538" lon="0.10459">
        <ele>1525.481248943</ele>
        <time>2015-01-10T09:44:05Z</time>
      </trkpt>
      <trkpt lat="42.90545" lon="0.10457">
        <ele>1531.8337527568</ele>
        <time>2015-01-10T09:44:09Z</time>
      </trkpt>
      <trkpt lat="42.90551" lon="0.10454">
        <ele>1531.8337527568</ele>
        <time>2015-01-10T09:44:14Z</time>
      </trkpt>
      <trkpt lat="42.90555" lon="0.10449">
        <ele>1537.3938462193</ele>
        <time>2015-01-10T09:44:19Z</time>
      </trkpt>
      <trkpt lat="42.90561" lon="0.10444">
        <ele>1537.3938462193</ele>
        <time>2015-01-10T09:44:24Z</time>
      </trkpt>
      <trkpt lat="42.90563" lon="0.10439">
        <ele>1541.9910306195</ele>
        <time>2015-01-10T09:44:30Z</time>
      </trkpt>
      <trkpt lat="42.90563" lon="0.10435">
        <ele>1541.9910306195</ele>
        <time>2015-01-10T09:44:35Z</time>
      </trkpt>
      <trkpt lat="42.90567" lon="0.10429">
        <ele>1541.9910306195</ele>
        <time>2015-01-10T09:44:40Z</time>
      </trkpt>
      <trkpt lat="42.90569" lon="0.10426">
        <ele>1545.5572208593</ele>
        <time>2015-01-10T09:44:45Z</time>
      </trkpt>
      <trkpt lat="42.9057" lon="0.10425">
        <ele>1545.5572208593</ele>
        <time>2015-01-10T09:44:49Z</time>
      </trkpt>
      <trkpt lat="42.90574" lon="0.10419">
        <ele>1545.5572208593</ele>
        <time>2015-01-10T09:44:56Z</time>
      </trkpt>
      <trkpt lat="42.90578" lon="0.10415">
        <ele>1548.1043148118</ele>
        <time>2015-01-10T09:44:59Z</time>
      </trkpt>
      <trkpt lat="42.90581" lon="0.10408">
        <ele>1548.1043148118</ele>
        <time>2015-01-10T09:45:05Z</time>
      </trkpt>
      <trkpt lat="42.90583" lon="0.10403">
        <ele>1549.6062894669</ele>
        <time>2015-01-10T09:45:10Z</time>
      </trkpt>
      <trkpt lat="42.90585" lon="0.10399">
        <ele>1549.6062894669</ele>
        <time>2015-01-10T09:45:14Z</time>
      </trkpt>
      <trkpt lat="42.90587" lon="0.10392">
        <ele>1549.6062894669</ele>
        <time>2015-01-10T09:45:19Z</time>
      </trkpt>
      <trkpt lat="42.9059" lon="0.10385">
        <ele>1550.2074852212</ele>
        <time>2015-01-10T09:45:25Z</time>
      </trkpt>
      <trkpt lat="42.90589" lon="0.10382">
        <ele>1550.2074852212</ele>
        <time>2015-01-10T09:45:29Z</time>
      </trkpt>
      <trkpt lat="42.9059" lon="0.10375">
        <ele>1550.2074852212</ele>
        <time>2015-01-10T09:45:35Z</time>
      </trkpt>
      <trkpt lat="42.90591" lon="0.10369">
        <ele>1550.2551063529</ele>
        <time>2015-01-10T09:45:40Z</time>
      </trkpt>
      <trkpt lat="42.90594" lon="0.10361">
        <ele>1550.2551063529</ele>
        <time>2015-01-10T09:45:45Z</time>
      </trkpt>
      <trkpt lat="42.90597" lon="0.10356">
        <ele>1549.7416651037</ele>
        <time>2015-01-10T09:45:50Z</time>
      </trkpt>
      <trkpt lat="42.90599" lon="0.10351">
        <ele>1549.7416651037</ele>
        <time>2015-01-10T09:45:55Z</time>
      </trkpt>
      <trkpt lat="42.90601" lon="0.10345">
        <ele>1549.7416651037</ele>
        <time>2015-01-10T09:46:01Z</time>
      </trkpt>
      <trkpt lat="42.90605" lon="0.10337">
        <ele>1548.8345388381</ele>
        <time>2015-01-10T09:46:05Z</time>
      </trkpt>
      <trkpt lat="42.9061" lon="0.10329">
        <ele>1548.8345388381</ele>
        <time>2015-01-10T09:46:10Z</time>
      </trkpt>
      <trkpt lat="42.90611" lon="0.10325">
        <ele>1547.6157703429</ele>
        <time>2015-01-10T09:46:14Z</time>
      </trkpt>
      <trkpt lat="42.90612" lon="0.1032">
        <ele>1547.6157703429</ele>
        <time>2015-01-10T09:46:19Z</time>
      </trkpt>
      <trkpt lat="42.90615" lon="0.10314">
        <ele>1546.2479238177</ele>
        <time>2015-01-10T09:46:25Z</time>
      </trkpt>
      <trkpt lat="42.9062" lon="0.10307">
        <ele>1546.2479238177</ele>
        <time>2015-01-10T09:46:29Z</time>
      </trkpt>
      <trkpt lat="42.90622" lon="0.10303">
        <ele>1544.7822276457</ele>
        <time>2015-01-10T09:46:35Z</time>
      </trkpt>
      <trkpt lat="42.90625" lon="0.10296">
        <ele>1544.7822276457</ele>
        <time>2015-01-10T09:46:40Z</time>
      </trkpt>
      <trkpt lat="42.90628" lon="0.10289">
        <ele>1543.2674937806</ele>
        <time>2015-01-10T09:46:45Z</time>
      </trkpt>
      <trkpt lat="42.9063" lon="0.10284">
        <ele>1543.2674937806</ele>
        <time>2015-01-10T09:46:50Z</time>
      </trkpt>
      <trkpt lat="42.90633" lon="0.1028">
        <ele>1543.2674937806</ele>
        <time>2015-01-10T09:46:55Z</time>
      </trkpt>
      <trkpt lat="42.90636" lon="0.10272">
        <ele>1541.766645038</ele>
        <time>2015-01-10T09:47:00Z</time>
      </trkpt>
      <trkpt lat="42.90637" lon="0.10267">
        <ele>1541.766645038</ele>
        <time>2015-01-10T09:47:05Z</time>
      </trkpt>
      <trkpt lat="42.9064" lon="0.10261">
        <ele>1541.766645038</ele>
        <time>2015-01-10T09:47:09Z</time>
      </trkpt>
      <trkpt lat="42.90639" lon="0.10254">
        <ele>1540.2937375171</ele>
        <time>2015-01-10T09:47:15Z</time>
      </trkpt>
      <trkpt lat="42.90639" lon="0.10246">
        <ele>1540.2937375171</ele>
        <time>2015-01-10T09:47:20Z</time>
      </trkpt>
      <trkpt lat="42.90637" lon="0.10239">
        <ele>1538.8831549688</ele>
        <time>2015-01-10T09:47:25Z</time>
      </trkpt>
      <trkpt lat="42.90636" lon="0.10234">
        <ele>1538.8831549688</ele>
        <time>2015-01-10T09:47:30Z</time>
      </trkpt>
      <trkpt lat="42.90636" lon="0.10229">
        <ele>1538.8831549688</ele>
        <time>2015-01-10T09:47:35Z</time>
      </trkpt>
      <trkpt lat="42.90636" lon="0.10219">
        <ele>1537.5880074838</ele>
        <time>2015-01-10T09:47:40Z</time>
      </trkpt>
      <trkpt lat="42.90637" lon="0.10214">
        <ele>1537.5880074838</ele>
        <time>2015-01-10T09:47:45Z</time>
      </trkpt>
      <trkpt lat="42.90641" lon="0.10207">
        <ele>1536.3605852599</ele>
        <time>2015-01-10T09:47:52Z</time>
      </trkpt>
      <trkpt lat="42.90646" lon="0.10203">
        <ele>1536.3605852599</ele>
        <time>2015-01-10T09:47:54Z</time>
      </trkpt>
      <trkpt lat="42.90649" lon="0.10202">
        <ele>1535.2569423014</ele>
        <time>2015-01-10T09:48:00Z</time>
      </trkpt>
      <trkpt lat="42.90652" lon="0.10204">
        <ele>1535.2569423014</ele>
        <time>2015-01-10T09:48:05Z</time>
      </trkpt>
      <trkpt lat="42.90653" lon="0.10207">
        <ele>1535.2569423014</ele>
        <time>2015-01-10T09:48:10Z</time>
      </trkpt>
      <trkpt lat="42.90656" lon="0.10211">
        <ele>1534.4530257976</ele>
        <time>2015-01-10T09:48:15Z</time>
      </trkpt>
      <trkpt lat="42.90661" lon="0.1022">
        <ele>1534.4530257976</ele>
        <time>2015-01-10T09:48:20Z</time>
      </trkpt>
      <trkpt lat="42.90662" lon="0.10224">
        <ele>1533.6758175279</ele>
        <time>2015-01-10T09:48:24Z</time>
      </trkpt>
      <trkpt lat="42.90661" lon="0.1023">
        <ele>1533.6758175279</ele>
        <time>2015-01-10T09:48:30Z</time>
      </trkpt>
      <trkpt lat="42.90663" lon="0.10235">
        <ele>1533.6758175279</ele>
        <time>2015-01-10T09:48:35Z</time>
      </trkpt>
      <trkpt lat="42.90665" lon="0.1024">
        <ele>1532.9349022061</ele>
        <time>2015-01-10T09:48:40Z</time>
      </trkpt>
      <trkpt lat="42.90667" lon="0.10245">
        <ele>1532.9349022061</ele>
        <time>2015-01-10T09:48:45Z</time>
      </trkpt>
      <trkpt lat="42.90663" lon="0.10255">
        <ele>1532.2663183815</ele>
        <time>2015-01-10T09:48:50Z</time>
      </trkpt>
      <trkpt lat="42.90663" lon="0.10261">
        <ele>1532.2663183815</ele>
        <time>2015-01-10T09:48:55Z</time>
      </trkpt>
      <trkpt lat="42.90662" lon="0.10268">
        <ele>1531.5773064038</ele>
        <time>2015-01-10T09:49:00Z</time>
      </trkpt>
      <trkpt lat="42.90658" lon="0.10273">
        <ele>1531.5773064038</ele>
        <time>2015-01-10T09:49:05Z</time>
      </trkpt>
      <trkpt lat="42.90654" lon="0.10282">
        <ele>1531.033857936</ele>
        <time>2015-01-10T09:49:10Z</time>
      </trkpt>
      <trkpt lat="42.90654" lon="0.10286">
        <ele>1531.033857936</ele>
        <time>2015-01-10T09:49:15Z</time>
      </trkpt>
      <trkpt lat="42.90656" lon="0.10292">
        <ele>1531.033857936</ele>
        <time>2015-01-10T09:49:20Z</time>
      </trkpt>
      <trkpt lat="42.90661" lon="0.10296">
        <ele>1530.6091478635</ele>
        <time>2015-01-10T09:49:25Z</time>
      </trkpt>
      <trkpt lat="42.90658" lon="0.10305">
        <ele>1530.6091478635</ele>
        <time>2015-01-10T09:49:31Z</time>
      </trkpt>
      <trkpt lat="42.90658" lon="0.10309">
        <ele>1530.2522153003</ele>
        <time>2015-01-10T09:49:35Z</time>
      </trkpt>
      <trkpt lat="42.90657" lon="0.10312">
        <ele>1530.2522153003</ele>
        <time>2015-01-10T09:49:40Z</time>
      </trkpt>
      <trkpt lat="42.90654" lon="0.10317">
        <ele>1530.2522153003</ele>
        <time>2015-01-10T09:49:45Z</time>
      </trkpt>
      <trkpt lat="42.90655" lon="0.10321">
        <ele>1530.3482667467</ele>
        <time>2015-01-10T09:49:50Z</time>
      </trkpt>
      <trkpt lat="42.90656" lon="0.10328">
        <ele>1530.3482667467</ele>
        <time>2015-01-10T09:49:55Z</time>
      </trkpt>
      <trkpt lat="42.9066" lon="0.10332">
        <ele>1530.5482044257</ele>
        <time>2015-01-10T09:50:00Z</time>
      </trkpt>
      <trkpt lat="42.90659" lon="0.10338">
        <ele>1530.5482044257</ele>
        <time>2015-01-10T09:50:04Z</time>
      </trkpt>
      <trkpt lat="42.90658" lon="0.10345">
        <ele>1530.8758035391</ele>
        <time>2015-01-10T09:50:11Z</time>
      </trkpt>
      <trkpt lat="42.90659" lon="0.10348">
        <ele>1530.8758035391</ele>
        <time>2015-01-10T09:50:15Z</time>
      </trkpt>
      <trkpt lat="42.90658" lon="0.10353">
        <ele>1530.8758035391</ele>
        <time>2015-01-10T09:50:20Z</time>
      </trkpt>
      <trkpt lat="42.90657" lon="0.1036">
        <ele>1531.4531256774</ele>
        <time>2015-01-10T09:50:25Z</time>
      </trkpt>
      <trkpt lat="42.90655" lon="0.10367">
        <ele>1531.4531256774</ele>
        <time>2015-01-10T09:50:28Z</time>
      </trkpt>
      <trkpt lat="42.90648" lon="0.10379">
        <ele>1532.0560063246</ele>
        <time>2015-01-10T09:50:35Z</time>
      </trkpt>
      <trkpt lat="42.90644" lon="0.10389">
        <ele>1532.0560063246</ele>
        <time>2015-01-10T09:50:40Z</time>
      </trkpt>
      <trkpt lat="42.90644" lon="0.10392">
        <ele>1532.6292626781</ele>
        <time>2015-01-10T09:50:45Z</time>
      </trkpt>
      <trkpt lat="42.90644" lon="0.10398">
        <ele>1532.6292626781</ele>
        <time>2015-01-10T09:50:50Z</time>
      </trkpt>
      <trkpt lat="42.90645" lon="0.10401">
        <ele>1532.6292626781</ele>
        <time>2015-01-10T09:50:55Z</time>
      </trkpt>
      <trkpt lat="42.90644" lon="0.1041">
        <ele>1533.2933473755</ele>
        <time>2015-01-10T09:51:00Z</time>
      </trkpt>
      <trkpt lat="42.90642" lon="0.10418">
        <ele>1533.2933473755</ele>
        <time>2015-01-10T09:51:05Z</time>
      </trkpt>
      <trkpt lat="42.90639" lon="0.10425">
        <ele>1533.9600272094</ele>
        <time>2015-01-10T09:51:09Z</time>
      </trkpt>
      <trkpt lat="42.90637" lon="0.10433">
        <ele>1533.9600272094</ele>
        <time>2015-01-10T09:51:16Z</time>
      </trkpt>
      <trkpt lat="42.90635" lon="0.10438">
        <ele>1534.6183907439</ele>
        <time>2015-01-10T09:51:20Z</time>
      </trkpt>
      <trkpt lat="42.90635" lon="0.10445">
        <ele>1534.6183907439</ele>
        <time>2015-01-10T09:51:25Z</time>
      </trkpt>
      <trkpt lat="42.90633" lon="0.10452">
        <ele>1535.2874435041</ele>
        <time>2015-01-10T09:51:30Z</time>
      </trkpt>
      <trkpt lat="42.90632" lon="0.10458">
        <ele>1535.2874435041</ele>
        <time>2015-01-10T09:51:35Z</time>
      </trkpt>
      <trkpt lat="42.90631" lon="0.10465">
        <ele>1535.9260581581</ele>
        <time>2015-01-10T09:51:40Z</time>
      </trkpt>
      <trkpt lat="42.90631" lon="0.10473">
        <ele>1535.9260581581</ele>
        <time>2015-01-10T09:51:46Z</time>
      </trkpt>
      <trkpt lat="42.9063" lon="0.10478">
        <ele>1536.5250498827</ele>
        <time>2015-01-10T09:51:50Z</time>
      </trkpt>
      <trkpt lat="42.9063" lon="0.10482">
        <ele>1536.5250498827</ele>
        <time>2015-01-10T09:51:54Z</time>
      </trkpt>
      <trkpt lat="42.90629" lon="0.10489">
        <ele>1536.5250498827</ele>
        <time>2015-01-10T09:52:00Z</time>
      </trkpt>
      <trkpt lat="42.90629" lon="0.10495">
        <ele>1537.1205256923</ele>
        <time>2015-01-10T09:52:05Z</time>
      </trkpt>
      <trkpt lat="42.9063" lon="0.10502">
        <ele>1537.1205256923</ele>
        <time>2015-01-10T09:52:10Z</time>
      </trkpt>
      <trkpt lat="42.90631" lon="0.10506">
        <ele>1537.1205256923</ele>
        <time>2015-01-10T09:52:15Z</time>
      </trkpt>
      <trkpt lat="42.90631" lon="0.10511">
        <ele>1537.7612293886</ele>
        <time>2015-01-10T09:52:20Z</time>
      </trkpt>
      <trkpt lat="42.90631" lon="0.10519">
        <ele>1537.7612293886</ele>
        <time>2015-01-10T09:52:25Z</time>
      </trkpt>
      <trkpt lat="42.90632" lon="0.10524">
        <ele>1538.372321912</ele>
        <time>2015-01-10T09:52:30Z</time>
      </trkpt>
      <trkpt lat="42.90632" lon="0.10531">
        <ele>1538.372321912</ele>
        <time>2015-01-10T09:52:36Z</time>
      </trkpt>
      <trkpt lat="42.90632" lon="0.10535">
        <ele>1538.372321912</ele>
        <time>2015-01-10T09:52:40Z</time>
      </trkpt>
      <trkpt lat="42.90631" lon="0.10543">
        <ele>1539.0492582375</ele>
        <time>2015-01-10T09:52:46Z</time>
      </trkpt>
      <trkpt lat="42.90629" lon="0.10547">
        <ele>1539.0492582375</ele>
        <time>2015-01-10T09:52:50Z</time>
      </trkpt>
      <trkpt lat="42.90628" lon="0.1055">
        <ele>1539.0492582375</ele>
        <time>2015-01-10T09:52:55Z</time>
      </trkpt>
      <trkpt lat="42.90625" lon="0.10561">
        <ele>1539.7598593942</ele>
        <time>2015-01-10T09:53:00Z</time>
      </trkpt>
      <trkpt lat="42.90623" lon="0.10568">
        <ele>1539.7598593942</ele>
        <time>2015-01-10T09:53:05Z</time>
      </trkpt>
      <trkpt lat="42.90621" lon="0.10575">
        <ele>1540.4587052593</ele>
        <time>2015-01-10T09:53:10Z</time>
      </trkpt>
      <trkpt lat="42.9062" lon="0.10581">
        <ele>1540.4587052593</ele>
        <time>2015-01-10T09:53:15Z</time>
      </trkpt>
      <trkpt lat="42.90619" lon="0.10588">
        <ele>1541.1639442639</ele>
        <time>2015-01-10T09:53:20Z</time>
      </trkpt>
      <trkpt lat="42.90617" lon="0.10591">
        <ele>1541.1639442639</ele>
        <time>2015-01-10T09:53:25Z</time>
      </trkpt>
      <trkpt lat="42.90617" lon="0.10594">
        <ele>1541.1639442639</ele>
        <time>2015-01-10T09:53:29Z</time>
      </trkpt>
      <trkpt lat="42.90617" lon="0.10603">
        <ele>1541.9676584561</ele>
        <time>2015-01-10T09:53:36Z</time>
      </trkpt>
      <trkpt lat="42.90618" lon="0.10607">
        <ele>1541.9676584561</ele>
        <time>2015-01-10T09:53:40Z</time>
      </trkpt>
      <trkpt lat="42.90618" lon="0.10613">
        <ele>1541.9676584561</ele>
        <time>2015-01-10T09:53:45Z</time>
      </trkpt>
      <trkpt lat="42.90618" lon="0.10618">
        <ele>1542.8184218208</ele>
        <time>2015-01-10T09:53:49Z</time>
      </trkpt>
      <trkpt lat="42.90619" lon="0.10624">
        <ele>1542.8184218208</ele>
        <time>2015-01-10T09:53:55Z</time>
      </trkpt>
      <trkpt lat="42.9062" lon="0.10634">
        <ele>1543.6081997597</ele>
        <time>2015-01-10T09:54:00Z</time>
      </trkpt>
      <trkpt lat="42.90622" lon="0.10639">
        <ele>1543.6081997597</ele>
        <time>2015-01-10T09:54:04Z</time>
      </trkpt>
      <trkpt lat="42.90623" lon="0.10646">
        <ele>1543.6081997597</ele>
        <time>2015-01-10T09:54:10Z</time>
      </trkpt>
      <trkpt lat="42.90623" lon="0.10651">
        <ele>1544.3883101552</ele>
        <time>2015-01-10T09:54:15Z</time>
      </trkpt>
      <trkpt lat="42.90624" lon="0.10655">
        <ele>1544.3883101552</ele>
        <time>2015-01-10T09:54:20Z</time>
      </trkpt>
      <trkpt lat="42.90627" lon="0.10659">
        <ele>1544.3883101552</ele>
        <time>2015-01-10T09:54:24Z</time>
      </trkpt>
      <trkpt lat="42.90627" lon="0.10667">
        <ele>1545.2058684359</ele>
        <time>2015-01-10T09:54:29Z</time>
      </trkpt>
      <trkpt lat="42.90629" lon="0.10673">
        <ele>1545.2058684359</ele>
        <time>2015-01-10T09:54:35Z</time>
      </trkpt>
      <trkpt lat="42.90628" lon="0.1068">
        <ele>1545.9689133807</ele>
        <time>2015-01-10T09:54:40Z</time>
      </trkpt>
      <trkpt lat="42.90629" lon="0.10685">
        <ele>1545.9689133807</ele>
        <time>2015-01-10T09:54:45Z</time>
      </trkpt>
      <trkpt lat="42.90631" lon="0.10691">
        <ele>1545.9689133807</ele>
        <time>2015-01-10T09:54:50Z</time>
      </trkpt>
      <trkpt lat="42.90631" lon="0.10696">
        <ele>1546.742906328</ele>
        <time>2015-01-10T09:54:55Z</time>
      </trkpt>
      <trkpt lat="42.90632" lon="0.10702">
        <ele>1546.742906328</ele>
        <time>2015-01-10T09:54:59Z</time>
      </trkpt>
      <trkpt lat="42.90636" lon="0.10711">
        <ele>1547.5429483716</ele>
        <time>2015-01-10T09:55:06Z</time>
      </trkpt>
      <trkpt lat="42.90638" lon="0.10716">
        <ele>1547.5429483716</ele>
        <time>2015-01-10T09:55:10Z</time>
      </trkpt>
      <trkpt lat="42.90637" lon="0.10723">
        <ele>1548.3231554386</ele>
        <time>2015-01-10T09:55:15Z</time>
      </trkpt>
      <trkpt lat="42.90637" lon="0.10731">
        <ele>1548.3231554386</ele>
        <time>2015-01-10T09:55:20Z</time>
      </trkpt>
      <trkpt lat="42.90637" lon="0.10735">
        <ele>1548.3231554386</ele>
        <time>2015-01-10T09:55:25Z</time>
      </trkpt>
      <trkpt lat="42.90636" lon="0.10739">
        <ele>1549.1009451591</ele>
        <time>2015-01-10T09:55:30Z</time>
      </trkpt>
      <trkpt lat="42.90635" lon="0.10743">
        <ele>1549.1009451591</ele>
        <time>2015-01-10T09:55:35Z</time>
      </trkpt>
      <trkpt lat="42.90635" lon="0.10746">
        <ele>1549.1009451591</ele>
        <time>2015-01-10T09:55:38Z</time>
      </trkpt>
      <trkpt lat="42.90637" lon="0.10751">
        <ele>1549.9218684941</ele>
        <time>2015-01-10T09:55:44Z</time>
      </trkpt>
      <trkpt lat="42.90638" lon="0.1076">
        <ele>1549.9218684941</ele>
        <time>2015-01-10T09:55:51Z</time>
      </trkpt>
      <trkpt lat="42.90637" lon="0.10766">
        <ele>1550.8274832342</ele>
        <time>2015-01-10T09:55:55Z</time>
      </trkpt>
      <trkpt lat="42.90636" lon="0.10774">
        <ele>1550.8274832342</ele>
        <time>2015-01-10T09:56:00Z</time>
      </trkpt>
      <trkpt lat="42.90635" lon="0.1078">
        <ele>1551.7818695384</ele>
        <time>2015-01-10T09:56:05Z</time>
      </trkpt>
      <trkpt lat="42.90635" lon="0.10785">
        <ele>1551.7818695384</ele>
        <time>2015-01-10T09:56:10Z</time>
      </trkpt>
      <trkpt lat="42.90635" lon="0.10792">
        <ele>1552.6931087875</ele>
        <time>2015-01-10T09:56:15Z</time>
      </trkpt>
      <trkpt lat="42.90635" lon="0.10796">
        <ele>1552.6931087875</ele>
        <time>2015-01-10T09:56:20Z</time>
      </trkpt>
      <trkpt lat="42.90636" lon="0.10803">
        <ele>1552.6931087875</ele>
        <time>2015-01-10T09:56:25Z</time>
      </trkpt>
      <trkpt lat="42.90636" lon="0.10807">
        <ele>1553.6384600967</ele>
        <time>2015-01-10T09:56:30Z</time>
      </trkpt>
      <trkpt lat="42.90636" lon="0.10813">
        <ele>1553.6384600967</ele>
        <time>2015-01-10T09:56:34Z</time>
      </trkpt>
      <trkpt lat="42.90637" lon="0.1082">
        <ele>1554.5715091768</ele>
        <time>2015-01-10T09:56:40Z</time>
      </trkpt>
      <trkpt lat="42.90638" lon="0.10825">
        <ele>1554.5715091768</ele>
        <time>2015-01-10T09:56:45Z</time>
      </trkpt>
      <trkpt lat="42.90638" lon="0.1083">
        <ele>1554.5715091768</ele>
        <time>2015-01-10T09:56:49Z</time>
      </trkpt>
      <trkpt lat="42.90638" lon="0.10837">
        <ele>1555.5373533911</ele>
        <time>2015-01-10T09:56:55Z</time>
      </trkpt>
      <trkpt lat="42.90639" lon="0.10843">
        <ele>1555.5373533911</ele>
        <time>2015-01-10T09:57:00Z</time>
      </trkpt>
      <trkpt lat="42.90639" lon="0.1085">
        <ele>1556.4897677062</ele>
        <time>2015-01-10T09:57:05Z</time>
      </trkpt>
      <trkpt lat="42.90639" lon="0.10858">
        <ele>1556.4897677062</ele>
        <time>2015-01-10T09:57:11Z</time>
      </trkpt>
      <trkpt lat="42.9064" lon="0.10861">
        <ele>1556.4897677062</ele>
        <time>2015-01-10T09:57:15Z</time>
      </trkpt>
      <trkpt lat="42.9064" lon="0.10867">
        <ele>1557.4882190905</ele>
        <time>2015-01-10T09:57:20Z</time>
      </trkpt>
      <trkpt lat="42.90641" lon="0.10871">
        <ele>1557.4882190905</ele>
        <time>2015-01-10T09:57:24Z</time>
      </trkpt>
      <trkpt lat="42.90642" lon="0.10878">
        <ele>1557.4882190905</ele>
        <time>2015-01-10T09:57:29Z</time>
      </trkpt>
      <trkpt lat="42.90643" lon="0.10886">
        <ele>1558.5291008453</ele>
        <time>2015-01-10T09:57:36Z</time>
      </trkpt>
      <trkpt lat="42.90643" lon="0.10891">
        <ele>1558.5291008453</ele>
        <time>2015-01-10T09:57:39Z</time>
      </trkpt>
      <trkpt lat="42.90645" lon="0.10896">
        <ele>1558.5291008453</ele>
        <time>2015-01-10T09:57:44Z</time>
      </trkpt>
      <trkpt lat="42.90646" lon="0.10902">
        <ele>1559.6815808707</ele>
        <time>2015-01-10T09:57:50Z</time>
      </trkpt>
      <trkpt lat="42.90645" lon="0.10908">
        <ele>1559.6815808707</ele>
        <time>2015-01-10T09:57:54Z</time>
      </trkpt>
      <trkpt lat="42.90648" lon="0.10916">
        <ele>1560.8930650734</ele>
        <time>2015-01-10T09:58:01Z</time>
      </trkpt>
      <trkpt lat="42.90648" lon="0.1092">
        <ele>1560.8930650734</ele>
        <time>2015-01-10T09:58:05Z</time>
      </trkpt>
      <trkpt lat="42.90649" lon="0.10925">
        <ele>1560.8930650734</ele>
        <time>2015-01-10T09:58:09Z</time>
      </trkpt>
      <trkpt lat="42.9065" lon="0.10935">
        <ele>1562.1583855463</ele>
        <time>2015-01-10T09:58:15Z</time>
      </trkpt>
      <trkpt lat="42.90651" lon="0.1094">
        <ele>1562.1583855463</ele>
        <time>2015-01-10T09:58:20Z</time>
      </trkpt>
      <trkpt lat="42.90651" lon="0.10947">
        <ele>1562.1583855463</ele>
        <time>2015-01-10T09:58:24Z</time>
      </trkpt>
      <trkpt lat="42.90651" lon="0.10954">
        <ele>1563.4871002387</ele>
        <time>2015-01-10T09:58:30Z</time>
      </trkpt>
      <trkpt lat="42.90652" lon="0.10958">
        <ele>1563.4871002387</ele>
        <time>2015-01-10T09:58:34Z</time>
      </trkpt>
      <trkpt lat="42.90651" lon="0.10963">
        <ele>1563.4871002387</ele>
        <time>2015-01-10T09:58:39Z</time>
      </trkpt>
      <trkpt lat="42.90653" lon="0.10969">
        <ele>1564.9312422041</ele>
        <time>2015-01-10T09:58:45Z</time>
      </trkpt>
      <trkpt lat="42.90654" lon="0.10975">
        <ele>1564.9312422041</ele>
        <time>2015-01-10T09:58:50Z</time>
      </trkpt>
      <trkpt lat="42.90656" lon="0.1098">
        <ele>1564.9312422041</ele>
        <time>2015-01-10T09:58:55Z</time>
      </trkpt>
      <trkpt lat="42.9066" lon="0.10986">
        <ele>1566.3651518204</ele>
        <time>2015-01-10T09:59:00Z</time>
      </trkpt>
      <trkpt lat="42.90662" lon="0.10991">
        <ele>1566.3651518204</ele>
        <time>2015-01-10T09:59:05Z</time>
      </trkpt>
      <trkpt lat="42.90663" lon="0.10995">
        <ele>1566.3651518204</ele>
        <time>2015-01-10T09:59:10Z</time>
      </trkpt>
      <trkpt lat="42.90664" lon="0.11">
        <ele>1567.7882811536</ele>
        <time>2015-01-10T09:59:15Z</time>
      </trkpt>
      <trkpt lat="42.90665" lon="0.11006">
        <ele>1567.7882811536</ele>
        <time>2015-01-10T09:59:20Z</time>
      </trkpt>
      <trkpt lat="42.90667" lon="0.1101">
        <ele>1567.7882811536</ele>
        <time>2015-01-10T09:59:24Z</time>
      </trkpt>
      <trkpt lat="42.90668" lon="0.11016">
        <ele>1569.2145601845</ele>
        <time>2015-01-10T09:59:30Z</time>
      </trkpt>
      <trkpt lat="42.9067" lon="0.1102">
        <ele>1569.2145601845</ele>
        <time>2015-01-10T09:59:34Z</time>
      </trkpt>
      <trkpt lat="42.90673" lon="0.11026">
        <ele>1569.2145601845</ele>
        <time>2015-01-10T09:59:41Z</time>
      </trkpt>
      <trkpt lat="42.90673" lon="0.11029">
        <ele>1570.5702629056</ele>
        <time>2015-01-10T09:59:44Z</time>
      </trkpt>
      <trkpt lat="42.90674" lon="0.11036">
        <ele>1570.5702629056</ele>
        <time>2015-01-10T09:59:49Z</time>
      </trkpt>
      <trkpt lat="42.90675" lon="0.11042">
        <ele>1571.8450518137</ele>
        <time>2015-01-10T09:59:55Z</time>
      </trkpt>
      <trkpt lat="42.90678" lon="0.11048">
        <ele>1571.8450518137</ele>
        <time>2015-01-10T10:00:00Z</time>
      </trkpt>
      <trkpt lat="42.9068" lon="0.11053">
        <ele>1571.8450518137</ele>
        <time>2015-01-10T10:00:05Z</time>
      </trkpt>
      <trkpt lat="42.90682" lon="0.11059">
        <ele>1573.0872448824</ele>
        <time>2015-01-10T10:00:10Z</time>
      </trkpt>
      <trkpt lat="42.90681" lon="0.11065">
        <ele>1573.0872448824</ele>
        <time>2015-01-10T10:00:14Z</time>
      </trkpt>
      <trkpt lat="42.90683" lon="0.11072">
        <ele>1574.3416497134</ele>
        <time>2015-01-10T10:00:19Z</time>
      </trkpt>
      <trkpt lat="42.90686" lon="0.11077">
        <ele>1574.3416497134</ele>
        <time>2015-01-10T10:00:25Z</time>
      </trkpt>
      <trkpt lat="42.90686" lon="0.11084">
        <ele>1575.6208895632</ele>
        <time>2015-01-10T10:00:30Z</time>
      </trkpt>
      <trkpt lat="42.90688" lon="0.11089">
        <ele>1575.6208895632</ele>
        <time>2015-01-10T10:00:34Z</time>
      </trkpt>
      <trkpt lat="42.9069" lon="0.11098">
        <ele>1576.8933448117</ele>
        <time>2015-01-10T10:00:41Z</time>
      </trkpt>
      <trkpt lat="42.90692" lon="0.11102">
        <ele>1576.8933448117</ele>
        <time>2015-01-10T10:00:45Z</time>
      </trkpt>
      <trkpt lat="42.90694" lon="0.11108">
        <ele>1576.8933448117</ele>
        <time>2015-01-10T10:00:49Z</time>
      </trkpt>
      <trkpt lat="42.90694" lon="0.11113">
        <ele>1578.1585913766</ele>
        <time>2015-01-10T10:00:54Z</time>
      </trkpt>
      <trkpt lat="42.90697" lon="0.11117">
        <ele>1578.1585913766</ele>
        <time>2015-01-10T10:01:01Z</time>
      </trkpt>
      <trkpt lat="42.90698" lon="0.11122">
        <ele>1578.1585913766</ele>
        <time>2015-01-10T10:01:05Z</time>
      </trkpt>
      <trkpt lat="42.90699" lon="0.11129">
        <ele>1579.4595221381</ele>
        <time>2015-01-10T10:01:10Z</time>
      </trkpt>
      <trkpt lat="42.90699" lon="0.11134">
        <ele>1579.4595221381</ele>
        <time>2015-01-10T10:01:14Z</time>
      </trkpt>
      <trkpt lat="42.90701" lon="0.11142">
        <ele>1580.734870292</ele>
        <time>2015-01-10T10:01:20Z</time>
      </trkpt>
      <trkpt lat="42.90702" lon="0.11147">
        <ele>1580.734870292</ele>
        <time>2015-01-10T10:01:25Z</time>
      </trkpt>
      <trkpt lat="42.90704" lon="0.11153">
        <ele>1580.734870292</ele>
        <time>2015-01-10T10:01:30Z</time>
      </trkpt>
      <trkpt lat="42.90709" lon="0.11159">
        <ele>1582.0577233759</ele>
        <time>2015-01-10T10:01:35Z</time>
      </trkpt>
      <trkpt lat="42.90711" lon="0.11164">
        <ele>1582.0577233759</ele>
        <time>2015-01-10T10:01:40Z</time>
      </trkpt>
      <trkpt lat="42.90714" lon="0.1117">
        <ele>1583.3082429058</ele>
        <time>2015-01-10T10:01:45Z</time>
      </trkpt>
      <trkpt lat="42.90714" lon="0.11177">
        <ele>1583.3082429058</ele>
        <time>2015-01-10T10:01:50Z</time>
      </trkpt>
      <trkpt lat="42.90715" lon="0.11181">
        <ele>1583.3082429058</ele>
        <time>2015-01-10T10:01:55Z</time>
      </trkpt>
      <trkpt lat="42.90716" lon="0.11186">
        <ele>1584.5053837247</ele>
        <time>2015-01-10T10:02:00Z</time>
      </trkpt>
      <trkpt lat="42.90716" lon="0.11192">
        <ele>1584.5053837247</ele>
        <time>2015-01-10T10:02:05Z</time>
      </trkpt>
      <trkpt lat="42.90718" lon="0.11195">
        <ele>1584.5053837247</ele>
        <time>2015-01-10T10:02:10Z</time>
      </trkpt>
      <trkpt lat="42.90719" lon="0.11203">
        <ele>1585.7245680639</ele>
        <time>2015-01-10T10:02:16Z</time>
      </trkpt>
      <trkpt lat="42.90719" lon="0.11207">
        <ele>1585.7245680639</ele>
        <time>2015-01-10T10:02:19Z</time>
      </trkpt>
      <trkpt lat="42.90721" lon="0.11214">
        <ele>1585.7245680639</ele>
        <time>2015-01-10T10:02:25Z</time>
      </trkpt>
      <trkpt lat="42.90723" lon="0.11219">
        <ele>1586.9058534115</ele>
        <time>2015-01-10T10:02:30Z</time>
      </trkpt>
      <trkpt lat="42.90725" lon="0.11228">
        <ele>1586.9058534115</ele>
        <time>2015-01-10T10:02:35Z</time>
      </trkpt>
      <trkpt lat="42.90724" lon="0.11232">
        <ele>1588.0659367394</ele>
        <time>2015-01-10T10:02:40Z</time>
      </trkpt>
      <trkpt lat="42.90723" lon="0.11238">
        <ele>1588.0659367394</ele>
        <time>2015-01-10T10:02:45Z</time>
      </trkpt>
      <trkpt lat="42.90723" lon="0.11245">
        <ele>1589.1626815055</ele>
        <time>2015-01-10T10:02:50Z</time>
      </trkpt>
      <trkpt lat="42.90723" lon="0.11251">
        <ele>1589.1626815055</ele>
        <time>2015-01-10T10:02:55Z</time>
      </trkpt>
      <trkpt lat="42.90724" lon="0.11257">
        <ele>1589.1626815055</ele>
        <time>2015-01-10T10:02:59Z</time>
      </trkpt>
      <trkpt lat="42.90726" lon="0.11264">
        <ele>1590.2293647417</ele>
        <time>2015-01-10T10:03:04Z</time>
      </trkpt>
      <trkpt lat="42.90725" lon="0.11271">
        <ele>1590.2293647417</ele>
        <time>2015-01-10T10:03:11Z</time>
      </trkpt>
      <trkpt lat="42.90726" lon="0.11274">
        <ele>1590.2293647417</ele>
        <time>2015-01-10T10:03:15Z</time>
      </trkpt>
      <trkpt lat="42.90726" lon="0.1128">
        <ele>1591.3546252768</ele>
        <time>2015-01-10T10:03:19Z</time>
      </trkpt>
      <trkpt lat="42.90727" lon="0.11287">
        <ele>1591.3546252768</ele>
        <time>2015-01-10T10:03:25Z</time>
      </trkpt>
      <trkpt lat="42.90727" lon="0.11293">
        <ele>1592.4185065408</ele>
        <time>2015-01-10T10:03:30Z</time>
      </trkpt>
      <trkpt lat="42.90726" lon="0.11299">
        <ele>1592.4185065408</ele>
        <time>2015-01-10T10:03:35Z</time>
      </trkpt>
      <trkpt lat="42.90727" lon="0.11303">
        <ele>1592.4185065408</ele>
        <time>2015-01-10T10:03:40Z</time>
      </trkpt>
      <trkpt lat="42.90728" lon="0.11309">
        <ele>1593.4398789836</ele>
        <time>2015-01-10T10:03:45Z</time>
      </trkpt>
      <trkpt lat="42.90728" lon="0.11317">
        <ele>1593.4398789836</ele>
        <time>2015-01-10T10:03:50Z</time>
      </trkpt>
      <trkpt lat="42.90727" lon="0.11321">
        <ele>1594.4507898595</ele>
        <time>2015-01-10T10:03:55Z</time>
      </trkpt>
      <trkpt lat="42.90726" lon="0.11328">
        <ele>1594.4507898595</ele>
        <time>2015-01-10T10:04:00Z</time>
      </trkpt>
      <trkpt lat="42.90728" lon="0.11333">
        <ele>1595.4521279748</ele>
        <time>2015-01-10T10:04:05Z</time>
      </trkpt>
      <trkpt lat="42.90727" lon="0.11341">
        <ele>1595.4521279748</ele>
        <time>2015-01-10T10:04:10Z</time>
      </trkpt>
      <trkpt lat="42.90728" lon="0.11348">
        <ele>1596.4159110873</ele>
        <time>2015-01-10T10:04:16Z</time>
      </trkpt>
      <trkpt lat="42.90729" lon="0.11352">
        <ele>1596.4159110873</ele>
        <time>2015-01-10T10:04:20Z</time>
      </trkpt>
      <trkpt lat="42.90729" lon="0.11359">
        <ele>1596.4159110873</ele>
        <time>2015-01-10T10:04:24Z</time>
      </trkpt>
      <trkpt lat="42.90731" lon="0.11364">
        <ele>1597.4461468905</ele>
        <time>2015-01-10T10:04:31Z</time>
      </trkpt>
      <trkpt lat="42.90733" lon="0.11369">
        <ele>1597.4461468905</ele>
        <time>2015-01-10T10:04:35Z</time>
      </trkpt>
      <trkpt lat="42.90734" lon="0.11376">
        <ele>1598.4082426947</ele>
        <time>2015-01-10T10:04:40Z</time>
      </trkpt>
      <trkpt lat="42.90733" lon="0.11383">
        <ele>1598.4082426947</ele>
        <time>2015-01-10T10:04:46Z</time>
      </trkpt>
      <trkpt lat="42.90733" lon="0.11388">
        <ele>1598.4082426947</ele>
        <time>2015-01-10T10:04:50Z</time>
      </trkpt>
      <trkpt lat="42.90735" lon="0.11393">
        <ele>1599.2786755426</ele>
        <time>2015-01-10T10:04:55Z</time>
      </trkpt>
      <trkpt lat="42.90735" lon="0.11399">
        <ele>1599.2786755426</ele>
        <time>2015-01-10T10:05:00Z</time>
      </trkpt>
      <trkpt lat="42.90735" lon="0.11406">
        <ele>1600.0503433345</ele>
        <time>2015-01-10T10:05:05Z</time>
      </trkpt>
      <trkpt lat="42.90736" lon="0.11412">
        <ele>1600.0503433345</ele>
        <time>2015-01-10T10:05:10Z</time>
      </trkpt>
      <trkpt lat="42.90736" lon="0.11422">
        <ele>1600.7313717731</ele>
        <time>2015-01-10T10:05:16Z</time>
      </trkpt>
      <trkpt lat="42.90737" lon="0.11428">
        <ele>1600.7313717731</ele>
        <time>2015-01-10T10:05:20Z</time>
      </trkpt>
      <trkpt lat="42.90739" lon="0.11435">
        <ele>1601.3583856817</ele>
        <time>2015-01-10T10:05:25Z</time>
      </trkpt>
      <trkpt lat="42.90738" lon="0.11444">
        <ele>1601.3583856817</ele>
        <time>2015-01-10T10:05:30Z</time>
      </trkpt>
      <trkpt lat="42.90738" lon="0.11451">
        <ele>1601.9222031572</ele>
        <time>2015-01-10T10:05:35Z</time>
      </trkpt>
      <trkpt lat="42.90738" lon="0.1146">
        <ele>1601.9222031572</ele>
        <time>2015-01-10T10:05:40Z</time>
      </trkpt>
      <trkpt lat="42.90741" lon="0.11463">
        <ele>1602.4000721073</ele>
        <time>2015-01-10T10:05:45Z</time>
      </trkpt>
      <trkpt lat="42.90741" lon="0.11469">
        <ele>1602.4000721073</ele>
        <time>2015-01-10T10:05:50Z</time>
      </trkpt>
      <trkpt lat="42.90742" lon="0.11476">
        <ele>1602.7999845063</ele>
        <time>2015-01-10T10:05:55Z</time>
      </trkpt>
      <trkpt lat="42.90742" lon="0.11481">
        <ele>1602.7999845063</ele>
        <time>2015-01-10T10:06:00Z</time>
      </trkpt>
      <trkpt lat="42.90741" lon="0.11486">
        <ele>1602.7999845063</ele>
        <time>2015-01-10T10:06:05Z</time>
      </trkpt>
      <trkpt lat="42.90742" lon="0.11495">
        <ele>1603.1872177566</ele>
        <time>2015-01-10T10:06:10Z</time>
      </trkpt>
      <trkpt lat="42.90741" lon="0.115">
        <ele>1603.1872177566</ele>
        <time>2015-01-10T10:06:15Z</time>
      </trkpt>
      <trkpt lat="42.90741" lon="0.11506">
        <ele>1603.1872177566</ele>
        <time>2015-01-10T10:06:20Z</time>
      </trkpt>
      <trkpt lat="42.90742" lon="0.11512">
        <ele>1603.5790085152</ele>
        <time>2015-01-10T10:06:25Z</time>
      </trkpt>
      <trkpt lat="42.90742" lon="0.11517">
        <ele>1603.5790085152</ele>
        <time>2015-01-10T10:06:30Z</time>
      </trkpt>
      <trkpt lat="42.90742" lon="0.11522">
        <ele>1603.5790085152</ele>
        <time>2015-01-10T10:06:35Z</time>
      </trkpt>
      <trkpt lat="42.90744" lon="0.11526">
        <ele>1604.092201573</ele>
        <time>2015-01-10T10:06:40Z</time>
      </trkpt>
      <trkpt lat="42.90747" lon="0.11528">
        <ele>1604.092201573</ele>
        <time>2015-01-10T10:06:45Z</time>
      </trkpt>
      <trkpt lat="42.90749" lon="0.1153">
        <ele>1604.092201573</ele>
        <time>2015-01-10T10:06:50Z</time>
      </trkpt>
      <trkpt lat="42.90751" lon="0.11531">
        <ele>1604.092201573</ele>
        <time>2015-01-10T10:06:55Z</time>
      </trkpt>
      <trkpt lat="42.90754" lon="0.11534">
        <ele>1604.8490885908</ele>
        <time>2015-01-10T10:07:00Z</time>
      </trkpt>
      <trkpt lat="42.90755" lon="0.11536">
        <ele>1604.8490885908</ele>
        <time>2015-01-10T10:07:05Z</time>
      </trkpt>
      <trkpt lat="42.90758" lon="0.11539">
        <ele>1604.8490885908</ele>
        <time>2015-01-10T10:07:09Z</time>
      </trkpt>
      <trkpt lat="42.9076" lon="0.11542">
        <ele>1605.7171986515</ele>
        <time>2015-01-10T10:07:16Z</time>
      </trkpt>
      <trkpt lat="42.90762" lon="0.11546">
        <ele>1605.7171986515</ele>
        <time>2015-01-10T10:07:20Z</time>
      </trkpt>
      <trkpt lat="42.90764" lon="0.11548">
        <ele>1605.7171986515</ele>
        <time>2015-01-10T10:07:25Z</time>
      </trkpt>
      <trkpt lat="42.90766" lon="0.11552">
        <ele>1606.746446847</ele>
        <time>2015-01-10T10:07:30Z</time>
      </trkpt>
      <trkpt lat="42.90769" lon="0.11555">
        <ele>1606.746446847</ele>
        <time>2015-01-10T10:07:35Z</time>
      </trkpt>
      <trkpt lat="42.90772" lon="0.11559">
        <ele>1606.746446847</ele>
        <time>2015-01-10T10:07:40Z</time>
      </trkpt>
      <trkpt lat="42.90773" lon="0.11562">
        <ele>1607.7808055335</ele>
        <time>2015-01-10T10:07:46Z</time>
      </trkpt>
      <trkpt lat="42.90775" lon="0.11565">
        <ele>1607.7808055335</ele>
        <time>2015-01-10T10:07:49Z</time>
      </trkpt>
      <trkpt lat="42.90777" lon="0.11569">
        <ele>1607.7808055335</ele>
        <time>2015-01-10T10:07:54Z</time>
      </trkpt>
      <trkpt lat="42.90781" lon="0.11571">
        <ele>1608.819823321</ele>
        <time>2015-01-10T10:08:00Z</time>
      </trkpt>
      <trkpt lat="42.90782" lon="0.1157">
        <ele>1608.819823321</ele>
        <time>2015-01-10T10:08:04Z</time>
      </trkpt>
      <trkpt lat="42.90783" lon="0.11569">
        <ele>1608.819823321</ele>
        <time>2015-01-10T10:08:08Z</time>
      </trkpt>
      <trkpt lat="42.90782" lon="0.1157">
        <ele>1608.819823321</ele>
        <time>2015-01-10T10:08:14Z</time>
      </trkpt>
      <trkpt lat="42.90787" lon="0.11567">
        <ele>1608.819823321</ele>
        <time>2015-01-10T10:10:11Z</time>
      </trkpt>
      <trkpt lat="42.90789" lon="0.11566">
        <ele>1610.6701716702</ele>
        <time>2015-01-10T10:10:20Z</time>
      </trkpt>
      <trkpt lat="42.90794" lon="0.11565">
        <ele>1610.6701716702</ele>
        <time>2015-01-10T10:10:25Z</time>
      </trkpt>
      <trkpt lat="42.90796" lon="0.11562">
        <ele>1610.6701716702</ele>
        <time>2015-01-10T10:10:29Z</time>
      </trkpt>
      <trkpt lat="42.90799" lon="0.11558">
        <ele>1612.3762121776</ele>
        <time>2015-01-10T10:10:34Z</time>
      </trkpt>
      <trkpt lat="42.90801" lon="0.11557">
        <ele>1612.3762121776</ele>
        <time>2015-01-10T10:10:41Z</time>
      </trkpt>
      <trkpt lat="42.90803" lon="0.11558">
        <ele>1612.3762121776</ele>
        <time>2015-01-10T10:10:45Z</time>
      </trkpt>
      <trkpt lat="42.90803" lon="0.11557">
        <ele>1612.3762121776</ele>
        <time>2015-01-10T10:10:50Z</time>
      </trkpt>
      <trkpt lat="42.90803" lon="0.11555">
        <ele>1612.3762121776</ele>
        <time>2015-01-10T10:11:05Z</time>
      </trkpt>
      <trkpt lat="42.90803" lon="0.11556">
        <ele>1612.3762121776</ele>
        <time>2015-01-10T10:11:10Z</time>
      </trkpt>
      <trkpt lat="42.90806" lon="0.1156">
        <ele>1614.076258167</ele>
        <time>2015-01-10T10:11:13Z</time>
      </trkpt>
      <trkpt lat="42.90809" lon="0.11564">
        <ele>1614.076258167</ele>
        <time>2015-01-10T10:11:20Z</time>
      </trkpt>
      <trkpt lat="42.90811" lon="0.11571">
        <ele>1615.6246326604</ele>
        <time>2015-01-10T10:11:25Z</time>
      </trkpt>
      <trkpt lat="42.90811" lon="0.11578">
        <ele>1615.6246326604</ele>
        <time>2015-01-10T10:11:30Z</time>
      </trkpt>
      <trkpt lat="42.9081" lon="0.11585">
        <ele>1616.9012042889</ele>
        <time>2015-01-10T10:11:35Z</time>
      </trkpt>
      <trkpt lat="42.9081" lon="0.11592">
        <ele>1616.9012042889</ele>
        <time>2015-01-10T10:11:39Z</time>
      </trkpt>
      <trkpt lat="42.90811" lon="0.11599">
        <ele>1617.9683758975</ele>
        <time>2015-01-10T10:11:45Z</time>
      </trkpt>
      <trkpt lat="42.90814" lon="0.11603">
        <ele>1617.9683758975</ele>
        <time>2015-01-10T10:11:50Z</time>
      </trkpt>
      <trkpt lat="42.90819" lon="0.11604">
        <ele>1617.9683758975</ele>
        <time>2015-01-10T10:11:54Z</time>
      </trkpt>
      <trkpt lat="42.90822" lon="0.11602">
        <ele>1618.8701429394</ele>
        <time>2015-01-10T10:12:01Z</time>
      </trkpt>
      <trkpt lat="42.90825" lon="0.116">
        <ele>1618.8701429394</ele>
        <time>2015-01-10T10:12:04Z</time>
      </trkpt>
      <trkpt lat="42.90826" lon="0.11597">
        <ele>1618.8701429394</ele>
        <time>2015-01-10T10:12:12Z</time>
      </trkpt>
      <trkpt lat="42.90828" lon="0.11596">
        <ele>1618.8701429394</ele>
        <time>2015-01-10T10:12:14Z</time>
      </trkpt>
      <trkpt lat="42.90829" lon="0.11595">
        <ele>1618.8701429394</ele>
        <time>2015-01-10T10:12:20Z</time>
      </trkpt>
      <trkpt lat="42.90835" lon="0.1159">
        <ele>1619.6909708196</ele>
        <time>2015-01-10T10:12:30Z</time>
      </trkpt>
      <trkpt lat="42.90838" lon="0.11589">
        <ele>1619.6909708196</ele>
        <time>2015-01-10T10:12:35Z</time>
      </trkpt>
      <trkpt lat="42.90842" lon="0.11588">
        <ele>1619.6909708196</ele>
        <time>2015-01-10T10:12:40Z</time>
      </trkpt>
      <trkpt lat="42.90844" lon="0.11587">
        <ele>1620.3796478396</ele>
        <time>2015-01-10T10:12:44Z</time>
      </trkpt>
      <trkpt lat="42.90846" lon="0.1159">
        <ele>1620.3796478396</ele>
        <time>2015-01-10T10:12:50Z</time>
      </trkpt>
      <trkpt lat="42.90848" lon="0.11591">
        <ele>1620.3796478396</ele>
        <time>2015-01-10T10:12:54Z</time>
      </trkpt>
      <trkpt lat="42.90851" lon="0.11595">
        <ele>1621.0620349627</ele>
        <time>2015-01-10T10:13:01Z</time>
      </trkpt>
      <trkpt lat="42.90852" lon="0.11598">
        <ele>1621.0620349627</ele>
        <time>2015-01-10T10:13:05Z</time>
      </trkpt>
      <trkpt lat="42.90854" lon="0.116">
        <ele>1621.0620349627</ele>
        <time>2015-01-10T10:13:10Z</time>
      </trkpt>
      <trkpt lat="42.90858" lon="0.11603">
        <ele>1621.7394748322</ele>
        <time>2015-01-10T10:13:15Z</time>
      </trkpt>
      <trkpt lat="42.90863" lon="0.11604">
        <ele>1621.7394748322</ele>
        <time>2015-01-10T10:13:22Z</time>
      </trkpt>
      <trkpt lat="42.90865" lon="0.11604">
        <ele>1621.7394748322</ele>
        <time>2015-01-10T10:13:24Z</time>
      </trkpt>
      <trkpt lat="42.90869" lon="0.11603">
        <ele>1622.4852809239</ele>
        <time>2015-01-10T10:13:29Z</time>
      </trkpt>
      <trkpt lat="42.90873" lon="0.11602">
        <ele>1622.4852809239</ele>
        <time>2015-01-10T10:13:35Z</time>
      </trkpt>
      <trkpt lat="42.90875" lon="0.11603">
        <ele>1622.4852809239</ele>
        <time>2015-01-10T10:13:40Z</time>
      </trkpt>
      <trkpt lat="42.90878" lon="0.11603">
        <ele>1622.4852809239</ele>
        <time>2015-01-10T10:13:45Z</time>
      </trkpt>
      <trkpt lat="42.90879" lon="0.11604">
        <ele>1623.4968878535</ele>
        <time>2015-01-10T10:13:50Z</time>
      </trkpt>
      <trkpt lat="42.90882" lon="0.11605">
        <ele>1623.4968878535</ele>
        <time>2015-01-10T10:13:55Z</time>
      </trkpt>
      <trkpt lat="42.90885" lon="0.11606">
        <ele>1623.4968878535</ele>
        <time>2015-01-10T10:14:00Z</time>
      </trkpt>
      <trkpt lat="42.90888" lon="0.11607">
        <ele>1623.4968878535</ele>
        <time>2015-01-10T10:14:04Z</time>
      </trkpt>
      <trkpt lat="42.90889" lon="0.1161">
        <ele>1624.855599339</ele>
        <time>2015-01-10T10:14:10Z</time>
      </trkpt>
      <trkpt lat="42.90888" lon="0.11615">
        <ele>1624.855599339</ele>
        <time>2015-01-10T10:14:16Z</time>
      </trkpt>
      <trkpt lat="42.90889" lon="0.11619">
        <ele>1624.855599339</ele>
        <time>2015-01-10T10:14:20Z</time>
      </trkpt>
      <trkpt lat="42.90891" lon="0.11623">
        <ele>1626.4916584203</ele>
        <time>2015-01-10T10:14:26Z</time>
      </trkpt>
      <trkpt lat="42.90893" lon="0.11624">
        <ele>1626.4916584203</ele>
        <time>2015-01-10T10:14:30Z</time>
      </trkpt>
      <trkpt lat="42.90895" lon="0.11624">
        <ele>1626.4916584203</ele>
        <time>2015-01-10T10:14:34Z</time>
      </trkpt>
      <trkpt lat="42.90897" lon="0.11624">
        <ele>1626.4916584203</ele>
        <time>2015-01-10T10:14:39Z</time>
      </trkpt>
      <trkpt lat="42.90897" lon="0.11625">
        <ele>1626.4916584203</ele>
        <time>2015-01-10T10:14:45Z</time>
      </trkpt>
      <trkpt lat="42.90903" lon="0.1163">
        <ele>1628.3684776755</ele>
        <time>2015-01-10T10:15:06Z</time>
      </trkpt>
      <trkpt lat="42.90904" lon="0.11631">
        <ele>1628.3684776755</ele>
        <time>2015-01-10T10:15:10Z</time>
      </trkpt>
      <trkpt lat="42.90904" lon="0.11632">
        <ele>1628.3684776755</ele>
        <time>2015-01-10T10:15:15Z</time>
      </trkpt>
      <trkpt lat="42.90907" lon="0.11634">
        <ele>1628.3684776755</ele>
        <time>2015-01-10T10:15:20Z</time>
      </trkpt>
      <trkpt lat="42.90908" lon="0.11636">
        <ele>1628.3684776755</ele>
        <time>2015-01-10T10:15:24Z</time>
      </trkpt>
      <trkpt lat="42.9091" lon="0.11639">
        <ele>1630.1632606235</ele>
        <time>2015-01-10T10:15:30Z</time>
      </trkpt>
      <trkpt lat="42.90911" lon="0.11641">
        <ele>1630.1632606235</ele>
        <time>2015-01-10T10:15:35Z</time>
      </trkpt>
      <trkpt lat="42.90913" lon="0.11643">
        <ele>1630.1632606235</ele>
        <time>2015-01-10T10:15:40Z</time>
      </trkpt>
      <trkpt lat="42.90915" lon="0.11645">
        <ele>1630.1632606235</ele>
        <time>2015-01-10T10:15:44Z</time>
      </trkpt>
      <trkpt lat="42.9092" lon="0.11648">
        <ele>1632.0815598061</ele>
        <time>2015-01-10T10:15:51Z</time>
      </trkpt>
      <trkpt lat="42.90921" lon="0.1165">
        <ele>1632.0815598061</ele>
        <time>2015-01-10T10:15:54Z</time>
      </trkpt>
      <trkpt lat="42.90922" lon="0.11653">
        <ele>1632.0815598061</ele>
        <time>2015-01-10T10:16:01Z</time>
      </trkpt>
      <trkpt lat="42.90922" lon="0.11653">
        <ele>1632.0815598061</ele>
        <time>2015-01-10T10:16:05Z</time>
      </trkpt>
      <trkpt lat="42.90925" lon="0.11656">
        <ele>1632.0815598061</ele>
        <time>2015-01-10T10:16:10Z</time>
      </trkpt>
      <trkpt lat="42.90927" lon="0.11658">
        <ele>1634.227031785</ele>
        <time>2015-01-10T10:16:15Z</time>
      </trkpt>
      <trkpt lat="42.90928" lon="0.11659">
        <ele>1634.227031785</ele>
        <time>2015-01-10T10:16:19Z</time>
      </trkpt>
      <trkpt lat="42.90931" lon="0.11662">
        <ele>1634.227031785</ele>
        <time>2015-01-10T10:16:25Z</time>
      </trkpt>
      <trkpt lat="42.90934" lon="0.11669">
        <ele>1636.4357009916</ele>
        <time>2015-01-10T10:16:40Z</time>
      </trkpt>
      <trkpt lat="42.90938" lon="0.11671">
        <ele>1636.4357009916</ele>
        <time>2015-01-10T10:16:44Z</time>
      </trkpt>
      <trkpt lat="42.90941" lon="0.11674">
        <ele>1636.4357009916</ele>
        <time>2015-01-10T10:16:49Z</time>
      </trkpt>
      <trkpt lat="42.90943" lon="0.11678">
        <ele>1638.6131364392</ele>
        <time>2015-01-10T10:16:56Z</time>
      </trkpt>
      <trkpt lat="42.90945" lon="0.11681">
        <ele>1638.6131364392</ele>
        <time>2015-01-10T10:17:00Z</time>
      </trkpt>
      <trkpt lat="42.90947" lon="0.11686">
        <ele>1638.6131364392</ele>
        <time>2015-01-10T10:17:06Z</time>
      </trkpt>
      <trkpt lat="42.90947" lon="0.11689">
        <ele>1640.6575580991</ele>
        <time>2015-01-10T10:17:10Z</time>
      </trkpt>
      <trkpt lat="42.90949" lon="0.11689">
        <ele>1640.6575580991</ele>
        <time>2015-01-10T10:17:15Z</time>
      </trkpt>
      <trkpt lat="42.90952" lon="0.11693">
        <ele>1640.6575580991</ele>
        <time>2015-01-10T10:17:20Z</time>
      </trkpt>
      <trkpt lat="42.90953" lon="0.11694">
        <ele>1640.6575580991</ele>
        <time>2015-01-10T10:17:25Z</time>
      </trkpt>
      <trkpt lat="42.90958" lon="0.11699">
        <ele>1643.2244769767</ele>
        <time>2015-01-10T10:18:00Z</time>
      </trkpt>
      <trkpt lat="42.9096" lon="0.11704">
        <ele>1643.2244769767</ele>
        <time>2015-01-10T10:18:14Z</time>
      </trkpt>
      <trkpt lat="42.9096" lon="0.11707">
        <ele>1643.2244769767</ele>
        <time>2015-01-10T10:18:20Z</time>
      </trkpt>
      <trkpt lat="42.90963" lon="0.11712">
        <ele>1645.7669207196</ele>
        <time>2015-01-10T10:18:25Z</time>
      </trkpt>
      <trkpt lat="42.90963" lon="0.11716">
        <ele>1645.7669207196</ele>
        <time>2015-01-10T10:18:30Z</time>
      </trkpt>
      <trkpt lat="42.90965" lon="0.11721">
        <ele>1645.7669207196</ele>
        <time>2015-01-10T10:18:35Z</time>
      </trkpt>
      <trkpt lat="42.90966" lon="0.11727">
        <ele>1648.2538034827</ele>
        <time>2015-01-10T10:18:41Z</time>
      </trkpt>
      <trkpt lat="42.90967" lon="0.1173">
        <ele>1648.2538034827</ele>
        <time>2015-01-10T10:18:45Z</time>
      </trkpt>
      <trkpt lat="42.90968" lon="0.11732">
        <ele>1648.2538034827</ele>
        <time>2015-01-10T10:18:50Z</time>
      </trkpt>
      <trkpt lat="42.9097" lon="0.11733">
        <ele>1648.2538034827</ele>
        <time>2015-01-10T10:18:55Z</time>
      </trkpt>
      <trkpt lat="42.90976" lon="0.11737">
        <ele>1650.8438948746</ele>
        <time>2015-01-10T10:18:59Z</time>
      </trkpt>
      <trkpt lat="42.90978" lon="0.11739">
        <ele>1650.8438948746</ele>
        <time>2015-01-10T10:19:05Z</time>
      </trkpt>
      <trkpt lat="42.9098" lon="0.11743">
        <ele>1650.8438948746</ele>
        <time>2015-01-10T10:19:09Z</time>
      </trkpt>
      <trkpt lat="42.90982" lon="0.11745">
        <ele>1650.8438948746</ele>
        <time>2015-01-10T10:19:14Z</time>
      </trkpt>
      <trkpt lat="42.90983" lon="0.11749">
        <ele>1653.4967362169</ele>
        <time>2015-01-10T10:19:21Z</time>
      </trkpt>
      <trkpt lat="42.90984" lon="0.11752">
        <ele>1653.4967362169</ele>
        <time>2015-01-10T10:19:24Z</time>
      </trkpt>
      <trkpt lat="42.90988" lon="0.11755">
        <ele>1653.4967362169</ele>
        <time>2015-01-10T10:19:30Z</time>
      </trkpt>
      <trkpt lat="42.9099" lon="0.11755">
        <ele>1653.4967362169</ele>
        <time>2015-01-10T10:19:35Z</time>
      </trkpt>
      <trkpt lat="42.90993" lon="0.11756">
        <ele>1656.2035683576</ele>
        <time>2015-01-10T10:19:40Z</time>
      </trkpt>
      <trkpt lat="42.90998" lon="0.11761">
        <ele>1656.2035683576</ele>
        <time>2015-01-10T10:19:45Z</time>
      </trkpt>
      <trkpt lat="42.91001" lon="0.11762">
        <ele>1656.2035683576</ele>
        <time>2015-01-10T10:19:50Z</time>
      </trkpt>
      <trkpt lat="42.90999" lon="0.11764">
        <ele>1658.8985649535</ele>
        <time>2015-01-10T10:19:54Z</time>
      </trkpt>
      <trkpt lat="42.91009" lon="0.11764">
        <ele>1663.0773019664</ele>
        <time>2015-01-10T10:22:13Z</time>
      </trkpt>
      <trkpt lat="42.91009" lon="0.11765">
        <ele>1663.0773019664</ele>
        <time>2015-01-10T10:22:18Z</time>
      </trkpt>
      <trkpt lat="42.91008" lon="0.11767">
        <ele>1663.0773019664</ele>
        <time>2015-01-10T10:25:15Z</time>
      </trkpt>
      <trkpt lat="42.91008" lon="0.11768">
        <ele>1663.0773019664</ele>
        <time>2015-01-10T10:25:20Z</time>
      </trkpt>
      <trkpt lat="42.91009" lon="0.11768">
        <ele>1663.0773019664</ele>
        <time>2015-01-10T10:25:25Z</time>
      </trkpt>
      <trkpt lat="42.91012" lon="0.11772">
        <ele>1663.0773019664</ele>
        <time>2015-01-10T10:25:30Z</time>
      </trkpt>
      <trkpt lat="42.91016" lon="0.11773">
        <ele>1667.7003033903</ele>
        <time>2015-01-10T10:25:35Z</time>
      </trkpt>
      <trkpt lat="42.91017" lon="0.11774">
        <ele>1667.7003033903</ele>
        <time>2015-01-10T10:25:40Z</time>
      </trkpt>
      <trkpt lat="42.91019" lon="0.11776">
        <ele>1667.7003033903</ele>
        <time>2015-01-10T10:25:45Z</time>
      </trkpt>
      <trkpt lat="42.91019" lon="0.11777">
        <ele>1667.7003033903</ele>
        <time>2015-01-10T10:25:50Z</time>
      </trkpt>
      <trkpt lat="42.91022" lon="0.1178">
        <ele>1667.7003033903</ele>
        <time>2015-01-10T10:25:55Z</time>
      </trkpt>
      <trkpt lat="42.91023" lon="0.11784">
        <ele>1672.0195003289</ele>
        <time>2015-01-10T10:26:00Z</time>
      </trkpt>
      <trkpt lat="42.91026" lon="0.11788">
        <ele>1672.0195003289</ele>
        <time>2015-01-10T10:26:05Z</time>
      </trkpt>
      <trkpt lat="42.91027" lon="0.11789">
        <ele>1672.0195003289</ele>
        <time>2015-01-10T10:26:09Z</time>
      </trkpt>
      <trkpt lat="42.9103" lon="0.11794">
        <ele>1675.9912789373</ele>
        <time>2015-01-10T10:26:14Z</time>
      </trkpt>
      <trkpt lat="42.91034" lon="0.11799">
        <ele>1675.9912789373</ele>
        <time>2015-01-10T10:26:20Z</time>
      </trkpt>
      <trkpt lat="42.91035" lon="0.11801">
        <ele>1675.9912789373</ele>
        <time>2015-01-10T10:26:25Z</time>
      </trkpt>
      <trkpt lat="42.91039" lon="0.11803">
        <ele>1679.8069329207</ele>
        <time>2015-01-10T10:26:30Z</time>
      </trkpt>
      <trkpt lat="42.9104" lon="0.11806">
        <ele>1679.8069329207</ele>
        <time>2015-01-10T10:26:35Z</time>
      </trkpt>
      <trkpt lat="42.91041" lon="0.11806">
        <ele>1679.8069329207</ele>
        <time>2015-01-10T10:26:39Z</time>
      </trkpt>
      <trkpt lat="42.91046" lon="0.11814">
        <ele>1683.3848931504</ele>
        <time>2015-01-10T10:26:44Z</time>
      </trkpt>
      <trkpt lat="42.91048" lon="0.11819">
        <ele>1683.3848931504</ele>
        <time>2015-01-10T10:26:50Z</time>
      </trkpt>
      <trkpt lat="42.91047" lon="0.11823">
        <ele>1683.3848931504</ele>
        <time>2015-01-10T10:26:55Z</time>
      </trkpt>
      <trkpt lat="42.91048" lon="0.11826">
        <ele>1686.7368831719</ele>
        <time>2015-01-10T10:26:59Z</time>
      </trkpt>
      <trkpt lat="42.9105" lon="0.1183">
        <ele>1686.7368831719</ele>
        <time>2015-01-10T10:27:06Z</time>
      </trkpt>
      <trkpt lat="42.91051" lon="0.11831">
        <ele>1686.7368831719</ele>
        <time>2015-01-10T10:27:10Z</time>
      </trkpt>
      <trkpt lat="42.91051" lon="0.11832">
        <ele>1686.7368831719</ele>
        <time>2015-01-10T10:27:14Z</time>
      </trkpt>
      <trkpt lat="42.91053" lon="0.11833">
        <ele>1686.7368831719</ele>
        <time>2015-01-10T10:27:20Z</time>
      </trkpt>
      <trkpt lat="42.91053" lon="0.11835">
        <ele>1686.7368831719</ele>
        <time>2015-01-10T10:27:24Z</time>
      </trkpt>
      <trkpt lat="42.91059" lon="0.1182">
        <ele>1690.8113078163</ele>
        <time>2015-01-10T10:28:10Z</time>
      </trkpt>
      <trkpt lat="42.9106" lon="0.11818">
        <ele>1690.8113078163</ele>
        <time>2015-01-10T10:28:14Z</time>
      </trkpt>
      <trkpt lat="42.91059" lon="0.11814">
        <ele>1690.8113078163</ele>
        <time>2015-01-10T10:28:20Z</time>
      </trkpt>
      <trkpt lat="42.91059" lon="0.1181">
        <ele>1690.8113078163</ele>
        <time>2015-01-10T10:28:25Z</time>
      </trkpt>
      <trkpt lat="42.91059" lon="0.11807">
        <ele>1694.8709789724</ele>
        <time>2015-01-10T10:28:29Z</time>
      </trkpt>
      <trkpt lat="42.9106" lon="0.11802">
        <ele>1694.8709789724</ele>
        <time>2015-01-10T10:28:35Z</time>
      </trkpt>
      <trkpt lat="42.91061" lon="0.11797">
        <ele>1694.8709789724</ele>
        <time>2015-01-10T10:28:40Z</time>
      </trkpt>
      <trkpt lat="42.9106" lon="0.11793">
        <ele>1698.8095409745</ele>
        <time>2015-01-10T10:28:45Z</time>
      </trkpt>
      <trkpt lat="42.9106" lon="0.11787">
        <ele>1698.8095409745</ele>
        <time>2015-01-10T10:28:50Z</time>
      </trkpt>
      <trkpt lat="42.9106" lon="0.11781">
        <ele>1698.8095409745</ele>
        <time>2015-01-10T10:28:55Z</time>
      </trkpt>
      <trkpt lat="42.91061" lon="0.11777">
        <ele>1702.5866221467</ele>
        <time>2015-01-10T10:28:59Z</time>
      </trkpt>
      <trkpt lat="42.91061" lon="0.11774">
        <ele>1702.5866221467</ele>
        <time>2015-01-10T10:29:05Z</time>
      </trkpt>
      <trkpt lat="42.91061" lon="0.11771">
        <ele>1702.5866221467</ele>
        <time>2015-01-10T10:29:10Z</time>
      </trkpt>
      <trkpt lat="42.91062" lon="0.11767">
        <ele>1702.5866221467</ele>
        <time>2015-01-10T10:29:14Z</time>
      </trkpt>
      <trkpt lat="42.91063" lon="0.1176">
        <ele>1706.3816283566</ele>
        <time>2015-01-10T10:29:19Z</time>
      </trkpt>
      <trkpt lat="42.91063" lon="0.11754">
        <ele>1706.3816283566</ele>
        <time>2015-01-10T10:29:25Z</time>
      </trkpt>
      <trkpt lat="42.91063" lon="0.11752">
        <ele>1706.3816283566</ele>
        <time>2015-01-10T10:29:30Z</time>
      </trkpt>
      <trkpt lat="42.91064" lon="0.1175">
        <ele>1706.3816283566</ele>
        <time>2015-01-10T10:29:34Z</time>
      </trkpt>
      <trkpt lat="42.91064" lon="0.11745">
        <ele>1710.173581366</ele>
        <time>2015-01-10T10:29:40Z</time>
      </trkpt>
      <trkpt lat="42.91065" lon="0.11742">
        <ele>1710.173581366</ele>
        <time>2015-01-10T10:29:45Z</time>
      </trkpt>
      <trkpt lat="42.91066" lon="0.11738">
        <ele>1710.173581366</ele>
        <time>2015-01-10T10:29:50Z</time>
      </trkpt>
      <trkpt lat="42.91065" lon="0.11734">
        <ele>1710.173581366</ele>
        <time>2015-01-10T10:29:55Z</time>
      </trkpt>
      <trkpt lat="42.91066" lon="0.11731">
        <ele>1713.9576575744</ele>
        <time>2015-01-10T10:30:00Z</time>
      </trkpt>
      <trkpt lat="42.91067" lon="0.11729">
        <ele>1713.9576575744</ele>
        <time>2015-01-10T10:30:05Z</time>
      </trkpt>
      <trkpt lat="42.91067" lon="0.11728">
        <ele>1713.9576575744</ele>
        <time>2015-01-10T10:30:09Z</time>
      </trkpt>
      <trkpt lat="42.91067" lon="0.11723">
        <ele>1713.9576575744</ele>
        <time>2015-01-10T10:30:25Z</time>
      </trkpt>
      <trkpt lat="42.91068" lon="0.11723">
        <ele>1713.9576575744</ele>
        <time>2015-01-10T10:30:29Z</time>
      </trkpt>
      <trkpt lat="42.91069" lon="0.11721">
        <ele>1713.9576575744</ele>
        <time>2015-01-10T10:30:34Z</time>
      </trkpt>
      <trkpt lat="42.91072" lon="0.11724">
        <ele>1717.9890062373</ele>
        <time>2015-01-10T10:30:45Z</time>
      </trkpt>
      <trkpt lat="42.91075" lon="0.11726">
        <ele>1717.9890062373</ele>
        <time>2015-01-10T10:30:50Z</time>
      </trkpt>
      <trkpt lat="42.91076" lon="0.1173">
        <ele>1717.9890062373</ele>
        <time>2015-01-10T10:30:55Z</time>
      </trkpt>
      <trkpt lat="42.91078" lon="0.11733">
        <ele>1721.7109175818</ele>
        <time>2015-01-10T10:30:59Z</time>
      </trkpt>
      <trkpt lat="42.9108" lon="0.11736">
        <ele>1721.7109175818</ele>
        <time>2015-01-10T10:31:04Z</time>
      </trkpt>
      <trkpt lat="42.91083" lon="0.1174">
        <ele>1721.7109175818</ele>
        <time>2015-01-10T10:31:10Z</time>
      </trkpt>
      <trkpt lat="42.91085" lon="0.11744">
        <ele>1725.1706773866</ele>
        <time>2015-01-10T10:31:16Z</time>
      </trkpt>
      <trkpt lat="42.91087" lon="0.11746">
        <ele>1725.1706773866</ele>
        <time>2015-01-10T10:31:19Z</time>
      </trkpt>
      <trkpt lat="42.91089" lon="0.11749">
        <ele>1725.1706773866</ele>
        <time>2015-01-10T10:31:24Z</time>
      </trkpt>
      <trkpt lat="42.91089" lon="0.11744">
        <ele>1728.6724258971</ele>
        <time>2015-01-10T10:31:31Z</time>
      </trkpt>
      <trkpt lat="42.91092" lon="0.11745">
        <ele>1728.6724258971</ele>
        <time>2015-01-10T10:31:35Z</time>
      </trkpt>
      <trkpt lat="42.91095" lon="0.11749">
        <ele>1728.6724258971</ele>
        <time>2015-01-10T10:31:40Z</time>
      </trkpt>
      <trkpt lat="42.91098" lon="0.11753">
        <ele>1732.3971536337</ele>
        <time>2015-01-10T10:31:45Z</time>
      </trkpt>
      <trkpt lat="42.91099" lon="0.11757">
        <ele>1732.3971536337</ele>
        <time>2015-01-10T10:31:50Z</time>
      </trkpt>
      <trkpt lat="42.911" lon="0.11758">
        <ele>1732.3971536337</ele>
        <time>2015-01-10T10:31:55Z</time>
      </trkpt>
      <trkpt lat="42.911" lon="0.11771">
        <ele>1736.9588624618</ele>
        <time>2015-01-10T10:34:14Z</time>
      </trkpt>
      <trkpt lat="42.91101" lon="0.1177">
        <ele>1736.9588624618</ele>
        <time>2015-01-10T10:34:20Z</time>
      </trkpt>
      <trkpt lat="42.91099" lon="0.11764">
        <ele>1736.9588624618</ele>
        <time>2015-01-10T10:37:20Z</time>
      </trkpt>
      <trkpt lat="42.911" lon="0.1176">
        <ele>1741.4543494913</ele>
        <time>2015-01-10T10:37:25Z</time>
      </trkpt>
      <trkpt lat="42.911" lon="0.11757">
        <ele>1741.4543494913</ele>
        <time>2015-01-10T10:37:29Z</time>
      </trkpt>
      <trkpt lat="42.911" lon="0.11751">
        <ele>1741.4543494913</ele>
        <time>2015-01-10T10:37:36Z</time>
      </trkpt>
      <trkpt lat="42.91101" lon="0.11748">
        <ele>1741.4543494913</ele>
        <time>2015-01-10T10:37:40Z</time>
      </trkpt>
      <trkpt lat="42.91101" lon="0.11745">
        <ele>1745.5227009276</ele>
        <time>2015-01-10T10:37:45Z</time>
      </trkpt>
      <trkpt lat="42.91101" lon="0.1174">
        <ele>1745.5227009276</ele>
        <time>2015-01-10T10:37:50Z</time>
      </trkpt>
      <trkpt lat="42.91101" lon="0.11737">
        <ele>1745.5227009276</ele>
        <time>2015-01-10T10:37:54Z</time>
      </trkpt>
      <trkpt lat="42.91102" lon="0.11732">
        <ele>1749.1335326603</ele>
        <time>2015-01-10T10:38:00Z</time>
      </trkpt>
      <trkpt lat="42.91102" lon="0.1173">
        <ele>1749.1335326603</ele>
        <time>2015-01-10T10:38:05Z</time>
      </trkpt>
      <trkpt lat="42.91101" lon="0.11727">
        <ele>1749.1335326603</ele>
        <time>2015-01-10T10:38:10Z</time>
      </trkpt>
      <trkpt lat="42.91102" lon="0.11722">
        <ele>1749.1335326603</ele>
        <time>2015-01-10T10:38:15Z</time>
      </trkpt>
      <trkpt lat="42.91103" lon="0.11719">
        <ele>1752.3610363202</ele>
        <time>2015-01-10T10:38:20Z</time>
      </trkpt>
      <trkpt lat="42.91104" lon="0.11716">
        <ele>1752.3610363202</ele>
        <time>2015-01-10T10:38:25Z</time>
      </trkpt>
      <trkpt lat="42.91106" lon="0.11712">
        <ele>1752.3610363202</ele>
        <time>2015-01-10T10:38:30Z</time>
      </trkpt>
      <trkpt lat="42.91107" lon="0.11709">
        <ele>1752.3610363202</ele>
        <time>2015-01-10T10:38:35Z</time>
      </trkpt>
      <trkpt lat="42.91109" lon="0.11708">
        <ele>1755.2752055777</ele>
        <time>2015-01-10T10:38:40Z</time>
      </trkpt>
      <trkpt lat="42.91109" lon="0.11706">
        <ele>1755.2752055777</ele>
        <time>2015-01-10T10:38:45Z</time>
      </trkpt>
      <trkpt lat="42.91112" lon="0.11711">
        <ele>1755.2752055777</ele>
        <time>2015-01-10T10:38:55Z</time>
      </trkpt>
      <trkpt lat="42.91114" lon="0.11716">
        <ele>1757.9995840816</ele>
        <time>2015-01-10T10:38:59Z</time>
      </trkpt>
      <trkpt lat="42.91116" lon="0.11719">
        <ele>1757.9995840816</ele>
        <time>2015-01-10T10:39:05Z</time>
      </trkpt>
      <trkpt lat="42.91119" lon="0.11722">
        <ele>1757.9995840816</ele>
        <time>2015-01-10T10:39:10Z</time>
      </trkpt>
      <trkpt lat="42.9112" lon="0.11726">
        <ele>1760.490807114</ele>
        <time>2015-01-10T10:39:15Z</time>
      </trkpt>
      <trkpt lat="42.91122" lon="0.1173">
        <ele>1760.490807114</ele>
        <time>2015-01-10T10:39:20Z</time>
      </trkpt>
      <trkpt lat="42.91124" lon="0.11736">
        <ele>1760.490807114</ele>
        <time>2015-01-10T10:39:25Z</time>
      </trkpt>
      <trkpt lat="42.91126" lon="0.11737">
        <ele>1762.7671381495</ele>
        <time>2015-01-10T10:39:30Z</time>
      </trkpt>
      <trkpt lat="42.91128" lon="0.11741">
        <ele>1762.7671381495</ele>
        <time>2015-01-10T10:39:35Z</time>
      </trkpt>
      <trkpt lat="42.91128" lon="0.11743">
        <ele>1762.7671381495</ele>
        <time>2015-01-10T10:39:40Z</time>
      </trkpt>
      <trkpt lat="42.91128" lon="0.11743">
        <ele>1762.7671381495</ele>
        <time>2015-01-10T10:39:45Z</time>
      </trkpt>
      <trkpt lat="42.91132" lon="0.11745">
        <ele>1764.8606427018</ele>
        <time>2015-01-10T10:39:52Z</time>
      </trkpt>
      <trkpt lat="42.91133" lon="0.11747">
        <ele>1764.8606427018</ele>
        <time>2015-01-10T10:39:54Z</time>
      </trkpt>
      <trkpt lat="42.91131" lon="0.11744">
        <ele>1764.8606427018</ele>
        <time>2015-01-10T10:40:00Z</time>
      </trkpt>
      <trkpt lat="42.91132" lon="0.11742">
        <ele>1764.8606427018</ele>
        <time>2015-01-10T10:40:04Z</time>
      </trkpt>
      <trkpt lat="42.91132" lon="0.11739">
        <ele>1764.8606427018</ele>
        <time>2015-01-10T10:40:08Z</time>
      </trkpt>
      <trkpt lat="42.91133" lon="0.11734">
        <ele>1766.8304803234</ele>
        <time>2015-01-10T10:40:14Z</time>
      </trkpt>
      <trkpt lat="42.91134" lon="0.1173">
        <ele>1766.8304803234</ele>
        <time>2015-01-10T10:40:21Z</time>
      </trkpt>
      <trkpt lat="42.91134" lon="0.11726">
        <ele>1766.8304803234</ele>
        <time>2015-01-10T10:40:24Z</time>
      </trkpt>
      <trkpt lat="42.91135" lon="0.11723">
        <ele>1766.8304803234</ele>
        <time>2015-01-10T10:40:29Z</time>
      </trkpt>
      <trkpt lat="42.91136" lon="0.1172">
        <ele>1768.4725096098</ele>
        <time>2015-01-10T10:40:34Z</time>
      </trkpt>
      <trkpt lat="42.91138" lon="0.11715">
        <ele>1768.4725096098</ele>
        <time>2015-01-10T10:40:39Z</time>
      </trkpt>
      <trkpt lat="42.91139" lon="0.11711">
        <ele>1768.4725096098</ele>
        <time>2015-01-10T10:40:44Z</time>
      </trkpt>
      <trkpt lat="42.91142" lon="0.11707">
        <ele>1769.915630562</ele>
        <time>2015-01-10T10:40:50Z</time>
      </trkpt>
      <trkpt lat="42.91144" lon="0.11706">
        <ele>1769.915630562</ele>
        <time>2015-01-10T10:40:55Z</time>
      </trkpt>
      <trkpt lat="42.91144" lon="0.11706">
        <ele>1769.915630562</ele>
        <time>2015-01-10T10:41:00Z</time>
      </trkpt>
      <trkpt lat="42.91145" lon="0.11706">
        <ele>1769.915630562</ele>
        <time>2015-01-10T10:41:09Z</time>
      </trkpt>
      <trkpt lat="42.91146" lon="0.11709">
        <ele>1769.915630562</ele>
        <time>2015-01-10T10:41:15Z</time>
      </trkpt>
      <trkpt lat="42.91148" lon="0.1171">
        <ele>1769.915630562</ele>
        <time>2015-01-10T10:41:19Z</time>
      </trkpt>
      <trkpt lat="42.91149" lon="0.11712">
        <ele>1771.4240071807</ele>
        <time>2015-01-10T10:41:24Z</time>
      </trkpt>
      <trkpt lat="42.91153" lon="0.11715">
        <ele>1771.4240071807</ele>
        <time>2015-01-10T10:41:30Z</time>
      </trkpt>
      <trkpt lat="42.91154" lon="0.11718">
        <ele>1771.4240071807</ele>
        <time>2015-01-10T10:41:34Z</time>
      </trkpt>
      <trkpt lat="42.91158" lon="0.11719">
        <ele>1772.8387498868</ele>
        <time>2015-01-10T10:41:40Z</time>
      </trkpt>
      <trkpt lat="42.9116" lon="0.11724">
        <ele>1772.8387498868</ele>
        <time>2015-01-10T10:41:45Z</time>
      </trkpt>
      <trkpt lat="42.91162" lon="0.11727">
        <ele>1772.8387498868</ele>
        <time>2015-01-10T10:41:49Z</time>
      </trkpt>
      <trkpt lat="42.91161" lon="0.11731">
        <ele>1774.2146883769</ele>
        <time>2015-01-10T10:41:54Z</time>
      </trkpt>
      <trkpt lat="42.9116" lon="0.11735">
        <ele>1774.2146883769</ele>
        <time>2015-01-10T10:42:00Z</time>
      </trkpt>
      <trkpt lat="42.91157" lon="0.11739">
        <ele>1774.2146883769</ele>
        <time>2015-01-10T10:42:05Z</time>
      </trkpt>
      <trkpt lat="42.91158" lon="0.11741">
        <ele>1774.2146883769</ele>
        <time>2015-01-10T10:42:09Z</time>
      </trkpt>
      <trkpt lat="42.91161" lon="0.11747">
        <ele>1775.5451014743</ele>
        <time>2015-01-10T10:42:16Z</time>
      </trkpt>
      <trkpt lat="42.91163" lon="0.11751">
        <ele>1775.5451014743</ele>
        <time>2015-01-10T10:42:20Z</time>
      </trkpt>
      <trkpt lat="42.91167" lon="0.11757">
        <ele>1776.7085971957</ele>
        <time>2015-01-10T10:42:25Z</time>
      </trkpt>
      <trkpt lat="42.91168" lon="0.11757">
        <ele>1776.7085971957</ele>
        <time>2015-01-10T10:42:30Z</time>
      </trkpt>
      <trkpt lat="42.91171" lon="0.11759">
        <ele>1776.7085971957</ele>
        <time>2015-01-10T10:42:35Z</time>
      </trkpt>
      <trkpt lat="42.91174" lon="0.11762">
        <ele>1776.7085971957</ele>
        <time>2015-01-10T10:42:40Z</time>
      </trkpt>
      <trkpt lat="42.91174" lon="0.11762">
        <ele>1776.7085971957</ele>
        <time>2015-01-10T10:42:47Z</time>
      </trkpt>
      <trkpt lat="42.91177" lon="0.11762">
        <ele>1777.8813733388</ele>
        <time>2015-01-10T10:42:50Z</time>
      </trkpt>
      <trkpt lat="42.91181" lon="0.11763">
        <ele>1777.8813733388</ele>
        <time>2015-01-10T10:42:55Z</time>
      </trkpt>
      <trkpt lat="42.91185" lon="0.11764">
        <ele>1777.8813733388</ele>
        <time>2015-01-10T10:43:00Z</time>
      </trkpt>
      <trkpt lat="42.91187" lon="0.11765">
        <ele>1779.0392809831</ele>
        <time>2015-01-10T10:43:04Z</time>
      </trkpt>
      <trkpt lat="42.91189" lon="0.11769">
        <ele>1779.0392809831</ele>
        <time>2015-01-10T10:43:10Z</time>
      </trkpt>
      <trkpt lat="42.91192" lon="0.11769">
        <ele>1779.0392809831</ele>
        <time>2015-01-10T10:43:15Z</time>
      </trkpt>
      <trkpt lat="42.91194" lon="0.11771">
        <ele>1780.2031740115</ele>
        <time>2015-01-10T10:43:20Z</time>
      </trkpt>
      <trkpt lat="42.91194" lon="0.11771">
        <ele>1780.2031740115</ele>
        <time>2015-01-10T10:43:25Z</time>
      </trkpt>
      <trkpt lat="42.91198" lon="0.11778">
        <ele>1780.2031740115</ele>
        <time>2015-01-10T10:45:15Z</time>
      </trkpt>
      <trkpt lat="42.91199" lon="0.11778">
        <ele>1780.2031740115</ele>
        <time>2015-01-10T10:45:20Z</time>
      </trkpt>
      <trkpt lat="42.91197" lon="0.1178">
        <ele>1782.3866682004</ele>
        <time>2015-01-10T10:45:35Z</time>
      </trkpt>
      <trkpt lat="42.91198" lon="0.11777">
        <ele>1782.3866682004</ele>
        <time>2015-01-10T10:45:40Z</time>
      </trkpt>
      <trkpt lat="42.91197" lon="0.11772">
        <ele>1782.3866682004</ele>
        <time>2015-01-10T10:45:45Z</time>
      </trkpt>
      <trkpt lat="42.91197" lon="0.11768">
        <ele>1782.3866682004</ele>
        <time>2015-01-10T10:45:49Z</time>
      </trkpt>
      <trkpt lat="42.91196" lon="0.11763">
        <ele>1784.4363803618</ele>
        <time>2015-01-10T10:45:55Z</time>
      </trkpt>
      <trkpt lat="42.91196" lon="0.11758">
        <ele>1784.4363803618</ele>
        <time>2015-01-10T10:46:00Z</time>
      </trkpt>
      <trkpt lat="42.91198" lon="0.11754">
        <ele>1784.4363803618</ele>
        <time>2015-01-10T10:46:05Z</time>
      </trkpt>
      <trkpt lat="42.91199" lon="0.11752">
        <ele>1784.4363803618</ele>
        <time>2015-01-10T10:46:11Z</time>
      </trkpt>
      <trkpt lat="42.912" lon="0.11747">
        <ele>1786.4080254186</ele>
        <time>2015-01-10T10:46:15Z</time>
      </trkpt>
      <trkpt lat="42.91202" lon="0.11745">
        <ele>1786.4080254186</ele>
        <time>2015-01-10T10:46:19Z</time>
      </trkpt>
      <trkpt lat="42.91202" lon="0.11741">
        <ele>1786.4080254186</ele>
        <time>2015-01-10T10:46:25Z</time>
      </trkpt>
      <trkpt lat="42.91204" lon="0.11737">
        <ele>1786.4080254186</ele>
        <time>2015-01-10T10:46:30Z</time>
      </trkpt>
      <trkpt lat="42.91206" lon="0.11732">
        <ele>1788.3821911781</ele>
        <time>2015-01-10T10:46:35Z</time>
      </trkpt>
      <trkpt lat="42.91209" lon="0.1173">
        <ele>1788.3821911781</ele>
        <time>2015-01-10T10:46:40Z</time>
      </trkpt>
      <trkpt lat="42.9121" lon="0.11728">
        <ele>1788.3821911781</ele>
        <time>2015-01-10T10:46:44Z</time>
      </trkpt>
      <trkpt lat="42.91213" lon="0.11727">
        <ele>1788.3821911781</ele>
        <time>2015-01-10T10:46:50Z</time>
      </trkpt>
      <trkpt lat="42.91214" lon="0.11724">
        <ele>1790.4190495862</ele>
        <time>2015-01-10T10:46:55Z</time>
      </trkpt>
      <trkpt lat="42.91215" lon="0.1172">
        <ele>1790.4190495862</ele>
        <time>2015-01-10T10:47:00Z</time>
      </trkpt>
      <trkpt lat="42.91217" lon="0.11717">
        <ele>1790.4190495862</ele>
        <time>2015-01-10T10:47:05Z</time>
      </trkpt>
      <trkpt lat="42.91216" lon="0.11717">
        <ele>1790.4190495862</ele>
        <time>2015-01-10T10:47:10Z</time>
      </trkpt>
      <trkpt lat="42.9122" lon="0.1172">
        <ele>1792.5596858504</ele>
        <time>2015-01-10T10:47:35Z</time>
      </trkpt>
      <trkpt lat="42.9122" lon="0.11721">
        <ele>1792.5596858504</ele>
        <time>2015-01-10T10:47:41Z</time>
      </trkpt>
      <trkpt lat="42.91222" lon="0.11725">
        <ele>1792.5596858504</ele>
        <time>2015-01-10T10:47:45Z</time>
      </trkpt>
      <trkpt lat="42.91225" lon="0.11729">
        <ele>1792.5596858504</ele>
        <time>2015-01-10T10:47:50Z</time>
      </trkpt>
      <trkpt lat="42.91227" lon="0.11731">
        <ele>1794.5247500676</ele>
        <time>2015-01-10T10:47:55Z</time>
      </trkpt>
      <trkpt lat="42.9123" lon="0.11733">
        <ele>1794.5247500676</ele>
        <time>2015-01-10T10:48:00Z</time>
      </trkpt>
      <trkpt lat="42.91233" lon="0.11736">
        <ele>1794.5247500676</ele>
        <time>2015-01-10T10:48:05Z</time>
      </trkpt>
      <trkpt lat="42.91235" lon="0.11739">
        <ele>1796.3296346797</ele>
        <time>2015-01-10T10:48:09Z</time>
      </trkpt>
      <trkpt lat="42.91238" lon="0.11741">
        <ele>1796.3296346797</ele>
        <time>2015-01-10T10:48:15Z</time>
      </trkpt>
      <trkpt lat="42.91239" lon="0.11743">
        <ele>1796.3296346797</ele>
        <time>2015-01-10T10:48:20Z</time>
      </trkpt>
      <trkpt lat="42.91239" lon="0.11746">
        <ele>1796.3296346797</ele>
        <time>2015-01-10T10:48:25Z</time>
      </trkpt>
      <trkpt lat="42.91241" lon="0.1175">
        <ele>1798.0177890169</ele>
        <time>2015-01-10T10:48:30Z</time>
      </trkpt>
      <trkpt lat="42.91242" lon="0.11752">
        <ele>1798.0177890169</ele>
        <time>2015-01-10T10:48:35Z</time>
      </trkpt>
      <trkpt lat="42.91245" lon="0.11753">
        <ele>1798.0177890169</ele>
        <time>2015-01-10T10:48:40Z</time>
      </trkpt>
      <trkpt lat="42.91246" lon="0.11756">
        <ele>1798.0177890169</ele>
        <time>2015-01-10T10:48:45Z</time>
      </trkpt>
      <trkpt lat="42.91249" lon="0.11759">
        <ele>1799.5720675435</ele>
        <time>2015-01-10T10:48:50Z</time>
      </trkpt>
      <trkpt lat="42.91249" lon="0.1176">
        <ele>1799.5720675435</ele>
        <time>2015-01-10T10:48:55Z</time>
      </trkpt>
      <trkpt lat="42.91252" lon="0.11762">
        <ele>1799.5720675435</ele>
        <time>2015-01-10T10:48:59Z</time>
      </trkpt>
      <trkpt lat="42.91255" lon="0.11764">
        <ele>1799.5720675435</ele>
        <time>2015-01-10T10:49:05Z</time>
      </trkpt>
      <trkpt lat="42.91257" lon="0.11765">
        <ele>1801.1065711851</ele>
        <time>2015-01-10T10:49:10Z</time>
      </trkpt>
      <trkpt lat="42.9126" lon="0.11767">
        <ele>1801.1065711851</ele>
        <time>2015-01-10T10:49:15Z</time>
      </trkpt>
      <trkpt lat="42.91261" lon="0.11767">
        <ele>1801.1065711851</ele>
        <time>2015-01-10T10:49:20Z</time>
      </trkpt>
      <trkpt lat="42.91263" lon="0.11767">
        <ele>1801.1065711851</ele>
        <time>2015-01-10T10:49:25Z</time>
      </trkpt>
      <trkpt lat="42.91266" lon="0.11768">
        <ele>1802.6693384233</ele>
        <time>2015-01-10T10:49:40Z</time>
      </trkpt>
      <trkpt lat="42.9127" lon="0.11769">
        <ele>1802.6693384233</ele>
        <time>2015-01-10T10:49:45Z</time>
      </trkpt>
      <trkpt lat="42.91273" lon="0.11771">
        <ele>1802.6693384233</ele>
        <time>2015-01-10T10:49:50Z</time>
      </trkpt>
      <trkpt lat="42.91274" lon="0.11773">
        <ele>1804.1605937638</ele>
        <time>2015-01-10T10:49:55Z</time>
      </trkpt>
      <trkpt lat="42.91275" lon="0.11775">
        <ele>1804.1605937638</ele>
        <time>2015-01-10T10:50:00Z</time>
      </trkpt>
      <trkpt lat="42.91276" lon="0.11776">
        <ele>1804.1605937638</ele>
        <time>2015-01-10T10:50:04Z</time>
      </trkpt>
      <trkpt lat="42.91278" lon="0.11777">
        <ele>1804.1605937638</ele>
        <time>2015-01-10T10:50:10Z</time>
      </trkpt>
      <trkpt lat="42.9128" lon="0.11779">
        <ele>1804.1605937638</ele>
        <time>2015-01-10T10:50:15Z</time>
      </trkpt>
      <trkpt lat="42.91281" lon="0.1178">
        <ele>1804.1605937638</ele>
        <time>2015-01-10T10:50:20Z</time>
      </trkpt>
      <trkpt lat="42.91285" lon="0.11783">
        <ele>1805.833861794</ele>
        <time>2015-01-10T10:50:25Z</time>
      </trkpt>
      <trkpt lat="42.91286" lon="0.11785">
        <ele>1805.833861794</ele>
        <time>2015-01-10T10:50:29Z</time>
      </trkpt>
      <trkpt lat="42.91289" lon="0.11786">
        <ele>1805.833861794</ele>
        <time>2015-01-10T10:50:35Z</time>
      </trkpt>
      <trkpt lat="42.91291" lon="0.11787">
        <ele>1805.833861794</ele>
        <time>2015-01-10T10:50:40Z</time>
      </trkpt>
      <trkpt lat="42.91295" lon="0.11788">
        <ele>1807.563156007</ele>
        <time>2015-01-10T10:50:45Z</time>
      </trkpt>
      <trkpt lat="42.91299" lon="0.1179">
        <ele>1807.563156007</ele>
        <time>2015-01-10T10:50:50Z</time>
      </trkpt>
      <trkpt lat="42.913" lon="0.1179">
        <ele>1807.563156007</ele>
        <time>2015-01-10T10:50:54Z</time>
      </trkpt>
      <trkpt lat="42.91306" lon="0.11793">
        <ele>1809.3467771748</ele>
        <time>2015-01-10T10:51:05Z</time>
      </trkpt>
      <trkpt lat="42.91307" lon="0.11793">
        <ele>1809.3467771748</ele>
        <time>2015-01-10T10:51:10Z</time>
      </trkpt>
      <trkpt lat="42.9131" lon="0.11792">
        <ele>1809.3467771748</ele>
        <time>2015-01-10T10:51:14Z</time>
      </trkpt>
      <trkpt lat="42.91315" lon="0.11794">
        <ele>1811.1396657046</ele>
        <time>2015-01-10T10:51:20Z</time>
      </trkpt>
      <trkpt lat="42.91319" lon="0.11794">
        <ele>1811.1396657046</ele>
        <time>2015-01-10T10:51:25Z</time>
      </trkpt>
      <trkpt lat="42.91322" lon="0.11793">
        <ele>1811.1396657046</ele>
        <time>2015-01-10T10:51:30Z</time>
      </trkpt>
      <trkpt lat="42.91323" lon="0.11792">
        <ele>1811.1396657046</ele>
        <time>2015-01-10T10:51:34Z</time>
      </trkpt>
      <trkpt lat="42.91329" lon="0.11792">
        <ele>1813.721382701</ele>
        <time>2015-01-10T10:51:41Z</time>
      </trkpt>
      <trkpt lat="42.91331" lon="0.1179">
        <ele>1813.721382701</ele>
        <time>2015-01-10T10:51:45Z</time>
      </trkpt>
      <trkpt lat="42.91337" lon="0.1179">
        <ele>1813.721382701</ele>
        <time>2015-01-10T10:51:50Z</time>
      </trkpt>
      <trkpt lat="42.91341" lon="0.11788">
        <ele>1816.6878497626</ele>
        <time>2015-01-10T10:51:55Z</time>
      </trkpt>
      <trkpt lat="42.91342" lon="0.11786">
        <ele>1816.6878497626</ele>
        <time>2015-01-10T10:52:00Z</time>
      </trkpt>
      <trkpt lat="42.91344" lon="0.11784">
        <ele>1816.6878497626</ele>
        <time>2015-01-10T10:52:05Z</time>
      </trkpt>
      <trkpt lat="42.91353" lon="0.11785">
        <ele>1819.8076174412</ele>
        <time>2015-01-10T10:52:35Z</time>
      </trkpt>
      <trkpt lat="42.91356" lon="0.11784">
        <ele>1819.8076174412</ele>
        <time>2015-01-10T10:52:40Z</time>
      </trkpt>
      <trkpt lat="42.91358" lon="0.11785">
        <ele>1819.8076174412</ele>
        <time>2015-01-10T10:52:45Z</time>
      </trkpt>
      <trkpt lat="42.91362" lon="0.11785">
        <ele>1819.8076174412</ele>
        <time>2015-01-10T10:52:50Z</time>
      </trkpt>
      <trkpt lat="42.91365" lon="0.11785">
        <ele>1822.8369087046</ele>
        <time>2015-01-10T10:52:54Z</time>
      </trkpt>
      <trkpt lat="42.91368" lon="0.11787">
        <ele>1822.8369087046</ele>
        <time>2015-01-10T10:53:01Z</time>
      </trkpt>
      <trkpt lat="42.91374" lon="0.1179">
        <ele>1825.6797408179</ele>
        <time>2015-01-10T10:53:04Z</time>
      </trkpt>
      <trkpt lat="42.91378" lon="0.11791">
        <ele>1825.6797408179</ele>
        <time>2015-01-10T10:53:10Z</time>
      </trkpt>
      <trkpt lat="42.91381" lon="0.11791">
        <ele>1825.6797408179</ele>
        <time>2015-01-10T10:53:15Z</time>
      </trkpt>
      <trkpt lat="42.91384" lon="0.11791">
        <ele>1828.6079256998</ele>
        <time>2015-01-10T10:53:20Z</time>
      </trkpt>
      <trkpt lat="42.91387" lon="0.11791">
        <ele>1828.6079256998</ele>
        <time>2015-01-10T10:53:24Z</time>
      </trkpt>
      <trkpt lat="42.91393" lon="0.1179">
        <ele>1831.5415649827</ele>
        <time>2015-01-10T10:53:30Z</time>
      </trkpt>
      <trkpt lat="42.91395" lon="0.1179">
        <ele>1831.5415649827</ele>
        <time>2015-01-10T10:53:35Z</time>
      </trkpt>
      <trkpt lat="42.91399" lon="0.11789">
        <ele>1831.5415649827</ele>
        <time>2015-01-10T10:53:40Z</time>
      </trkpt>
      <trkpt lat="42.91401" lon="0.11787">
        <ele>1831.5415649827</ele>
        <time>2015-01-10T10:53:44Z</time>
      </trkpt>
      <trkpt lat="42.91403" lon="0.1179">
        <ele>1834.6659751931</ele>
        <time>2015-01-10T10:53:50Z</time>
      </trkpt>
      <trkpt lat="42.91405" lon="0.11792">
        <ele>1834.6659751931</ele>
        <time>2015-01-10T10:53:55Z</time>
      </trkpt>
      <trkpt lat="42.91405" lon="0.11795">
        <ele>1834.6659751931</ele>
        <time>2015-01-10T10:54:00Z</time>
      </trkpt>
      <trkpt lat="42.91406" lon="0.11798">
        <ele>1834.6659751931</ele>
        <time>2015-01-10T10:54:05Z</time>
      </trkpt>
      <trkpt lat="42.91408" lon="0.11799">
        <ele>1837.9937716366</ele>
        <time>2015-01-10T10:54:10Z</time>
      </trkpt>
      <trkpt lat="42.9141" lon="0.11802">
        <ele>1837.9937716366</ele>
        <time>2015-01-10T10:54:15Z</time>
      </trkpt>
      <trkpt lat="42.91413" lon="0.11809">
        <ele>1837.9937716366</ele>
        <time>2015-01-10T10:54:20Z</time>
      </trkpt>
      <trkpt lat="42.91414" lon="0.1181">
        <ele>1841.4063508788</ele>
        <time>2015-01-10T10:54:25Z</time>
      </trkpt>
      <trkpt lat="42.91416" lon="0.1181">
        <ele>1841.4063508788</ele>
        <time>2015-01-10T10:54:29Z</time>
      </trkpt>
      <trkpt lat="42.91419" lon="0.11815">
        <ele>1841.4063508788</ele>
        <time>2015-01-10T10:54:36Z</time>
      </trkpt>
      <trkpt lat="42.9142" lon="0.11819">
        <ele>1844.8512166854</ele>
        <time>2015-01-10T10:54:40Z</time>
      </trkpt>
      <trkpt lat="42.91421" lon="0.11824">
        <ele>1844.8512166854</ele>
        <time>2015-01-10T10:54:44Z</time>
      </trkpt>
      <trkpt lat="42.91421" lon="0.1183">
        <ele>1844.8512166854</ele>
        <time>2015-01-10T10:54:50Z</time>
      </trkpt>
      <trkpt lat="42.91421" lon="0.11833">
        <ele>1848.1787582306</ele>
        <time>2015-01-10T10:54:55Z</time>
      </trkpt>
      <trkpt lat="42.91421" lon="0.11835">
        <ele>1848.1787582306</ele>
        <time>2015-01-10T10:55:00Z</time>
      </trkpt>
      <trkpt lat="42.9142" lon="0.11836">
        <ele>1848.1787582306</ele>
        <time>2015-01-10T10:55:05Z</time>
      </trkpt>
      <trkpt lat="42.91424" lon="0.11841">
        <ele>1848.1787582306</ele>
        <time>2015-01-10T10:55:10Z</time>
      </trkpt>
      <trkpt lat="42.91426" lon="0.11846">
        <ele>1851.3659793706</ele>
        <time>2015-01-10T10:55:15Z</time>
      </trkpt>
      <trkpt lat="42.91429" lon="0.11849">
        <ele>1851.3659793706</ele>
        <time>2015-01-10T10:55:20Z</time>
      </trkpt>
      <trkpt lat="42.9143" lon="0.11851">
        <ele>1851.3659793706</ele>
        <time>2015-01-10T10:55:25Z</time>
      </trkpt>
      <trkpt lat="42.91429" lon="0.1185">
        <ele>1851.3659793706</ele>
        <time>2015-01-10T10:55:30Z</time>
      </trkpt>
      <trkpt lat="42.91433" lon="0.11855">
        <ele>1854.4928587746</ele>
        <time>2015-01-10T10:55:40Z</time>
      </trkpt>
      <trkpt lat="42.91435" lon="0.11858">
        <ele>1854.4928587746</ele>
        <time>2015-01-10T10:55:45Z</time>
      </trkpt>
      <trkpt lat="42.91438" lon="0.11861">
        <ele>1854.4928587746</ele>
        <time>2015-01-10T10:55:49Z</time>
      </trkpt>
      <trkpt lat="42.91438" lon="0.11864">
        <ele>1857.3310559009</ele>
        <time>2015-01-10T10:55:55Z</time>
      </trkpt>
      <trkpt lat="42.9144" lon="0.11866">
        <ele>1857.3310559009</ele>
        <time>2015-01-10T10:56:00Z</time>
      </trkpt>
      <trkpt lat="42.91443" lon="0.11868">
        <ele>1857.3310559009</ele>
        <time>2015-01-10T10:56:05Z</time>
      </trkpt>
      <trkpt lat="42.91445" lon="0.11871">
        <ele>1857.3310559009</ele>
        <time>2015-01-10T10:56:10Z</time>
      </trkpt>
      <trkpt lat="42.91447" lon="0.11873">
        <ele>1860.0301162583</ele>
        <time>2015-01-10T10:56:15Z</time>
      </trkpt>
      <trkpt lat="42.91449" lon="0.11875">
        <ele>1860.0301162583</ele>
        <time>2015-01-10T10:56:20Z</time>
      </trkpt>
      <trkpt lat="42.91451" lon="0.1188">
        <ele>1860.0301162583</ele>
        <time>2015-01-10T10:56:25Z</time>
      </trkpt>
      <trkpt lat="42.91452" lon="0.11885">
        <ele>1862.5272615548</ele>
        <time>2015-01-10T10:56:30Z</time>
      </trkpt>
      <trkpt lat="42.91453" lon="0.11889">
        <ele>1862.5272615548</ele>
        <time>2015-01-10T10:56:35Z</time>
      </trkpt>
      <trkpt lat="42.91454" lon="0.11892">
        <ele>1862.5272615548</ele>
        <time>2015-01-10T10:56:40Z</time>
      </trkpt>
      <trkpt lat="42.91454" lon="0.11895">
        <ele>1862.5272615548</ele>
        <time>2015-01-10T10:56:44Z</time>
      </trkpt>
      <trkpt lat="42.91455" lon="0.11898">
        <ele>1864.9810863361</ele>
        <time>2015-01-10T10:56:51Z</time>
      </trkpt>
      <trkpt lat="42.91456" lon="0.11901">
        <ele>1864.9810863361</ele>
        <time>2015-01-10T10:56:55Z</time>
      </trkpt>
      <trkpt lat="42.91457" lon="0.11904">
        <ele>1864.9810863361</ele>
        <time>2015-01-10T10:56:59Z</time>
      </trkpt>
      <trkpt lat="42.91458" lon="0.11911">
        <ele>1867.2216391236</ele>
        <time>2015-01-10T10:57:06Z</time>
      </trkpt>
      <trkpt lat="42.9146" lon="0.11913">
        <ele>1867.2216391236</ele>
        <time>2015-01-10T10:57:10Z</time>
      </trkpt>
      <trkpt lat="42.91462" lon="0.11915">
        <ele>1867.2216391236</ele>
        <time>2015-01-10T10:57:15Z</time>
      </trkpt>
      <trkpt lat="42.91465" lon="0.11919">
        <ele>1869.2361876106</ele>
        <time>2015-01-10T10:57:20Z</time>
      </trkpt>
      <trkpt lat="42.91468" lon="0.11922">
        <ele>1869.2361876106</ele>
        <time>2015-01-10T10:57:24Z</time>
      </trkpt>
      <trkpt lat="42.91471" lon="0.11925">
        <ele>1869.2361876106</ele>
        <time>2015-01-10T10:57:30Z</time>
      </trkpt>
      <trkpt lat="42.91476" lon="0.11925">
        <ele>1871.2874021429</ele>
        <time>2015-01-10T10:57:35Z</time>
      </trkpt>
      <trkpt lat="42.91478" lon="0.11926">
        <ele>1871.2874021429</ele>
        <time>2015-01-10T10:57:39Z</time>
      </trkpt>
      <trkpt lat="42.91483" lon="0.11927">
        <ele>1871.2874021429</ele>
        <time>2015-01-10T10:57:46Z</time>
      </trkpt>
      <trkpt lat="42.91486" lon="0.11926">
        <ele>1873.6329845524</ele>
        <time>2015-01-10T10:57:50Z</time>
      </trkpt>
      <trkpt lat="42.91488" lon="0.11924">
        <ele>1873.6329845524</ele>
        <time>2015-01-10T10:57:55Z</time>
      </trkpt>
      <trkpt lat="42.91492" lon="0.11921">
        <ele>1873.6329845524</ele>
        <time>2015-01-10T10:58:00Z</time>
      </trkpt>
      <trkpt lat="42.91495" lon="0.1192">
        <ele>1876.1217958349</ele>
        <time>2015-01-10T10:58:05Z</time>
      </trkpt>
      <trkpt lat="42.91497" lon="0.11916">
        <ele>1876.1217958349</ele>
        <time>2015-01-10T10:58:10Z</time>
      </trkpt>
      <trkpt lat="42.915" lon="0.11913">
        <ele>1876.1217958349</ele>
        <time>2015-01-10T10:58:15Z</time>
      </trkpt>
      <trkpt lat="42.915" lon="0.11912">
        <ele>1876.1217958349</ele>
        <time>2015-01-10T10:58:20Z</time>
      </trkpt>
      <trkpt lat="42.91498" lon="0.11909">
        <ele>1878.8584005599</ele>
        <time>2015-01-10T10:58:35Z</time>
      </trkpt>
      <trkpt lat="42.91499" lon="0.1191">
        <ele>1878.8584005599</ele>
        <time>2015-01-10T10:58:40Z</time>
      </trkpt>
      <trkpt lat="42.915" lon="0.11912">
        <ele>1878.8584005599</ele>
        <time>2015-01-10T10:58:45Z</time>
      </trkpt>
      <trkpt lat="42.91502" lon="0.11913">
        <ele>1878.8584005599</ele>
        <time>2015-01-10T10:58:50Z</time>
      </trkpt>
      <trkpt lat="42.91505" lon="0.11915">
        <ele>1878.8584005599</ele>
        <time>2015-01-10T10:58:55Z</time>
      </trkpt>
      <trkpt lat="42.9151" lon="0.11916">
        <ele>1881.3913773688</ele>
        <time>2015-01-10T10:59:00Z</time>
      </trkpt>
      <trkpt lat="42.91512" lon="0.11916">
        <ele>1881.3913773688</ele>
        <time>2015-01-10T10:59:05Z</time>
      </trkpt>
      <trkpt lat="42.91517" lon="0.11918">
        <ele>1881.3913773688</ele>
        <time>2015-01-10T10:59:10Z</time>
      </trkpt>
      <trkpt lat="42.91519" lon="0.11918">
        <ele>1883.8506725355</ele>
        <time>2015-01-10T10:59:14Z</time>
      </trkpt>
      <trkpt lat="42.91518" lon="0.11918">
        <ele>1883.8506725355</ele>
        <time>2015-01-10T10:59:20Z</time>
      </trkpt>
      <trkpt lat="42.91524" lon="0.11918">
        <ele>1883.8506725355</ele>
        <time>2015-01-10T10:59:35Z</time>
      </trkpt>
      <trkpt lat="42.91528" lon="0.11918">
        <ele>1886.284850492</ele>
        <time>2015-01-10T10:59:40Z</time>
      </trkpt>
      <trkpt lat="42.91532" lon="0.11919">
        <ele>1886.284850492</ele>
        <time>2015-01-10T10:59:45Z</time>
      </trkpt>
      <trkpt lat="42.91535" lon="0.11919">
        <ele>1886.284850492</ele>
        <time>2015-01-10T10:59:50Z</time>
      </trkpt>
      <trkpt lat="42.91536" lon="0.11917">
        <ele>1886.284850492</ele>
        <time>2015-01-10T10:59:56Z</time>
      </trkpt>
      <trkpt lat="42.91538" lon="0.11916">
        <ele>1888.9983917414</ele>
        <time>2015-01-10T11:00:00Z</time>
      </trkpt>
      <trkpt lat="42.91539" lon="0.11914">
        <ele>1888.9983917414</ele>
        <time>2015-01-10T11:00:05Z</time>
      </trkpt>
      <trkpt lat="42.9154" lon="0.11914">
        <ele>1888.9983917414</ele>
        <time>2015-01-10T11:00:09Z</time>
      </trkpt>
      <trkpt lat="42.91543" lon="0.11911">
        <ele>1888.9983917414</ele>
        <time>2015-01-10T11:00:15Z</time>
      </trkpt>
      <trkpt lat="42.91546" lon="0.11911">
        <ele>1892.0420619035</ele>
        <time>2015-01-10T11:00:20Z</time>
      </trkpt>
      <trkpt lat="42.91549" lon="0.11912">
        <ele>1892.0420619035</ele>
        <time>2015-01-10T11:00:25Z</time>
      </trkpt>
      <trkpt lat="42.91551" lon="0.11912">
        <ele>1892.0420619035</ele>
        <time>2015-01-10T11:00:29Z</time>
      </trkpt>
      <trkpt lat="42.91552" lon="0.11911">
        <ele>1892.0420619035</ele>
        <time>2015-01-10T11:00:33Z</time>
      </trkpt>
      <trkpt lat="42.91555" lon="0.11911">
        <ele>1895.4908092541</ele>
        <time>2015-01-10T11:00:40Z</time>
      </trkpt>
      <trkpt lat="42.91554" lon="0.11909">
        <ele>1895.4908092541</ele>
        <time>2015-01-10T11:01:15Z</time>
      </trkpt>
      <trkpt lat="42.91557" lon="0.11909">
        <ele>1895.4908092541</ele>
        <time>2015-01-10T11:01:20Z</time>
      </trkpt>
      <trkpt lat="42.91559" lon="0.1191">
        <ele>1895.4908092541</ele>
        <time>2015-01-10T11:01:25Z</time>
      </trkpt>
      <trkpt lat="42.91562" lon="0.11912">
        <ele>1899.4273714016</ele>
        <time>2015-01-10T11:01:30Z</time>
      </trkpt>
      <trkpt lat="42.91565" lon="0.11911">
        <ele>1899.4273714016</ele>
        <time>2015-01-10T11:01:35Z</time>
      </trkpt>
      <trkpt lat="42.91566" lon="0.11911">
        <ele>1899.4273714016</ele>
        <time>2015-01-10T11:01:40Z</time>
      </trkpt>
      <trkpt lat="42.91568" lon="0.11911">
        <ele>1899.4273714016</ele>
        <time>2015-01-10T11:01:45Z</time>
      </trkpt>
      <trkpt lat="42.91571" lon="0.1191">
        <ele>1903.105632364</ele>
        <time>2015-01-10T11:01:50Z</time>
      </trkpt>
      <trkpt lat="42.91574" lon="0.11909">
        <ele>1903.105632364</ele>
        <time>2015-01-10T11:01:55Z</time>
      </trkpt>
      <trkpt lat="42.91577" lon="0.11909">
        <ele>1903.105632364</ele>
        <time>2015-01-10T11:02:00Z</time>
      </trkpt>
      <trkpt lat="42.91579" lon="0.11908">
        <ele>1903.105632364</ele>
        <time>2015-01-10T11:02:05Z</time>
      </trkpt>
      <trkpt lat="42.91581" lon="0.11909">
        <ele>1906.4979548117</ele>
        <time>2015-01-10T11:02:10Z</time>
      </trkpt>
      <trkpt lat="42.91585" lon="0.11909">
        <ele>1906.4979548117</ele>
        <time>2015-01-10T11:02:15Z</time>
      </trkpt>
      <trkpt lat="42.91589" lon="0.11907">
        <ele>1906.4979548117</ele>
        <time>2015-01-10T11:02:20Z</time>
      </trkpt>
      <trkpt lat="42.9159" lon="0.11906">
        <ele>1909.7957407885</ele>
        <time>2015-01-10T11:02:25Z</time>
      </trkpt>
      <trkpt lat="42.91595" lon="0.11905">
        <ele>1909.7957407885</ele>
        <time>2015-01-10T11:02:30Z</time>
      </trkpt>
      <trkpt lat="42.91598" lon="0.11903">
        <ele>1909.7957407885</ele>
        <time>2015-01-10T11:02:35Z</time>
      </trkpt>
      <trkpt lat="42.91596" lon="0.11902">
        <ele>1913.1045875733</ele>
        <time>2015-01-10T11:02:40Z</time>
      </trkpt>
      <trkpt lat="42.91596" lon="0.11902">
        <ele>1913.1045875733</ele>
        <time>2015-01-10T11:02:45Z</time>
      </trkpt>
      <trkpt lat="42.91601" lon="0.11902">
        <ele>1913.1045875733</ele>
        <time>2015-01-10T11:03:00Z</time>
      </trkpt>
      <trkpt lat="42.91606" lon="0.11897">
        <ele>1916.4502986531</ele>
        <time>2015-01-10T11:03:09Z</time>
      </trkpt>
      <trkpt lat="42.91608" lon="0.11895">
        <ele>1916.4502986531</ele>
        <time>2015-01-10T11:03:16Z</time>
      </trkpt>
      <trkpt lat="42.9161" lon="0.11894">
        <ele>1916.4502986531</ele>
        <time>2015-01-10T11:03:20Z</time>
      </trkpt>
      <trkpt lat="42.91612" lon="0.11891">
        <ele>1916.4502986531</ele>
        <time>2015-01-10T11:03:25Z</time>
      </trkpt>
      <trkpt lat="42.91613" lon="0.11886">
        <ele>1919.7558537119</ele>
        <time>2015-01-10T11:03:30Z</time>
      </trkpt>
      <trkpt lat="42.91612" lon="0.11884">
        <ele>1919.7558537119</ele>
        <time>2015-01-10T11:03:35Z</time>
      </trkpt>
      <trkpt lat="42.91612" lon="0.11883">
        <ele>1919.7558537119</ele>
        <time>2015-01-10T11:03:40Z</time>
      </trkpt>
      <trkpt lat="42.91616" lon="0.11879">
        <ele>1919.7558537119</ele>
        <time>2015-01-10T11:04:15Z</time>
      </trkpt>
      <trkpt lat="42.91617" lon="0.11879">
        <ele>1919.7558537119</ele>
        <time>2015-01-10T11:04:20Z</time>
      </trkpt>
      <trkpt lat="42.91623" lon="0.11878">
        <ele>1923.1950476395</ele>
        <time>2015-01-10T11:04:25Z</time>
      </trkpt>
      <trkpt lat="42.91626" lon="0.11878">
        <ele>1923.1950476395</ele>
        <time>2015-01-10T11:04:30Z</time>
      </trkpt>
      <trkpt lat="42.91628" lon="0.11878">
        <ele>1923.1950476395</ele>
        <time>2015-01-10T11:04:35Z</time>
      </trkpt>
      <trkpt lat="42.9163" lon="0.11878">
        <ele>1923.1950476395</ele>
        <time>2015-01-10T11:04:40Z</time>
      </trkpt>
      <trkpt lat="42.91633" lon="0.11877">
        <ele>1926.4674357982</ele>
        <time>2015-01-10T11:04:45Z</time>
      </trkpt>
      <trkpt lat="42.91636" lon="0.11878">
        <ele>1926.4674357982</ele>
        <time>2015-01-10T11:04:50Z</time>
      </trkpt>
      <trkpt lat="42.91638" lon="0.11877">
        <ele>1926.4674357982</ele>
        <time>2015-01-10T11:04:54Z</time>
      </trkpt>
      <trkpt lat="42.91641" lon="0.11878">
        <ele>1926.4674357982</ele>
        <time>2015-01-10T11:05:00Z</time>
      </trkpt>
      <trkpt lat="42.91642" lon="0.11877">
        <ele>1930.0589616571</ele>
        <time>2015-01-10T11:05:05Z</time>
      </trkpt>
      <trkpt lat="42.91645" lon="0.11879">
        <ele>1930.0589616571</ele>
        <time>2015-01-10T11:05:16Z</time>
      </trkpt>
      <trkpt lat="42.91645" lon="0.11881">
        <ele>1930.0589616571</ele>
        <time>2015-01-10T11:05:19Z</time>
      </trkpt>
      <trkpt lat="42.91645" lon="0.11884">
        <ele>1930.0589616571</ele>
        <time>2015-01-10T11:05:25Z</time>
      </trkpt>
      <trkpt lat="42.91646" lon="0.11889">
        <ele>1933.2661491831</ele>
        <time>2015-01-10T11:05:30Z</time>
      </trkpt>
      <trkpt lat="42.91647" lon="0.11892">
        <ele>1933.2661491831</ele>
        <time>2015-01-10T11:05:35Z</time>
      </trkpt>
      <trkpt lat="42.91647" lon="0.11893">
        <ele>1933.2661491831</ele>
        <time>2015-01-10T11:05:40Z</time>
      </trkpt>
      <trkpt lat="42.91654" lon="0.11894">
        <ele>1936.5768195473</ele>
        <time>2015-01-10T11:05:50Z</time>
      </trkpt>
      <trkpt lat="42.91657" lon="0.11893">
        <ele>1936.5768195473</ele>
        <time>2015-01-10T11:05:55Z</time>
      </trkpt>
      <trkpt lat="42.9166" lon="0.11892">
        <ele>1936.5768195473</ele>
        <time>2015-01-10T11:05:59Z</time>
      </trkpt>
      <trkpt lat="42.91663" lon="0.11894">
        <ele>1939.8230553282</ele>
        <time>2015-01-10T11:06:05Z</time>
      </trkpt>
      <trkpt lat="42.91662" lon="0.11894">
        <ele>1939.8230553282</ele>
        <time>2015-01-10T11:06:10Z</time>
      </trkpt>
      <trkpt lat="42.91662" lon="0.1189">
        <ele>1939.8230553282</ele>
        <time>2015-01-10T11:06:30Z</time>
      </trkpt>
      <trkpt lat="42.91667" lon="0.11885">
        <ele>1942.6909972883</ele>
        <time>2015-01-10T11:06:35Z</time>
      </trkpt>
      <trkpt lat="42.91669" lon="0.11884">
        <ele>1942.6909972883</ele>
        <time>2015-01-10T11:06:39Z</time>
      </trkpt>
      <trkpt lat="42.91671" lon="0.11882">
        <ele>1942.6909972883</ele>
        <time>2015-01-10T11:06:45Z</time>
      </trkpt>
      <trkpt lat="42.91672" lon="0.11879">
        <ele>1942.6909972883</ele>
        <time>2015-01-10T11:06:50Z</time>
      </trkpt>
      <trkpt lat="42.91673" lon="0.11879">
        <ele>1942.6909972883</ele>
        <time>2015-01-10T11:06:55Z</time>
      </trkpt>
      <trkpt lat="42.91674" lon="0.1188">
        <ele>1945.6115225275</ele>
        <time>2015-01-10T11:07:01Z</time>
      </trkpt>
      <trkpt lat="42.91674" lon="0.11883">
        <ele>1945.6115225275</ele>
        <time>2015-01-10T11:07:05Z</time>
      </trkpt>
      <trkpt lat="42.91674" lon="0.11889">
        <ele>1945.6115225275</ele>
        <time>2015-01-10T11:07:10Z</time>
      </trkpt>
      <trkpt lat="42.91676" lon="0.11893">
        <ele>1948.1046911103</ele>
        <time>2015-01-10T11:07:15Z</time>
      </trkpt>
      <trkpt lat="42.91676" lon="0.11894">
        <ele>1948.1046911103</ele>
        <time>2015-01-10T11:07:22Z</time>
      </trkpt>
      <trkpt lat="42.91676" lon="0.11894">
        <ele>1948.1046911103</ele>
        <time>2015-01-10T11:07:24Z</time>
      </trkpt>
      <trkpt lat="42.9168" lon="0.11895">
        <ele>1948.1046911103</ele>
        <time>2015-01-10T11:07:31Z</time>
      </trkpt>
      <trkpt lat="42.91681" lon="0.11894">
        <ele>1948.1046911103</ele>
        <time>2015-01-10T11:07:35Z</time>
      </trkpt>
      <trkpt lat="42.91685" lon="0.11894">
        <ele>1950.490863599</ele>
        <time>2015-01-10T11:07:40Z</time>
      </trkpt>
      <trkpt lat="42.91688" lon="0.11895">
        <ele>1950.490863599</ele>
        <time>2015-01-10T11:07:45Z</time>
      </trkpt>
      <trkpt lat="42.9169" lon="0.11894">
        <ele>1950.490863599</ele>
        <time>2015-01-10T11:07:50Z</time>
      </trkpt>
      <trkpt lat="42.91693" lon="0.11896">
        <ele>1950.490863599</ele>
        <time>2015-01-10T11:07:57Z</time>
      </trkpt>
      <trkpt lat="42.91696" lon="0.11895">
        <ele>1953.1680963567</ele>
        <time>2015-01-10T11:07:59Z</time>
      </trkpt>
      <trkpt lat="42.91697" lon="0.11895">
        <ele>1953.1680963567</ele>
        <time>2015-01-10T11:08:05Z</time>
      </trkpt>
      <trkpt lat="42.91699" lon="0.11893">
        <ele>1953.1680963567</ele>
        <time>2015-01-10T11:08:10Z</time>
      </trkpt>
      <trkpt lat="42.91699" lon="0.11894">
        <ele>1953.1680963567</ele>
        <time>2015-01-10T11:08:15Z</time>
      </trkpt>
      <trkpt lat="42.91704" lon="0.11892">
        <ele>1953.1680963567</ele>
        <time>2015-01-10T11:08:40Z</time>
      </trkpt>
      <trkpt lat="42.91708" lon="0.11891">
        <ele>1956.1585679228</ele>
        <time>2015-01-10T11:08:47Z</time>
      </trkpt>
      <trkpt lat="42.91709" lon="0.11889">
        <ele>1956.1585679228</ele>
        <time>2015-01-10T11:08:50Z</time>
      </trkpt>
      <trkpt lat="42.91715" lon="0.1189">
        <ele>1956.1585679228</ele>
        <time>2015-01-10T11:08:55Z</time>
      </trkpt>
      <trkpt lat="42.91719" lon="0.11892">
        <ele>1959.1937687097</ele>
        <time>2015-01-10T11:09:00Z</time>
      </trkpt>
      <trkpt lat="42.91724" lon="0.11892">
        <ele>1959.1937687097</ele>
        <time>2015-01-10T11:09:05Z</time>
      </trkpt>
      <trkpt lat="42.91726" lon="0.11889">
        <ele>1959.1937687097</ele>
        <time>2015-01-10T11:09:10Z</time>
      </trkpt>
      <trkpt lat="42.91728" lon="0.11888">
        <ele>1962.3274610099</ele>
        <time>2015-01-10T11:09:15Z</time>
      </trkpt>
      <trkpt lat="42.91731" lon="0.11883">
        <ele>1962.3274610099</ele>
        <time>2015-01-10T11:09:20Z</time>
      </trkpt>
      <trkpt lat="42.91731" lon="0.11883">
        <ele>1962.3274610099</ele>
        <time>2015-01-10T11:09:25Z</time>
      </trkpt>
      <trkpt lat="42.91731" lon="0.11883">
        <ele>1962.3274610099</ele>
        <time>2015-01-10T11:09:30Z</time>
      </trkpt>
      <trkpt lat="42.91729" lon="0.11877">
        <ele>1965.83979788</ele>
        <time>2015-01-10T11:09:45Z</time>
      </trkpt>
      <trkpt lat="42.9173" lon="0.11876">
        <ele>1965.83979788</ele>
        <time>2015-01-10T11:09:50Z</time>
      </trkpt>
      <trkpt lat="42.91735" lon="0.1187">
        <ele>1965.83979788</ele>
        <time>2015-01-10T11:10:00Z</time>
      </trkpt>
      <trkpt lat="42.91736" lon="0.11866">
        <ele>1969.1823063584</ele>
        <time>2015-01-10T11:10:04Z</time>
      </trkpt>
      <trkpt lat="42.91737" lon="0.11864">
        <ele>1969.1823063584</ele>
        <time>2015-01-10T11:10:10Z</time>
      </trkpt>
      <trkpt lat="42.91739" lon="0.11863">
        <ele>1969.1823063584</ele>
        <time>2015-01-10T11:10:15Z</time>
      </trkpt>
      <trkpt lat="42.91739" lon="0.11864">
        <ele>1969.1823063584</ele>
        <time>2015-01-10T11:10:20Z</time>
      </trkpt>
      <trkpt lat="42.91744" lon="0.11866">
        <ele>1972.2508305546</ele>
        <time>2015-01-10T11:10:29Z</time>
      </trkpt>
      <trkpt lat="42.91747" lon="0.11867">
        <ele>1972.2508305546</ele>
        <time>2015-01-10T11:10:34Z</time>
      </trkpt>
      <trkpt lat="42.9175" lon="0.1187">
        <ele>1972.2508305546</ele>
        <time>2015-01-10T11:10:40Z</time>
      </trkpt>
      <trkpt lat="42.91753" lon="0.11871">
        <ele>1974.9496729632</ele>
        <time>2015-01-10T11:10:45Z</time>
      </trkpt>
      <trkpt lat="42.91756" lon="0.1187">
        <ele>1974.9496729632</ele>
        <time>2015-01-10T11:10:50Z</time>
      </trkpt>
      <trkpt lat="42.91758" lon="0.11872">
        <ele>1974.9496729632</ele>
        <time>2015-01-10T11:10:55Z</time>
      </trkpt>
      <trkpt lat="42.9176" lon="0.11873">
        <ele>1974.9496729632</ele>
        <time>2015-01-10T11:11:00Z</time>
      </trkpt>
      <trkpt lat="42.91763" lon="0.11874">
        <ele>1977.5082845896</ele>
        <time>2015-01-10T11:11:05Z</time>
      </trkpt>
      <trkpt lat="42.91766" lon="0.11876">
        <ele>1977.5082845896</ele>
        <time>2015-01-10T11:11:10Z</time>
      </trkpt>
      <trkpt lat="42.91767" lon="0.11877">
        <ele>1977.5082845896</ele>
        <time>2015-01-10T11:11:15Z</time>
      </trkpt>
      <trkpt lat="42.91767" lon="0.11875">
        <ele>1977.5082845896</ele>
        <time>2015-01-10T11:11:20Z</time>
      </trkpt>
      <trkpt lat="42.91773" lon="0.11878">
        <ele>1980.2405663329</ele>
        <time>2015-01-10T11:11:50Z</time>
      </trkpt>
      <trkpt lat="42.91779" lon="0.11877">
        <ele>1980.2405663329</ele>
        <time>2015-01-10T11:11:55Z</time>
      </trkpt>
      <trkpt lat="42.91782" lon="0.11878">
        <ele>1980.2405663329</ele>
        <time>2015-01-10T11:12:00Z</time>
      </trkpt>
      <trkpt lat="42.91786" lon="0.11878">
        <ele>1982.7739912215</ele>
        <time>2015-01-10T11:12:05Z</time>
      </trkpt>
      <trkpt lat="42.9179" lon="0.11877">
        <ele>1982.7739912215</ele>
        <time>2015-01-10T11:12:10Z</time>
      </trkpt>
      <trkpt lat="42.91793" lon="0.11875">
        <ele>1982.7739912215</ele>
        <time>2015-01-10T11:12:15Z</time>
      </trkpt>
      <trkpt lat="42.91795" lon="0.11874">
        <ele>1985.5277701769</ele>
        <time>2015-01-10T11:12:20Z</time>
      </trkpt>
      <trkpt lat="42.91798" lon="0.11872">
        <ele>1985.5277701769</ele>
        <time>2015-01-10T11:12:25Z</time>
      </trkpt>
      <trkpt lat="42.91802" lon="0.1187">
        <ele>1985.5277701769</ele>
        <time>2015-01-10T11:12:30Z</time>
      </trkpt>
      <trkpt lat="42.91806" lon="0.11871">
        <ele>1988.3709220557</ele>
        <time>2015-01-10T11:12:35Z</time>
      </trkpt>
      <trkpt lat="42.91808" lon="0.11871">
        <ele>1988.3709220557</ele>
        <time>2015-01-10T11:12:40Z</time>
      </trkpt>
      <trkpt lat="42.91808" lon="0.11871">
        <ele>1988.3709220557</ele>
        <time>2015-01-10T11:12:45Z</time>
      </trkpt>
      <trkpt lat="42.91806" lon="0.11867">
        <ele>1988.3709220557</ele>
        <time>2015-01-10T11:13:25Z</time>
      </trkpt>
      <trkpt lat="42.91808" lon="0.11866">
        <ele>1988.3709220557</ele>
        <time>2015-01-10T11:13:30Z</time>
      </trkpt>
      <trkpt lat="42.9181" lon="0.11865">
        <ele>1990.79275388</ele>
        <time>2015-01-10T11:13:34Z</time>
      </trkpt>
      <trkpt lat="42.91815" lon="0.11865">
        <ele>1990.79275388</ele>
        <time>2015-01-10T11:13:41Z</time>
      </trkpt>
      <trkpt lat="42.91818" lon="0.11865">
        <ele>1990.79275388</ele>
        <time>2015-01-10T11:13:45Z</time>
      </trkpt>
      <trkpt lat="42.91822" lon="0.11864">
        <ele>1992.840082587</ele>
        <time>2015-01-10T11:13:50Z</time>
      </trkpt>
      <trkpt lat="42.91827" lon="0.11863">
        <ele>1992.840082587</ele>
        <time>2015-01-10T11:13:55Z</time>
      </trkpt>
      <trkpt lat="42.91831" lon="0.11861">
        <ele>1994.4996987741</ele>
        <time>2015-01-10T11:14:00Z</time>
      </trkpt>
      <trkpt lat="42.91835" lon="0.11863">
        <ele>1994.4996987741</ele>
        <time>2015-01-10T11:14:05Z</time>
      </trkpt>
      <trkpt lat="42.9184" lon="0.11861">
        <ele>1995.7892718297</ele>
        <time>2015-01-10T11:14:10Z</time>
      </trkpt>
      <trkpt lat="42.91838" lon="0.11857">
        <ele>1995.7892718297</ele>
        <time>2015-01-10T11:14:15Z</time>
      </trkpt>
      <trkpt lat="42.91837" lon="0.11852">
        <ele>1995.7892718297</ele>
        <time>2015-01-10T11:14:20Z</time>
      </trkpt>
      <trkpt lat="42.91837" lon="0.11843">
        <ele>1996.8847216267</ele>
        <time>2015-01-10T11:14:25Z</time>
      </trkpt>
      <trkpt lat="42.91836" lon="0.11839">
        <ele>1996.8847216267</ele>
        <time>2015-01-10T11:14:30Z</time>
      </trkpt>
      <trkpt lat="42.91837" lon="0.11831">
        <ele>1997.7766320687</ele>
        <time>2015-01-10T11:14:35Z</time>
      </trkpt>
      <trkpt lat="42.91838" lon="0.11828">
        <ele>1997.7766320687</ele>
        <time>2015-01-10T11:14:40Z</time>
      </trkpt>
      <trkpt lat="42.91837" lon="0.11825">
        <ele>1997.7766320687</ele>
        <time>2015-01-10T11:14:45Z</time>
      </trkpt>
      <trkpt lat="42.91837" lon="0.11823">
        <ele>1997.7766320687</ele>
        <time>2015-01-10T11:14:49Z</time>
      </trkpt>
      <trkpt lat="42.91837" lon="0.11822">
        <ele>1997.7766320687</ele>
        <time>2015-01-10T11:14:55Z</time>
      </trkpt>
      <trkpt lat="42.91837" lon="0.11821">
        <ele>1997.7766320687</ele>
        <time>2015-01-10T11:15:00Z</time>
      </trkpt>
      <trkpt lat="42.91841" lon="0.11818">
        <ele>1998.4568120053</ele>
        <time>2015-01-10T11:15:05Z</time>
      </trkpt>
      <trkpt lat="42.91842" lon="0.11816">
        <ele>1998.4568120053</ele>
        <time>2015-01-10T11:15:09Z</time>
      </trkpt>
      <trkpt lat="42.91843" lon="0.11815">
        <ele>1998.4568120053</ele>
        <time>2015-01-10T11:15:15Z</time>
      </trkpt>
      <trkpt lat="42.91847" lon="0.11813">
        <ele>1998.4568120053</ele>
        <time>2015-01-10T11:15:20Z</time>
      </trkpt>
      <trkpt lat="42.91849" lon="0.1181">
        <ele>1998.8893915482</ele>
        <time>2015-01-10T11:15:25Z</time>
      </trkpt>
      <trkpt lat="42.91853" lon="0.11808">
        <ele>1998.8893915482</ele>
        <time>2015-01-10T11:15:30Z</time>
      </trkpt>
      <trkpt lat="42.91855" lon="0.11807">
        <ele>1998.8893915482</ele>
        <time>2015-01-10T11:15:35Z</time>
      </trkpt>
      <trkpt lat="42.91857" lon="0.11804">
        <ele>1999.2723413516</ele>
        <time>2015-01-10T11:15:40Z</time>
      </trkpt>
      <trkpt lat="42.9186" lon="0.11802">
        <ele>1999.2723413516</ele>
        <time>2015-01-10T11:15:45Z</time>
      </trkpt>
      <trkpt lat="42.9186" lon="0.11796">
        <ele>1999.2723413516</ele>
        <time>2015-01-10T11:15:50Z</time>
      </trkpt>
      <trkpt lat="42.91859" lon="0.1179">
        <ele>1999.4576909047</ele>
        <time>2015-01-10T11:15:55Z</time>
      </trkpt>
      <trkpt lat="42.91857" lon="0.11789">
        <ele>1999.4576909047</ele>
        <time>2015-01-10T11:16:00Z</time>
      </trkpt>
      <trkpt lat="42.91855" lon="0.11777">
        <ele>1999.8420088525</ele>
        <time>2015-01-10T11:16:25Z</time>
      </trkpt>
      <trkpt lat="42.91856" lon="0.11772">
        <ele>1999.8420088525</ele>
        <time>2015-01-10T11:16:30Z</time>
      </trkpt>
      <trkpt lat="42.91859" lon="0.1177">
        <ele>1999.8420088525</ele>
        <time>2015-01-10T11:16:35Z</time>
      </trkpt>
      <trkpt lat="42.91862" lon="0.11766">
        <ele>2000.100330245</ele>
        <time>2015-01-10T11:16:40Z</time>
      </trkpt>
      <trkpt lat="42.91864" lon="0.11763">
        <ele>2000.100330245</ele>
        <time>2015-01-10T11:16:44Z</time>
      </trkpt>
      <trkpt lat="42.91865" lon="0.11761">
        <ele>2000.100330245</ele>
        <time>2015-01-10T11:16:49Z</time>
      </trkpt>
      <trkpt lat="42.91868" lon="0.1176">
        <ele>2000.100330245</ele>
        <time>2015-01-10T11:16:55Z</time>
      </trkpt>
      <trkpt lat="42.91869" lon="0.11758">
        <ele>2000.3064814843</ele>
        <time>2015-01-10T11:17:00Z</time>
      </trkpt>
      <trkpt lat="42.91873" lon="0.11757">
        <ele>2000.3064814843</ele>
        <time>2015-01-10T11:17:05Z</time>
      </trkpt>
      <trkpt lat="42.91875" lon="0.11756">
        <ele>2000.3064814843</ele>
        <time>2015-01-10T11:17:10Z</time>
      </trkpt>
      <trkpt lat="42.91878" lon="0.11756">
        <ele>2000.47123307</ele>
        <time>2015-01-10T11:17:15Z</time>
      </trkpt>
      <trkpt lat="42.91878" lon="0.11756">
        <ele>2000.47123307</ele>
        <time>2015-01-10T11:17:20Z</time>
      </trkpt>
      <trkpt lat="42.91878" lon="0.1175">
        <ele>2000.47123307</ele>
        <time>2015-01-10T11:17:55Z</time>
      </trkpt>
      <trkpt lat="42.91882" lon="0.1175">
        <ele>2000.47123307</ele>
        <time>2015-01-10T11:18:00Z</time>
      </trkpt>
      <trkpt lat="42.91885" lon="0.1175">
        <ele>2000.8639358794</ele>
        <time>2015-01-10T11:18:05Z</time>
      </trkpt>
      <trkpt lat="42.91888" lon="0.11751">
        <ele>2000.8639358794</ele>
        <time>2015-01-10T11:18:10Z</time>
      </trkpt>
      <trkpt lat="42.91891" lon="0.11752">
        <ele>2000.8639358794</ele>
        <time>2015-01-10T11:18:15Z</time>
      </trkpt>
      <trkpt lat="42.91893" lon="0.11752">
        <ele>2000.8639358794</ele>
        <time>2015-01-10T11:18:20Z</time>
      </trkpt>
      <trkpt lat="42.91893" lon="0.1175">
        <ele>2001.2866167653</ele>
        <time>2015-01-10T11:18:25Z</time>
      </trkpt>
      <trkpt lat="42.91899" lon="0.11749">
        <ele>2001.2866167653</ele>
        <time>2015-01-10T11:18:34Z</time>
      </trkpt>
      <trkpt lat="42.91904" lon="0.11749">
        <ele>2001.9302898971</ele>
        <time>2015-01-10T11:18:40Z</time>
      </trkpt>
      <trkpt lat="42.91908" lon="0.11747">
        <ele>2001.9302898971</ele>
        <time>2015-01-10T11:18:45Z</time>
      </trkpt>
      <trkpt lat="42.91911" lon="0.11744">
        <ele>2001.9302898971</ele>
        <time>2015-01-10T11:18:50Z</time>
      </trkpt>
      <trkpt lat="42.91915" lon="0.11741">
        <ele>2002.6973408434</ele>
        <time>2015-01-10T11:18:55Z</time>
      </trkpt>
      <trkpt lat="42.91918" lon="0.11739">
        <ele>2002.6973408434</ele>
        <time>2015-01-10T11:19:00Z</time>
      </trkpt>
      <trkpt lat="42.91921" lon="0.11738">
        <ele>2002.6973408434</ele>
        <time>2015-01-10T11:19:05Z</time>
      </trkpt>
      <trkpt lat="42.91921" lon="0.11738">
        <ele>2002.6973408434</ele>
        <time>2015-01-10T11:19:10Z</time>
      </trkpt>
      <trkpt lat="42.9192" lon="0.11737">
        <ele>2002.6973408434</ele>
        <time>2015-01-10T11:19:15Z</time>
      </trkpt>
      <trkpt lat="42.9193" lon="0.11735">
        <ele>2004.2606015181</ele>
        <time>2015-01-10T11:19:49Z</time>
      </trkpt>
      <trkpt lat="42.91934" lon="0.11733">
        <ele>2004.2606015181</ele>
        <time>2015-01-10T11:19:55Z</time>
      </trkpt>
      <trkpt lat="42.9194" lon="0.11731">
        <ele>2005.6558545135</ele>
        <time>2015-01-10T11:20:00Z</time>
      </trkpt>
      <trkpt lat="42.91945" lon="0.1173">
        <ele>2005.6558545135</ele>
        <time>2015-01-10T11:20:05Z</time>
      </trkpt>
      <trkpt lat="42.91948" lon="0.11728">
        <ele>2005.6558545135</ele>
        <time>2015-01-10T11:20:10Z</time>
      </trkpt>
      <trkpt lat="42.9195" lon="0.11725">
        <ele>2006.941153847</ele>
        <time>2015-01-10T11:20:15Z</time>
      </trkpt>
      <trkpt lat="42.91957" lon="0.11725">
        <ele>2006.941153847</ele>
        <time>2015-01-10T11:20:20Z</time>
      </trkpt>
      <trkpt lat="42.91961" lon="0.11725">
        <ele>2008.1848481695</ele>
        <time>2015-01-10T11:20:25Z</time>
      </trkpt>
      <trkpt lat="42.91966" lon="0.11725">
        <ele>2008.1848481695</ele>
        <time>2015-01-10T11:20:29Z</time>
      </trkpt>
      <trkpt lat="42.9197" lon="0.11726">
        <ele>2009.4790487372</ele>
        <time>2015-01-10T11:20:34Z</time>
      </trkpt>
      <trkpt lat="42.91974" lon="0.11728">
        <ele>2009.4790487372</ele>
        <time>2015-01-10T11:20:40Z</time>
      </trkpt>
      <trkpt lat="42.91977" lon="0.11728">
        <ele>2009.4790487372</ele>
        <time>2015-01-10T11:20:45Z</time>
      </trkpt>
      <trkpt lat="42.91982" lon="0.11728">
        <ele>2010.8943967547</ele>
        <time>2015-01-10T11:20:50Z</time>
      </trkpt>
      <trkpt lat="42.9199" lon="0.11728">
        <ele>2010.8943967547</ele>
        <time>2015-01-10T11:20:55Z</time>
      </trkpt>
      <trkpt lat="42.91996" lon="0.11728">
        <ele>2012.3949806443</ele>
        <time>2015-01-10T11:21:00Z</time>
      </trkpt>
      <trkpt lat="42.91999" lon="0.11727">
        <ele>2012.3949806443</ele>
        <time>2015-01-10T11:21:05Z</time>
      </trkpt>
      <trkpt lat="42.92003" lon="0.11725">
        <ele>2012.3949806443</ele>
        <time>2015-01-10T11:21:10Z</time>
      </trkpt>
      <trkpt lat="42.92006" lon="0.11725">
        <ele>2013.8030360139</ele>
        <time>2015-01-10T11:21:15Z</time>
      </trkpt>
      <trkpt lat="42.9201" lon="0.11724">
        <ele>2013.8030360139</ele>
        <time>2015-01-10T11:21:19Z</time>
      </trkpt>
      <trkpt lat="42.92013" lon="0.11724">
        <ele>2013.8030360139</ele>
        <time>2015-01-10T11:21:25Z</time>
      </trkpt>
      <trkpt lat="42.92017" lon="0.11725">
        <ele>2015.29984854</ele>
        <time>2015-01-10T11:21:30Z</time>
      </trkpt>
      <trkpt lat="42.92021" lon="0.11728">
        <ele>2015.29984854</ele>
        <time>2015-01-10T11:21:35Z</time>
      </trkpt>
      <trkpt lat="42.92021" lon="0.11725">
        <ele>2015.29984854</ele>
        <time>2015-01-10T11:21:39Z</time>
      </trkpt>
      <trkpt lat="42.92022" lon="0.11724">
        <ele>2015.29984854</ele>
        <time>2015-01-10T11:21:45Z</time>
      </trkpt>
      <trkpt lat="42.9202" lon="0.11719">
        <ele>2017.0385983425</ele>
        <time>2015-01-10T11:21:50Z</time>
      </trkpt>
      <trkpt lat="42.92019" lon="0.11726">
        <ele>2017.0385983425</ele>
        <time>2015-01-10T11:22:05Z</time>
      </trkpt>
      <trkpt lat="42.9202" lon="0.1173">
        <ele>2017.0385983425</ele>
        <time>2015-01-10T11:22:10Z</time>
      </trkpt>
      <trkpt lat="42.92021" lon="0.11735">
        <ele>2019.5927477147</ele>
        <time>2015-01-10T11:22:15Z</time>
      </trkpt>
      <trkpt lat="42.92021" lon="0.11738">
        <ele>2019.5927477147</ele>
        <time>2015-01-10T11:22:20Z</time>
      </trkpt>
      <trkpt lat="42.92023" lon="0.11745">
        <ele>2019.5927477147</ele>
        <time>2015-01-10T11:22:24Z</time>
      </trkpt>
      <trkpt lat="42.92028" lon="0.11749">
        <ele>2022.3815792277</ele>
        <time>2015-01-10T11:22:30Z</time>
      </trkpt>
      <trkpt lat="42.92029" lon="0.11753">
        <ele>2022.3815792277</ele>
        <time>2015-01-10T11:22:34Z</time>
      </trkpt>
      <trkpt lat="42.92029" lon="0.11759">
        <ele>2022.3815792277</ele>
        <time>2015-01-10T11:22:40Z</time>
      </trkpt>
      <trkpt lat="42.92029" lon="0.11764">
        <ele>2025.1112672057</ele>
        <time>2015-01-10T11:22:45Z</time>
      </trkpt>
      <trkpt lat="42.9203" lon="0.11769">
        <ele>2025.1112672057</ele>
        <time>2015-01-10T11:22:50Z</time>
      </trkpt>
      <trkpt lat="42.92029" lon="0.11773">
        <ele>2025.1112672057</ele>
        <time>2015-01-10T11:22:55Z</time>
      </trkpt>
      <trkpt lat="42.92031" lon="0.11776">
        <ele>2027.7114073157</ele>
        <time>2015-01-10T11:23:00Z</time>
      </trkpt>
      <trkpt lat="42.92032" lon="0.1178">
        <ele>2027.7114073157</ele>
        <time>2015-01-10T11:23:05Z</time>
      </trkpt>
      <trkpt lat="42.92032" lon="0.11786">
        <ele>2027.7114073157</ele>
        <time>2015-01-10T11:23:10Z</time>
      </trkpt>
      <trkpt lat="42.92032" lon="0.11792">
        <ele>2030.0161817805</ele>
        <time>2015-01-10T11:23:15Z</time>
      </trkpt>
      <trkpt lat="42.92033" lon="0.11797">
        <ele>2030.0161817805</ele>
        <time>2015-01-10T11:23:20Z</time>
      </trkpt>
      <trkpt lat="42.92033" lon="0.11802">
        <ele>2030.0161817805</ele>
        <time>2015-01-10T11:23:25Z</time>
      </trkpt>
      <trkpt lat="42.92034" lon="0.11804">
        <ele>2032.261823703</ele>
        <time>2015-01-10T11:23:30Z</time>
      </trkpt>
      <trkpt lat="42.92034" lon="0.11807">
        <ele>2032.261823703</ele>
        <time>2015-01-10T11:23:35Z</time>
      </trkpt>
      <trkpt lat="42.92032" lon="0.1181">
        <ele>2032.261823703</ele>
        <time>2015-01-10T11:23:40Z</time>
      </trkpt>
      <trkpt lat="42.92032" lon="0.11809">
        <ele>2032.261823703</ele>
        <time>2015-01-10T11:23:47Z</time>
      </trkpt>
      <trkpt lat="42.92031" lon="0.11816">
        <ele>2034.3070519249</ele>
        <time>2015-01-10T11:24:05Z</time>
      </trkpt>
      <trkpt lat="42.92036" lon="0.11817">
        <ele>2034.3070519249</ele>
        <time>2015-01-10T11:24:10Z</time>
      </trkpt>
      <trkpt lat="42.92038" lon="0.11818">
        <ele>2034.3070519249</ele>
        <time>2015-01-10T11:24:15Z</time>
      </trkpt>
      <trkpt lat="42.9204" lon="0.1182">
        <ele>2036.1511852298</ele>
        <time>2015-01-10T11:24:19Z</time>
      </trkpt>
      <trkpt lat="42.92043" lon="0.11822">
        <ele>2036.1511852298</ele>
        <time>2015-01-10T11:24:24Z</time>
      </trkpt>
      <trkpt lat="42.92046" lon="0.11824">
        <ele>2036.1511852298</ele>
        <time>2015-01-10T11:24:31Z</time>
      </trkpt>
      <trkpt lat="42.92047" lon="0.11825">
        <ele>2036.1511852298</ele>
        <time>2015-01-10T11:24:35Z</time>
      </trkpt>
      <trkpt lat="42.92048" lon="0.11827">
        <ele>2037.981466552</ele>
        <time>2015-01-10T11:24:40Z</time>
      </trkpt>
      <trkpt lat="42.9205" lon="0.1183">
        <ele>2037.981466552</ele>
        <time>2015-01-10T11:24:45Z</time>
      </trkpt>
      <trkpt lat="42.92052" lon="0.11831">
        <ele>2037.981466552</ele>
        <time>2015-01-10T11:24:49Z</time>
      </trkpt>
      <trkpt lat="42.92055" lon="0.11833">
        <ele>2037.981466552</ele>
        <time>2015-01-10T11:24:56Z</time>
      </trkpt>
      <trkpt lat="42.92057" lon="0.11835">
        <ele>2039.7552264794</ele>
        <time>2015-01-10T11:25:00Z</time>
      </trkpt>
      <trkpt lat="42.9206" lon="0.11837">
        <ele>2039.7552264794</ele>
        <time>2015-01-10T11:25:06Z</time>
      </trkpt>
      <trkpt lat="42.92064" lon="0.11837">
        <ele>2039.7552264794</ele>
        <time>2015-01-10T11:25:10Z</time>
      </trkpt>
      <trkpt lat="42.92068" lon="0.11837">
        <ele>2041.4330625465</ele>
        <time>2015-01-10T11:25:15Z</time>
      </trkpt>
      <trkpt lat="42.92067" lon="0.11835">
        <ele>2041.4330625465</ele>
        <time>2015-01-10T11:25:20Z</time>
      </trkpt>
      <trkpt lat="42.92071" lon="0.11835">
        <ele>2041.4330625465</ele>
        <time>2015-01-10T11:25:43Z</time>
      </trkpt>
      <trkpt lat="42.92074" lon="0.11837">
        <ele>2041.4330625465</ele>
        <time>2015-01-10T11:25:43Z</time>
      </trkpt>
      <trkpt lat="42.92078" lon="0.11839">
        <ele>2043.4542801014</ele>
        <time>2015-01-10T11:25:51Z</time>
      </trkpt>
      <trkpt lat="42.9208" lon="0.11841">
        <ele>2043.4542801014</ele>
        <time>2015-01-10T11:25:55Z</time>
      </trkpt>
      <trkpt lat="42.92083" lon="0.11844">
        <ele>2043.4542801014</ele>
        <time>2015-01-10T11:25:59Z</time>
      </trkpt>
      <trkpt lat="42.92088" lon="0.11848">
        <ele>2045.5043751046</ele>
        <time>2015-01-10T11:26:06Z</time>
      </trkpt>
      <trkpt lat="42.92092" lon="0.11851">
        <ele>2045.5043751046</ele>
        <time>2015-01-10T11:26:10Z</time>
      </trkpt>
      <trkpt lat="42.92095" lon="0.11854">
        <ele>2045.5043751046</ele>
        <time>2015-01-10T11:26:15Z</time>
      </trkpt>
      <trkpt lat="42.92096" lon="0.11856">
        <ele>2047.4791947465</ele>
        <time>2015-01-10T11:26:21Z</time>
      </trkpt>
      <trkpt lat="42.921" lon="0.11859">
        <ele>2047.4791947465</ele>
        <time>2015-01-10T11:26:26Z</time>
      </trkpt>
      <trkpt lat="42.92104" lon="0.11862">
        <ele>2047.4791947465</ele>
        <time>2015-01-10T11:26:30Z</time>
      </trkpt>
      <trkpt lat="42.92108" lon="0.11868">
        <ele>2049.4841924006</ele>
        <time>2015-01-10T11:26:35Z</time>
      </trkpt>
      <trkpt lat="42.92112" lon="0.11872">
        <ele>2049.4841924006</ele>
        <time>2015-01-10T11:26:40Z</time>
      </trkpt>
      <trkpt lat="42.92116" lon="0.11873">
        <ele>2049.4841924006</ele>
        <time>2015-01-10T11:26:45Z</time>
      </trkpt>
      <trkpt lat="42.92117" lon="0.11877">
        <ele>2051.5161049253</ele>
        <time>2015-01-10T11:26:50Z</time>
      </trkpt>
      <trkpt lat="42.92119" lon="0.11881">
        <ele>2051.5161049253</ele>
        <time>2015-01-10T11:26:55Z</time>
      </trkpt>
      <trkpt lat="42.92122" lon="0.11881">
        <ele>2051.5161049253</ele>
        <time>2015-01-10T11:27:00Z</time>
      </trkpt>
      <trkpt lat="42.92123" lon="0.11882">
        <ele>2051.5161049253</ele>
        <time>2015-01-10T11:27:05Z</time>
      </trkpt>
      <trkpt lat="42.92126" lon="0.11882">
        <ele>2053.615063175</ele>
        <time>2015-01-10T11:27:10Z</time>
      </trkpt>
      <trkpt lat="42.92128" lon="0.11879">
        <ele>2053.615063175</ele>
        <time>2015-01-10T11:27:15Z</time>
      </trkpt>
      <trkpt lat="42.92129" lon="0.1188">
        <ele>2053.615063175</ele>
        <time>2015-01-10T11:27:20Z</time>
      </trkpt>
      <trkpt lat="42.92128" lon="0.11876">
        <ele>2053.615063175</ele>
        <time>2015-01-10T11:27:25Z</time>
      </trkpt>
      <trkpt lat="42.92123" lon="0.11887">
        <ele>2055.8036511642</ele>
        <time>2015-01-10T11:27:45Z</time>
      </trkpt>
      <trkpt lat="42.92122" lon="0.11881">
        <ele>2055.8036511642</ele>
        <time>2015-01-10T11:27:55Z</time>
      </trkpt>
      <trkpt lat="42.92126" lon="0.1188">
        <ele>2055.8036511642</ele>
        <time>2015-01-10T11:28:05Z</time>
      </trkpt>
      <trkpt lat="42.92126" lon="0.11883">
        <ele>2057.9584355472</ele>
        <time>2015-01-10T11:28:09Z</time>
      </trkpt>
      <trkpt lat="42.92128" lon="0.11888">
        <ele>2057.9584355472</ele>
        <time>2015-01-10T11:28:14Z</time>
      </trkpt>
      <trkpt lat="42.92132" lon="0.11892">
        <ele>2060.2245535958</ele>
        <time>2015-01-10T11:28:22Z</time>
      </trkpt>
      <trkpt lat="42.92133" lon="0.11894">
        <ele>2060.2245535958</ele>
        <time>2015-01-10T11:28:24Z</time>
      </trkpt>
      <trkpt lat="42.92136" lon="0.11897">
        <ele>2060.2245535958</ele>
        <time>2015-01-10T11:28:30Z</time>
      </trkpt>
      <trkpt lat="42.92142" lon="0.119">
        <ele>2062.7650037247</ele>
        <time>2015-01-10T11:28:35Z</time>
      </trkpt>
      <trkpt lat="42.92144" lon="0.11902">
        <ele>2062.7650037247</ele>
        <time>2015-01-10T11:28:39Z</time>
      </trkpt>
      <trkpt lat="42.92147" lon="0.11906">
        <ele>2062.7650037247</ele>
        <time>2015-01-10T11:28:45Z</time>
      </trkpt>
      <trkpt lat="42.92149" lon="0.1191">
        <ele>2065.6003592402</ele>
        <time>2015-01-10T11:28:50Z</time>
      </trkpt>
      <trkpt lat="42.9215" lon="0.11913">
        <ele>2065.6003592402</ele>
        <time>2015-01-10T11:28:55Z</time>
      </trkpt>
      <trkpt lat="42.92152" lon="0.11918">
        <ele>2065.6003592402</ele>
        <time>2015-01-10T11:29:00Z</time>
      </trkpt>
      <trkpt lat="42.92154" lon="0.11921">
        <ele>2068.5327125918</ele>
        <time>2015-01-10T11:29:04Z</time>
      </trkpt>
      <trkpt lat="42.92157" lon="0.11923">
        <ele>2068.5327125918</ele>
        <time>2015-01-10T11:29:10Z</time>
      </trkpt>
      <trkpt lat="42.92158" lon="0.11924">
        <ele>2068.5327125918</ele>
        <time>2015-01-10T11:29:15Z</time>
      </trkpt>
      <trkpt lat="42.9216" lon="0.11929">
        <ele>2068.5327125918</ele>
        <time>2015-01-10T11:29:26Z</time>
      </trkpt>
      <trkpt lat="42.92163" lon="0.11931">
        <ele>2071.810787975</ele>
        <time>2015-01-10T11:29:29Z</time>
      </trkpt>
      <trkpt lat="42.92164" lon="0.11933">
        <ele>2071.810787975</ele>
        <time>2015-01-10T11:29:35Z</time>
      </trkpt>
      <trkpt lat="42.92166" lon="0.11934">
        <ele>2071.810787975</ele>
        <time>2015-01-10T11:29:40Z</time>
      </trkpt>
      <trkpt lat="42.92169" lon="0.11933">
        <ele>2071.810787975</ele>
        <time>2015-01-10T11:29:45Z</time>
      </trkpt>
      <trkpt lat="42.92167" lon="0.11933">
        <ele>2074.9723756099</ele>
        <time>2015-01-10T11:29:55Z</time>
      </trkpt>
      <trkpt lat="42.92175" lon="0.11937">
        <ele>2074.9723756099</ele>
        <time>2015-01-10T11:30:15Z</time>
      </trkpt>
      <trkpt lat="42.92179" lon="0.11938">
        <ele>2078.2380960075</ele>
        <time>2015-01-10T11:30:21Z</time>
      </trkpt>
      <trkpt lat="42.92183" lon="0.1194">
        <ele>2078.2380960075</ele>
        <time>2015-01-10T11:30:24Z</time>
      </trkpt>
      <trkpt lat="42.92184" lon="0.11942">
        <ele>2078.2380960075</ele>
        <time>2015-01-10T11:30:29Z</time>
      </trkpt>
      <trkpt lat="42.92185" lon="0.1194">
        <ele>2078.2380960075</ele>
        <time>2015-01-10T11:30:34Z</time>
      </trkpt>
      <trkpt lat="42.92186" lon="0.11941">
        <ele>2081.3509733817</ele>
        <time>2015-01-10T11:30:40Z</time>
      </trkpt>
      <trkpt lat="42.9219" lon="0.11943">
        <ele>2081.3509733817</ele>
        <time>2015-01-10T11:30:45Z</time>
      </trkpt>
      <trkpt lat="42.9219" lon="0.11945">
        <ele>2081.3509733817</ele>
        <time>2015-01-10T11:30:50Z</time>
      </trkpt>
      <trkpt lat="42.92191" lon="0.11947">
        <ele>2081.3509733817</ele>
        <time>2015-01-10T11:30:55Z</time>
      </trkpt>
      <trkpt lat="42.92194" lon="0.11952">
        <ele>2084.5922046657</ele>
        <time>2015-01-10T11:31:00Z</time>
      </trkpt>
      <trkpt lat="42.92195" lon="0.11956">
        <ele>2084.5922046657</ele>
        <time>2015-01-10T11:31:05Z</time>
      </trkpt>
      <trkpt lat="42.92197" lon="0.11956">
        <ele>2084.5922046657</ele>
        <time>2015-01-10T11:31:10Z</time>
      </trkpt>
      <trkpt lat="42.92199" lon="0.11953">
        <ele>2084.5922046657</ele>
        <time>2015-01-10T11:31:22Z</time>
      </trkpt>
      <trkpt lat="42.92198" lon="0.11952">
        <ele>2087.5158986777</ele>
        <time>2015-01-10T11:31:24Z</time>
      </trkpt>
      <trkpt lat="42.92199" lon="0.11955">
        <ele>2087.5158986777</ele>
        <time>2015-01-10T11:31:38Z</time>
      </trkpt>
      <trkpt lat="42.92202" lon="0.11957">
        <ele>2087.5158986777</ele>
        <time>2015-01-10T11:31:39Z</time>
      </trkpt>
      <trkpt lat="42.92203" lon="0.11962">
        <ele>2090.6177895272</ele>
        <time>2015-01-10T11:31:45Z</time>
      </trkpt>
      <trkpt lat="42.92203" lon="0.11962">
        <ele>2090.6177895272</ele>
        <time>2015-01-10T11:31:50Z</time>
      </trkpt>
      <trkpt lat="42.92203" lon="0.11965">
        <ele>2090.6177895272</ele>
        <time>2015-01-10T11:31:55Z</time>
      </trkpt>
      <trkpt lat="42.92204" lon="0.11966">
        <ele>2090.6177895272</ele>
        <time>2015-01-10T11:32:00Z</time>
      </trkpt>
      <trkpt lat="42.92207" lon="0.1197">
        <ele>2090.6177895272</ele>
        <time>2015-01-10T11:32:04Z</time>
      </trkpt>
      <trkpt lat="42.92208" lon="0.11973">
        <ele>2093.4921119054</ele>
        <time>2015-01-10T11:32:09Z</time>
      </trkpt>
      <trkpt lat="42.92209" lon="0.11979">
        <ele>2093.4921119054</ele>
        <time>2015-01-10T11:32:15Z</time>
      </trkpt>
      <trkpt lat="42.9221" lon="0.11983">
        <ele>2093.4921119054</ele>
        <time>2015-01-10T11:32:20Z</time>
      </trkpt>
      <trkpt lat="42.9221" lon="0.11985">
        <ele>2093.4921119054</ele>
        <time>2015-01-10T11:32:24Z</time>
      </trkpt>
      <trkpt lat="42.92208" lon="0.1199">
        <ele>2096.2968447484</ele>
        <time>2015-01-10T11:32:29Z</time>
      </trkpt>
      <trkpt lat="42.92208" lon="0.11999">
        <ele>2096.2968447484</ele>
        <time>2015-01-10T11:32:35Z</time>
      </trkpt>
      <trkpt lat="42.92209" lon="0.12002">
        <ele>2096.2968447484</ele>
        <time>2015-01-10T11:32:40Z</time>
      </trkpt>
      <trkpt lat="42.9221" lon="0.12001">
        <ele>2099.1930579742</ele>
        <time>2015-01-10T11:32:45Z</time>
      </trkpt>
      <trkpt lat="42.92211" lon="0.12001">
        <ele>2099.1930579742</ele>
        <time>2015-01-10T11:32:51Z</time>
      </trkpt>
      <trkpt lat="42.92212" lon="0.12">
        <ele>2099.1930579742</ele>
        <time>2015-01-10T11:32:55Z</time>
      </trkpt>
      <trkpt lat="42.92213" lon="0.12">
        <ele>2099.1930579742</ele>
        <time>2015-01-10T11:33:00Z</time>
      </trkpt>
      <trkpt lat="42.92223" lon="0.12">
        <ele>2102.50275832</ele>
        <time>2015-01-10T11:33:15Z</time>
      </trkpt>
      <trkpt lat="42.92223" lon="0.12">
        <ele>2102.50275832</ele>
        <time>2015-01-10T11:33:20Z</time>
      </trkpt>
      <trkpt lat="42.92225" lon="0.11999">
        <ele>2102.50275832</ele>
        <time>2015-01-10T11:33:31Z</time>
      </trkpt>
      <trkpt lat="42.92225" lon="0.11999">
        <ele>2102.50275832</ele>
        <time>2015-01-10T11:33:35Z</time>
      </trkpt>
      <trkpt lat="42.9222" lon="0.11998">
        <ele>2102.50275832</ele>
        <time>2015-01-10T11:33:49Z</time>
      </trkpt>
      <trkpt lat="42.92228" lon="0.12003">
        <ele>2106.3503001222</ele>
        <time>2015-01-10T11:34:10Z</time>
      </trkpt>
      <trkpt lat="42.92231" lon="0.12004">
        <ele>2106.3503001222</ele>
        <time>2015-01-10T11:34:15Z</time>
      </trkpt>
      <trkpt lat="42.92233" lon="0.12006">
        <ele>2106.3503001222</ele>
        <time>2015-01-10T11:34:19Z</time>
      </trkpt>
      <trkpt lat="42.92238" lon="0.12007">
        <ele>2109.9127705704</ele>
        <time>2015-01-10T11:34:25Z</time>
      </trkpt>
      <trkpt lat="42.92242" lon="0.1201">
        <ele>2109.9127705704</ele>
        <time>2015-01-10T11:34:29Z</time>
      </trkpt>
      <trkpt lat="42.92249" lon="0.12014">
        <ele>2113.3076892504</ele>
        <time>2015-01-10T11:34:35Z</time>
      </trkpt>
      <trkpt lat="42.92251" lon="0.12017">
        <ele>2113.3076892504</ele>
        <time>2015-01-10T11:34:42Z</time>
      </trkpt>
      <trkpt lat="42.92253" lon="0.1202">
        <ele>2113.3076892504</ele>
        <time>2015-01-10T11:34:43Z</time>
      </trkpt>
      <trkpt lat="42.92255" lon="0.12021">
        <ele>2113.3076892504</ele>
        <time>2015-01-10T11:34:51Z</time>
      </trkpt>
      <trkpt lat="42.92255" lon="0.12023">
        <ele>2116.7309882881</ele>
        <time>2015-01-10T11:34:55Z</time>
      </trkpt>
      <trkpt lat="42.92256" lon="0.12024">
        <ele>2116.7309882881</ele>
        <time>2015-01-10T11:35:10Z</time>
      </trkpt>
      <trkpt lat="42.92259" lon="0.12022">
        <ele>2116.7309882881</ele>
        <time>2015-01-10T11:35:15Z</time>
      </trkpt>
      <trkpt lat="42.92262" lon="0.12022">
        <ele>2116.7309882881</ele>
        <time>2015-01-10T11:35:20Z</time>
      </trkpt>
      <trkpt lat="42.92263" lon="0.12021">
        <ele>2116.7309882881</ele>
        <time>2015-01-10T11:35:24Z</time>
      </trkpt>
      <trkpt lat="42.92262" lon="0.12018">
        <ele>2120.1480731071</ele>
        <time>2015-01-10T11:35:35Z</time>
      </trkpt>
      <trkpt lat="42.92262" lon="0.12017">
        <ele>2120.1480731071</ele>
        <time>2015-01-10T11:35:40Z</time>
      </trkpt>
      <trkpt lat="42.9225" lon="0.12026">
        <ele>2123.3973229183</ele>
        <time>2015-01-10T11:35:50Z</time>
      </trkpt>
      <trkpt lat="42.92251" lon="0.12027">
        <ele>2123.3973229183</ele>
        <time>2015-01-10T11:35:55Z</time>
      </trkpt>
      <trkpt lat="42.9225" lon="0.12024">
        <ele>2123.3973229183</ele>
        <time>2015-01-10T11:36:10Z</time>
      </trkpt>
      <trkpt lat="42.92255" lon="0.12022">
        <ele>2123.3973229183</ele>
        <time>2015-01-10T11:36:15Z</time>
      </trkpt>
      <trkpt lat="42.9226" lon="0.12029">
        <ele>2126.862788572</ele>
        <time>2015-01-10T11:37:25Z</time>
      </trkpt>
      <trkpt lat="42.92263" lon="0.12031">
        <ele>2126.862788572</ele>
        <time>2015-01-10T11:37:30Z</time>
      </trkpt>
      <trkpt lat="42.92263" lon="0.12033">
        <ele>2126.862788572</ele>
        <time>2015-01-10T11:37:35Z</time>
      </trkpt>
      <trkpt lat="42.92268" lon="0.12033">
        <ele>2129.9198638066</ele>
        <time>2015-01-10T11:37:40Z</time>
      </trkpt>
      <trkpt lat="42.9227" lon="0.12034">
        <ele>2129.9198638066</ele>
        <time>2015-01-10T11:37:45Z</time>
      </trkpt>
      <trkpt lat="42.92273" lon="0.12035">
        <ele>2129.9198638066</ele>
        <time>2015-01-10T11:37:50Z</time>
      </trkpt>
      <trkpt lat="42.92276" lon="0.12036">
        <ele>2129.9198638066</ele>
        <time>2015-01-10T11:37:55Z</time>
      </trkpt>
      <trkpt lat="42.92279" lon="0.12038">
        <ele>2132.7692884254</ele>
        <time>2015-01-10T11:38:00Z</time>
      </trkpt>
      <trkpt lat="42.9228" lon="0.1204">
        <ele>2132.7692884254</ele>
        <time>2015-01-10T11:38:05Z</time>
      </trkpt>
      <trkpt lat="42.92282" lon="0.12041">
        <ele>2132.7692884254</ele>
        <time>2015-01-10T11:38:10Z</time>
      </trkpt>
      <trkpt lat="42.92283" lon="0.12043">
        <ele>2132.7692884254</ele>
        <time>2015-01-10T11:38:15Z</time>
      </trkpt>
      <trkpt lat="42.92283" lon="0.12045">
        <ele>2132.7692884254</ele>
        <time>2015-01-10T11:38:20Z</time>
      </trkpt>
      <trkpt lat="42.92284" lon="0.12047">
        <ele>2132.7692884254</ele>
        <time>2015-01-10T11:38:25Z</time>
      </trkpt>
      <trkpt lat="42.92288" lon="0.12048">
        <ele>2135.4824644159</ele>
        <time>2015-01-10T11:38:30Z</time>
      </trkpt>
      <trkpt lat="42.92292" lon="0.12048">
        <ele>2135.4824644159</ele>
        <time>2015-01-10T11:38:34Z</time>
      </trkpt>
      <trkpt lat="42.92295" lon="0.12048">
        <ele>2135.4824644159</ele>
        <time>2015-01-10T11:38:40Z</time>
      </trkpt>
      <trkpt lat="42.92297" lon="0.12046">
        <ele>2135.4824644159</ele>
        <time>2015-01-10T11:38:45Z</time>
      </trkpt>
      <trkpt lat="42.92299" lon="0.12049">
        <ele>2137.8089970247</ele>
        <time>2015-01-10T11:38:50Z</time>
      </trkpt>
      <trkpt lat="42.92302" lon="0.1205">
        <ele>2137.8089970247</ele>
        <time>2015-01-10T11:38:55Z</time>
      </trkpt>
      <trkpt lat="42.92304" lon="0.12051">
        <ele>2137.8089970247</ele>
        <time>2015-01-10T11:39:00Z</time>
      </trkpt>
      <trkpt lat="42.92306" lon="0.12051">
        <ele>2137.8089970247</ele>
        <time>2015-01-10T11:39:05Z</time>
      </trkpt>
      <trkpt lat="42.92308" lon="0.1205">
        <ele>2139.7774743701</ele>
        <time>2015-01-10T11:39:10Z</time>
      </trkpt>
      <trkpt lat="42.9231" lon="0.12051">
        <ele>2139.7774743701</ele>
        <time>2015-01-10T11:39:14Z</time>
      </trkpt>
      <trkpt lat="42.92313" lon="0.12051">
        <ele>2139.7774743701</ele>
        <time>2015-01-10T11:39:20Z</time>
      </trkpt>
      <trkpt lat="42.92315" lon="0.12054">
        <ele>2139.7774743701</ele>
        <time>2015-01-10T11:39:35Z</time>
      </trkpt>
      <trkpt lat="42.92317" lon="0.12054">
        <ele>2141.4875402261</ele>
        <time>2015-01-10T11:39:40Z</time>
      </trkpt>
      <trkpt lat="42.92316" lon="0.12055">
        <ele>2141.4875402261</ele>
        <time>2015-01-10T11:39:45Z</time>
      </trkpt>
      <trkpt lat="42.92319" lon="0.12055">
        <ele>2141.4875402261</ele>
        <time>2015-01-10T11:39:49Z</time>
      </trkpt>
      <trkpt lat="42.92324" lon="0.12055">
        <ele>2141.4875402261</ele>
        <time>2015-01-10T11:39:55Z</time>
      </trkpt>
      <trkpt lat="42.92329" lon="0.12055">
        <ele>2143.0035063734</ele>
        <time>2015-01-10T11:40:00Z</time>
      </trkpt>
      <trkpt lat="42.92331" lon="0.12056">
        <ele>2143.0035063734</ele>
        <time>2015-01-10T11:40:05Z</time>
      </trkpt>
      <trkpt lat="42.9233" lon="0.12057">
        <ele>2143.0035063734</ele>
        <time>2015-01-10T11:40:10Z</time>
      </trkpt>
      <trkpt lat="42.92338" lon="0.12053">
        <ele>2144.6305669873</ele>
        <time>2015-01-10T11:40:34Z</time>
      </trkpt>
      <trkpt lat="42.92342" lon="0.12052">
        <ele>2144.6305669873</ele>
        <time>2015-01-10T11:40:40Z</time>
      </trkpt>
      <trkpt lat="42.92345" lon="0.12054">
        <ele>2144.6305669873</ele>
        <time>2015-01-10T11:40:44Z</time>
      </trkpt>
      <trkpt lat="42.92347" lon="0.12055">
        <ele>2146.449490666</ele>
        <time>2015-01-10T11:40:50Z</time>
      </trkpt>
      <trkpt lat="42.92348" lon="0.12055">
        <ele>2146.449490666</ele>
        <time>2015-01-10T11:40:55Z</time>
      </trkpt>
      <trkpt lat="42.92359" lon="0.12057">
        <ele>2148.2896350799</ele>
        <time>2015-01-10T11:41:05Z</time>
      </trkpt>
      <trkpt lat="42.92361" lon="0.12056">
        <ele>2148.2896350799</ele>
        <time>2015-01-10T11:41:10Z</time>
      </trkpt>
      <trkpt lat="42.92363" lon="0.12056">
        <ele>2148.2896350799</ele>
        <time>2015-01-10T11:41:15Z</time>
      </trkpt>
      <trkpt lat="42.92365" lon="0.12057">
        <ele>2148.2896350799</ele>
        <time>2015-01-10T11:41:20Z</time>
      </trkpt>
      <trkpt lat="42.92367" lon="0.12058">
        <ele>2148.2896350799</ele>
        <time>2015-01-10T11:41:25Z</time>
      </trkpt>
      <trkpt lat="42.92367" lon="0.12058">
        <ele>2148.2896350799</ele>
        <time>2015-01-10T11:41:30Z</time>
      </trkpt>
      <trkpt lat="42.92368" lon="0.12058">
        <ele>2150.4107955494</ele>
        <time>2015-01-10T11:41:35Z</time>
      </trkpt>
      <trkpt lat="42.9237" lon="0.12056">
        <ele>2150.4107955494</ele>
        <time>2015-01-10T11:41:40Z</time>
      </trkpt>
      <trkpt lat="42.92375" lon="0.12051">
        <ele>2150.4107955494</ele>
        <time>2015-01-10T11:41:45Z</time>
      </trkpt>
      <trkpt lat="42.92376" lon="0.12047">
        <ele>2152.5917701418</ele>
        <time>2015-01-10T11:41:50Z</time>
      </trkpt>
      <trkpt lat="42.92377" lon="0.12044">
        <ele>2152.5917701418</ele>
        <time>2015-01-10T11:41:55Z</time>
      </trkpt>
      <trkpt lat="42.92375" lon="0.1204">
        <ele>2152.5917701418</ele>
        <time>2015-01-10T11:42:00Z</time>
      </trkpt>
      <trkpt lat="42.92375" lon="0.12035">
        <ele>2155.0165634999</ele>
        <time>2015-01-10T11:42:05Z</time>
      </trkpt>
      <trkpt lat="42.92374" lon="0.12028">
        <ele>2155.0165634999</ele>
        <time>2015-01-10T11:42:10Z</time>
      </trkpt>
      <trkpt lat="42.92374" lon="0.12023">
        <ele>2157.1344429858</ele>
        <time>2015-01-10T11:42:15Z</time>
      </trkpt>
      <trkpt lat="42.9237" lon="0.12026">
        <ele>2157.1344429858</ele>
        <time>2015-01-10T11:42:20Z</time>
      </trkpt>
      <trkpt lat="42.92373" lon="0.12028">
        <ele>2157.1344429858</ele>
        <time>2015-01-10T11:42:24Z</time>
      </trkpt>
      <trkpt lat="42.92378" lon="0.12028">
        <ele>2159.8915322402</ele>
        <time>2015-01-10T11:42:30Z</time>
      </trkpt>
      <trkpt lat="42.92383" lon="0.12028">
        <ele>2159.8915322402</ele>
        <time>2015-01-10T11:42:35Z</time>
      </trkpt>
      <trkpt lat="42.92388" lon="0.12029">
        <ele>2162.6783287117</ele>
        <time>2015-01-10T11:42:40Z</time>
      </trkpt>
      <trkpt lat="42.92389" lon="0.12029">
        <ele>2162.6783287117</ele>
        <time>2015-01-10T11:42:46Z</time>
      </trkpt>
      <trkpt lat="42.92393" lon="0.12029">
        <ele>2162.6783287117</ele>
        <time>2015-01-10T11:42:50Z</time>
      </trkpt>
      <trkpt lat="42.92402" lon="0.12031">
        <ele>2165.8811671897</ele>
        <time>2015-01-10T11:42:55Z</time>
      </trkpt>
      <trkpt lat="42.92403" lon="0.12031">
        <ele>2165.8811671897</ele>
        <time>2015-01-10T11:42:59Z</time>
      </trkpt>
      <trkpt lat="42.92403" lon="0.12032">
        <ele>2165.8811671897</ele>
        <time>2015-01-10T11:43:04Z</time>
      </trkpt>
      <trkpt lat="42.92401" lon="0.12033">
        <ele>2165.8811671897</ele>
        <time>2015-01-10T11:43:10Z</time>
      </trkpt>
      <trkpt lat="42.92403" lon="0.12035">
        <ele>2165.8811671897</ele>
        <time>2015-01-10T11:43:14Z</time>
      </trkpt>
      <trkpt lat="42.92401" lon="0.12035">
        <ele>2165.8811671897</ele>
        <time>2015-01-10T11:43:19Z</time>
      </trkpt>
      <trkpt lat="42.92404" lon="0.12027">
        <ele>2169.1218828783</ele>
        <time>2015-01-10T11:43:25Z</time>
      </trkpt>
      <trkpt lat="42.9241" lon="0.12022">
        <ele>2169.1218828783</ele>
        <time>2015-01-10T11:43:30Z</time>
      </trkpt>
      <trkpt lat="42.92412" lon="0.12017">
        <ele>2172.1652903261</ele>
        <time>2015-01-10T11:43:35Z</time>
      </trkpt>
      <trkpt lat="42.92417" lon="0.12015">
        <ele>2172.1652903261</ele>
        <time>2015-01-10T11:43:39Z</time>
      </trkpt>
      <trkpt lat="42.92422" lon="0.12015">
        <ele>2174.9381647087</ele>
        <time>2015-01-10T11:43:45Z</time>
      </trkpt>
      <trkpt lat="42.92425" lon="0.12015">
        <ele>2174.9381647087</ele>
        <time>2015-01-10T11:43:49Z</time>
      </trkpt>
      <trkpt lat="42.9243" lon="0.12015">
        <ele>2174.9381647087</ele>
        <time>2015-01-10T11:43:56Z</time>
      </trkpt>
      <trkpt lat="42.92433" lon="0.12017">
        <ele>2177.5896071757</ele>
        <time>2015-01-10T11:43:59Z</time>
      </trkpt>
      <trkpt lat="42.92438" lon="0.12017">
        <ele>2177.5896071757</ele>
        <time>2015-01-10T11:44:04Z</time>
      </trkpt>
      <trkpt lat="42.92443" lon="0.12017">
        <ele>2180.1428393974</ele>
        <time>2015-01-10T11:44:11Z</time>
      </trkpt>
      <trkpt lat="42.92445" lon="0.12016">
        <ele>2180.1428393974</ele>
        <time>2015-01-10T11:44:15Z</time>
      </trkpt>
      <trkpt lat="42.92446" lon="0.12017">
        <ele>2180.1428393974</ele>
        <time>2015-01-10T11:44:20Z</time>
      </trkpt>
      <trkpt lat="42.92451" lon="0.12016">
        <ele>2180.1428393974</ele>
        <time>2015-01-10T11:44:25Z</time>
      </trkpt>
      <trkpt lat="42.92451" lon="0.12016">
        <ele>2180.1428393974</ele>
        <time>2015-01-10T11:44:30Z</time>
      </trkpt>
      <trkpt lat="42.92461" lon="0.12018">
        <ele>2182.9078962393</ele>
        <time>2015-01-10T11:45:48Z</time>
      </trkpt>
      <trkpt lat="42.9246" lon="0.12018">
        <ele>2182.9078962393</ele>
        <time>2015-01-10T11:45:53Z</time>
      </trkpt>
      <trkpt lat="42.92467" lon="0.12015">
        <ele>2182.9078962393</ele>
        <time>2015-01-10T11:46:38Z</time>
      </trkpt>
      <trkpt lat="42.9247" lon="0.12014">
        <ele>2185.4220850233</ele>
        <time>2015-01-10T11:46:43Z</time>
      </trkpt>
      <trkpt lat="42.92473" lon="0.12015">
        <ele>2185.4220850233</ele>
        <time>2015-01-10T11:46:48Z</time>
      </trkpt>
      <trkpt lat="42.92477" lon="0.12015">
        <ele>2185.4220850233</ele>
        <time>2015-01-10T11:46:54Z</time>
      </trkpt>
      <trkpt lat="42.9248" lon="0.12014">
        <ele>2187.848279642</ele>
        <time>2015-01-10T11:47:00Z</time>
      </trkpt>
      <trkpt lat="42.9248" lon="0.12014">
        <ele>2187.848279642</ele>
        <time>2015-01-10T11:47:04Z</time>
      </trkpt>
      <trkpt lat="42.92489" lon="0.12019">
        <ele>2190.6114638234</ele>
        <time>2015-01-10T11:48:04Z</time>
      </trkpt>
      <trkpt lat="42.92489" lon="0.12019">
        <ele>2190.6114638234</ele>
        <time>2015-01-10T11:48:09Z</time>
      </trkpt>
      <trkpt lat="42.92494" lon="0.12022">
        <ele>2190.6114638234</ele>
        <time>2015-01-10T11:48:19Z</time>
      </trkpt>
      <trkpt lat="42.92496" lon="0.12022">
        <ele>2190.6114638234</ele>
        <time>2015-01-10T11:48:25Z</time>
      </trkpt>
      <trkpt lat="42.92499" lon="0.12023">
        <ele>2193.225393516</ele>
        <time>2015-01-10T11:48:30Z</time>
      </trkpt>
      <trkpt lat="42.92502" lon="0.12024">
        <ele>2193.225393516</ele>
        <time>2015-01-10T11:48:35Z</time>
      </trkpt>
      <trkpt lat="42.92506" lon="0.12025">
        <ele>2193.225393516</ele>
        <time>2015-01-10T11:48:41Z</time>
      </trkpt>
      <trkpt lat="42.92508" lon="0.12026">
        <ele>2195.6434866597</ele>
        <time>2015-01-10T11:48:44Z</time>
      </trkpt>
      <trkpt lat="42.92511" lon="0.12025">
        <ele>2195.6434866597</ele>
        <time>2015-01-10T11:48:50Z</time>
      </trkpt>
      <trkpt lat="42.92512" lon="0.12027">
        <ele>2195.6434866597</ele>
        <time>2015-01-10T11:48:55Z</time>
      </trkpt>
      <trkpt lat="42.92523" lon="0.12027">
        <ele>2198.2122438606</ele>
        <time>2015-01-10T11:49:04Z</time>
      </trkpt>
      <trkpt lat="42.92526" lon="0.12026">
        <ele>2198.2122438606</ele>
        <time>2015-01-10T11:49:11Z</time>
      </trkpt>
      <trkpt lat="42.92527" lon="0.12026">
        <ele>2198.2122438606</ele>
        <time>2015-01-10T11:49:15Z</time>
      </trkpt>
      <trkpt lat="42.92529" lon="0.12024">
        <ele>2198.2122438606</ele>
        <time>2015-01-10T11:49:20Z</time>
      </trkpt>
      <trkpt lat="42.9253" lon="0.12022">
        <ele>2198.2122438606</ele>
        <time>2015-01-10T11:49:25Z</time>
      </trkpt>
      <trkpt lat="42.92531" lon="0.12021">
        <ele>2200.9352547568</ele>
        <time>2015-01-10T11:49:31Z</time>
      </trkpt>
      <trkpt lat="42.92531" lon="0.12019">
        <ele>2200.9352547568</ele>
        <time>2015-01-10T11:49:35Z</time>
      </trkpt>
      <trkpt lat="42.92534" lon="0.12014">
        <ele>2200.9352547568</ele>
        <time>2015-01-10T11:49:46Z</time>
      </trkpt>
      <trkpt lat="42.92536" lon="0.1201">
        <ele>2203.5271987218</ele>
        <time>2015-01-10T11:49:50Z</time>
      </trkpt>
      <trkpt lat="42.92537" lon="0.12005">
        <ele>2203.5271987218</ele>
        <time>2015-01-10T11:49:55Z</time>
      </trkpt>
      <trkpt lat="42.92538" lon="0.12006">
        <ele>2203.5271987218</ele>
        <time>2015-01-10T11:50:00Z</time>
      </trkpt>
      <trkpt lat="42.92542" lon="0.12006">
        <ele>2205.9402559887</ele>
        <time>2015-01-10T11:50:10Z</time>
      </trkpt>
      <trkpt lat="42.92545" lon="0.12004">
        <ele>2205.9402559887</ele>
        <time>2015-01-10T11:50:15Z</time>
      </trkpt>
      <trkpt lat="42.92547" lon="0.12005">
        <ele>2205.9402559887</ele>
        <time>2015-01-10T11:50:20Z</time>
      </trkpt>
      <trkpt lat="42.92551" lon="0.12004">
        <ele>2205.9402559887</ele>
        <time>2015-01-10T11:50:25Z</time>
      </trkpt>
      <trkpt lat="42.92554" lon="0.12">
        <ele>2208.5053162274</ele>
        <time>2015-01-10T11:50:30Z</time>
      </trkpt>
      <trkpt lat="42.92555" lon="0.11996">
        <ele>2208.5053162274</ele>
        <time>2015-01-10T11:50:34Z</time>
      </trkpt>
      <trkpt lat="42.92558" lon="0.11994">
        <ele>2208.5053162274</ele>
        <time>2015-01-10T11:50:41Z</time>
      </trkpt>
      <trkpt lat="42.92559" lon="0.11992">
        <ele>2208.5053162274</ele>
        <time>2015-01-10T11:50:45Z</time>
      </trkpt>
      <trkpt lat="42.92563" lon="0.11991">
        <ele>2211.1394401416</ele>
        <time>2015-01-10T11:50:50Z</time>
      </trkpt>
      <trkpt lat="42.92563" lon="0.11992">
        <ele>2211.1394401416</ele>
        <time>2015-01-10T11:50:55Z</time>
      </trkpt>
      <trkpt lat="42.92565" lon="0.11988">
        <ele>2211.1394401416</ele>
        <time>2015-01-10T11:51:14Z</time>
      </trkpt>
      <trkpt lat="42.92568" lon="0.11984">
        <ele>2211.1394401416</ele>
        <time>2015-01-10T11:51:20Z</time>
      </trkpt>
      <trkpt lat="42.92569" lon="0.11979">
        <ele>2213.664712659</ele>
        <time>2015-01-10T11:51:25Z</time>
      </trkpt>
      <trkpt lat="42.9257" lon="0.11976">
        <ele>2213.664712659</ele>
        <time>2015-01-10T11:51:30Z</time>
      </trkpt>
      <trkpt lat="42.92573" lon="0.11973">
        <ele>2213.664712659</ele>
        <time>2015-01-10T11:51:35Z</time>
      </trkpt>
      <trkpt lat="42.92576" lon="0.11971">
        <ele>2215.9742395198</ele>
        <time>2015-01-10T11:51:40Z</time>
      </trkpt>
      <trkpt lat="42.92577" lon="0.11968">
        <ele>2215.9742395198</ele>
        <time>2015-01-10T11:51:45Z</time>
      </trkpt>
      <trkpt lat="42.92582" lon="0.11967">
        <ele>2215.9742395198</ele>
        <time>2015-01-10T11:51:50Z</time>
      </trkpt>
      <trkpt lat="42.92586" lon="0.11967">
        <ele>2218.1136946942</ele>
        <time>2015-01-10T11:51:55Z</time>
      </trkpt>
      <trkpt lat="42.9259" lon="0.11965">
        <ele>2218.1136946942</ele>
        <time>2015-01-10T11:52:00Z</time>
      </trkpt>
      <trkpt lat="42.92596" lon="0.11967">
        <ele>2220.0105815125</ele>
        <time>2015-01-10T11:52:05Z</time>
      </trkpt>
      <trkpt lat="42.92598" lon="0.11968">
        <ele>2220.0105815125</ele>
        <time>2015-01-10T11:52:09Z</time>
      </trkpt>
      <trkpt lat="42.92599" lon="0.11967">
        <ele>2220.0105815125</ele>
        <time>2015-01-10T11:52:15Z</time>
      </trkpt>
      <trkpt lat="42.92604" lon="0.11964">
        <ele>2220.0105815125</ele>
        <time>2015-01-10T11:52:50Z</time>
      </trkpt>
      <trkpt lat="42.92606" lon="0.11963">
        <ele>2221.8866239397</ele>
        <time>2015-01-10T11:52:54Z</time>
      </trkpt>
      <trkpt lat="42.92611" lon="0.11961">
        <ele>2221.8866239397</ele>
        <time>2015-01-10T11:53:00Z</time>
      </trkpt>
      <trkpt lat="42.92614" lon="0.11961">
        <ele>2221.8866239397</ele>
        <time>2015-01-10T11:53:04Z</time>
      </trkpt>
      <trkpt lat="42.92619" lon="0.11965">
        <ele>2223.6302592349</ele>
        <time>2015-01-10T11:53:11Z</time>
      </trkpt>
      <trkpt lat="42.92621" lon="0.11965">
        <ele>2223.6302592349</ele>
        <time>2015-01-10T11:53:15Z</time>
      </trkpt>
      <trkpt lat="42.92626" lon="0.11964">
        <ele>2223.6302592349</ele>
        <time>2015-01-10T11:53:20Z</time>
      </trkpt>
      <trkpt lat="42.92628" lon="0.11963">
        <ele>2223.6302592349</ele>
        <time>2015-01-10T11:53:25Z</time>
      </trkpt>
      <trkpt lat="42.92628" lon="0.11961">
        <ele>2225.3546395789</ele>
        <time>2015-01-10T11:53:30Z</time>
      </trkpt>
      <trkpt lat="42.92629" lon="0.11961">
        <ele>2225.3546395789</ele>
        <time>2015-01-10T11:53:35Z</time>
      </trkpt>
      <trkpt lat="42.92638" lon="0.11962">
        <ele>2227.020523326</ele>
        <time>2015-01-10T11:54:00Z</time>
      </trkpt>
      <trkpt lat="42.92643" lon="0.11964">
        <ele>2227.020523326</ele>
        <time>2015-01-10T11:54:05Z</time>
      </trkpt>
      <trkpt lat="42.92645" lon="0.11963">
        <ele>2227.020523326</ele>
        <time>2015-01-10T11:54:09Z</time>
      </trkpt>
      <trkpt lat="42.92648" lon="0.11966">
        <ele>2228.5484515656</ele>
        <time>2015-01-10T11:54:15Z</time>
      </trkpt>
      <trkpt lat="42.92651" lon="0.11969">
        <ele>2228.5484515656</ele>
        <time>2015-01-10T11:54:20Z</time>
      </trkpt>
      <trkpt lat="42.92657" lon="0.11971">
        <ele>2229.8795634229</ele>
        <time>2015-01-10T11:54:25Z</time>
      </trkpt>
      <trkpt lat="42.92662" lon="0.11971">
        <ele>2229.8795634229</ele>
        <time>2015-01-10T11:54:30Z</time>
      </trkpt>
      <trkpt lat="42.92661" lon="0.11969">
        <ele>2229.8795634229</ele>
        <time>2015-01-10T11:54:35Z</time>
      </trkpt>
      <trkpt lat="42.92663" lon="0.11969">
        <ele>2231.1759971363</ele>
        <time>2015-01-10T11:54:40Z</time>
      </trkpt>
      <trkpt lat="42.92665" lon="0.11969">
        <ele>2231.1759971363</ele>
        <time>2015-01-10T11:54:44Z</time>
      </trkpt>
      <trkpt lat="42.92672" lon="0.11972">
        <ele>2231.1759971363</ele>
        <time>2015-01-10T11:54:50Z</time>
      </trkpt>
      <trkpt lat="42.92675" lon="0.11973">
        <ele>2232.3718603409</ele>
        <time>2015-01-10T11:54:55Z</time>
      </trkpt>
      <trkpt lat="42.92677" lon="0.11973">
        <ele>2232.3718603409</ele>
        <time>2015-01-10T11:54:58Z</time>
      </trkpt>
      <trkpt lat="42.92677" lon="0.11972">
        <ele>2232.3718603409</ele>
        <time>2015-01-10T11:55:05Z</time>
      </trkpt>
      <trkpt lat="42.92678" lon="0.1197">
        <ele>2232.3718603409</ele>
        <time>2015-01-10T11:55:15Z</time>
      </trkpt>
      <trkpt lat="42.92683" lon="0.11969">
        <ele>2233.5072033573</ele>
        <time>2015-01-10T11:55:20Z</time>
      </trkpt>
      <trkpt lat="42.92684" lon="0.11963">
        <ele>2233.5072033573</ele>
        <time>2015-01-10T11:55:25Z</time>
      </trkpt>
      <trkpt lat="42.92687" lon="0.11961">
        <ele>2233.5072033573</ele>
        <time>2015-01-10T11:55:30Z</time>
      </trkpt>
      <trkpt lat="42.92689" lon="0.11957">
        <ele>2234.4895391944</ele>
        <time>2015-01-10T11:55:35Z</time>
      </trkpt>
      <trkpt lat="42.9269" lon="0.11956">
        <ele>2234.4895391944</ele>
        <time>2015-01-10T11:55:40Z</time>
      </trkpt>
      <trkpt lat="42.92697" lon="0.11958">
        <ele>2234.4895391944</ele>
        <time>2015-01-10T11:55:55Z</time>
      </trkpt>
      <trkpt lat="42.927" lon="0.11959">
        <ele>2235.2335316336</ele>
        <time>2015-01-10T11:56:00Z</time>
      </trkpt>
      <trkpt lat="42.92702" lon="0.11957">
        <ele>2235.2335316336</ele>
        <time>2015-01-10T11:56:05Z</time>
      </trkpt>
      <trkpt lat="42.92702" lon="0.11956">
        <ele>2235.2335316336</ele>
        <time>2015-01-10T11:56:10Z</time>
      </trkpt>
      <trkpt lat="42.92699" lon="0.11948">
        <ele>2236.5974253625</ele>
        <time>2015-01-10T11:56:35Z</time>
      </trkpt>
      <trkpt lat="42.92703" lon="0.11946">
        <ele>2236.5974253625</ele>
        <time>2015-01-10T11:56:40Z</time>
      </trkpt>
      <trkpt lat="42.92703" lon="0.11947">
        <ele>2236.5974253625</ele>
        <time>2015-01-10T11:56:45Z</time>
      </trkpt>
      <trkpt lat="42.92711" lon="0.11951">
        <ele>2238.7837406533</ele>
        <time>2015-01-10T11:59:16Z</time>
      </trkpt>
      <trkpt lat="42.92712" lon="0.11951">
        <ele>2238.7837406533</ele>
        <time>2015-01-10T11:59:21Z</time>
      </trkpt>
      <trkpt lat="42.92706" lon="0.11942">
        <ele>2241.1995281037</ele>
        <time>2015-01-10T12:00:33Z</time>
      </trkpt>
      <trkpt lat="42.92707" lon="0.11942">
        <ele>2241.1995281037</ele>
        <time>2015-01-10T12:00:38Z</time>
      </trkpt>
      <trkpt lat="42.92705" lon="0.1194">
        <ele>2241.1995281037</ele>
        <time>2015-01-10T12:02:55Z</time>
      </trkpt>
      <trkpt lat="42.9271" lon="0.11942">
        <ele>2241.1995281037</ele>
        <time>2015-01-10T12:03:00Z</time>
      </trkpt>
      <trkpt lat="42.92713" lon="0.11945">
        <ele>2243.381134921</ele>
        <time>2015-01-10T12:03:04Z</time>
      </trkpt>
      <trkpt lat="42.92717" lon="0.11944">
        <ele>2243.381134921</ele>
        <time>2015-01-10T12:03:10Z</time>
      </trkpt>
      <trkpt lat="42.92722" lon="0.11943">
        <ele>2243.381134921</ele>
        <time>2015-01-10T12:03:14Z</time>
      </trkpt>
      <trkpt lat="42.92726" lon="0.11942">
        <ele>2245.2309999161</ele>
        <time>2015-01-10T12:03:20Z</time>
      </trkpt>
      <trkpt lat="42.92731" lon="0.11942">
        <ele>2245.2309999161</ele>
        <time>2015-01-10T12:03:26Z</time>
      </trkpt>
      <trkpt lat="42.92734" lon="0.11941">
        <ele>2245.2309999161</ele>
        <time>2015-01-10T12:03:30Z</time>
      </trkpt>
      <trkpt lat="42.92738" lon="0.11941">
        <ele>2246.8036933348</ele>
        <time>2015-01-10T12:03:36Z</time>
      </trkpt>
      <trkpt lat="42.92741" lon="0.1194">
        <ele>2246.8036933348</ele>
        <time>2015-01-10T12:03:39Z</time>
      </trkpt>
      <trkpt lat="42.92738" lon="0.1194">
        <ele>2246.8036933348</ele>
        <time>2015-01-10T12:03:45Z</time>
      </trkpt>
      <trkpt lat="42.92745" lon="0.11937">
        <ele>2248.4387018487</ele>
        <time>2015-01-10T12:03:55Z</time>
      </trkpt>
      <trkpt lat="42.9275" lon="0.11938">
        <ele>2248.4387018487</ele>
        <time>2015-01-10T12:03:59Z</time>
      </trkpt>
      <trkpt lat="42.92755" lon="0.11938">
        <ele>2249.6865351873</ele>
        <time>2015-01-10T12:04:05Z</time>
      </trkpt>
      <trkpt lat="42.92756" lon="0.11936">
        <ele>2249.6865351873</ele>
        <time>2015-01-10T12:04:09Z</time>
      </trkpt>
      <trkpt lat="42.9276" lon="0.11936">
        <ele>2249.6865351873</ele>
        <time>2015-01-10T12:04:15Z</time>
      </trkpt>
      <trkpt lat="42.9276" lon="0.11936">
        <ele>2249.6865351873</ele>
        <time>2015-01-10T12:04:20Z</time>
      </trkpt>
      <trkpt lat="42.92763" lon="0.11936">
        <ele>2249.6865351873</ele>
        <time>2015-01-10T12:04:25Z</time>
      </trkpt>
      <trkpt lat="42.92764" lon="0.11934">
        <ele>2250.8955222792</ele>
        <time>2015-01-10T12:04:29Z</time>
      </trkpt>
      <trkpt lat="42.92767" lon="0.1193">
        <ele>2250.8955222792</ele>
        <time>2015-01-10T12:04:33Z</time>
      </trkpt>
      <trkpt lat="42.9277" lon="0.11929">
        <ele>2250.8955222792</ele>
        <time>2015-01-10T12:04:39Z</time>
      </trkpt>
      <trkpt lat="42.92772" lon="0.11927">
        <ele>2252.0713911927</ele>
        <time>2015-01-10T12:04:46Z</time>
      </trkpt>
      <trkpt lat="42.92774" lon="0.11925">
        <ele>2252.0713911927</ele>
        <time>2015-01-10T12:04:50Z</time>
      </trkpt>
      <trkpt lat="42.92777" lon="0.11924">
        <ele>2252.0713911927</ele>
        <time>2015-01-10T12:04:55Z</time>
      </trkpt>
      <trkpt lat="42.9278" lon="0.11922">
        <ele>2252.0713911927</ele>
        <time>2015-01-10T12:05:01Z</time>
      </trkpt>
      <trkpt lat="42.92782" lon="0.11922">
        <ele>2253.2338737286</ele>
        <time>2015-01-10T12:05:04Z</time>
      </trkpt>
      <trkpt lat="42.92787" lon="0.11923">
        <ele>2253.2338737286</ele>
        <time>2015-01-10T12:05:10Z</time>
      </trkpt>
      <trkpt lat="42.9279" lon="0.11922">
        <ele>2253.2338737286</ele>
        <time>2015-01-10T12:05:15Z</time>
      </trkpt>
      <trkpt lat="42.92792" lon="0.1192">
        <ele>2254.3003297072</ele>
        <time>2015-01-10T12:05:20Z</time>
      </trkpt>
      <trkpt lat="42.92797" lon="0.1192">
        <ele>2254.3003297072</ele>
        <time>2015-01-10T12:05:25Z</time>
      </trkpt>
      <trkpt lat="42.928" lon="0.11918">
        <ele>2254.3003297072</ele>
        <time>2015-01-10T12:05:30Z</time>
      </trkpt>
      <trkpt lat="42.92805" lon="0.11918">
        <ele>2255.3240742365</ele>
        <time>2015-01-10T12:05:35Z</time>
      </trkpt>
      <trkpt lat="42.92807" lon="0.11917">
        <ele>2255.3240742365</ele>
        <time>2015-01-10T12:05:40Z</time>
      </trkpt>
      <trkpt lat="42.92809" lon="0.11914">
        <ele>2255.3240742365</ele>
        <time>2015-01-10T12:05:45Z</time>
      </trkpt>
      <trkpt lat="42.92812" lon="0.11914">
        <ele>2255.3240742365</ele>
        <time>2015-01-10T12:05:50Z</time>
      </trkpt>
      <trkpt lat="42.92818" lon="0.11918">
        <ele>2256.2824827209</ele>
        <time>2015-01-10T12:05:55Z</time>
      </trkpt>
      <trkpt lat="42.92819" lon="0.11919">
        <ele>2256.2824827209</ele>
        <time>2015-01-10T12:05:59Z</time>
      </trkpt>
      <trkpt lat="42.92823" lon="0.11915">
        <ele>2256.2824827209</ele>
        <time>2015-01-10T12:06:05Z</time>
      </trkpt>
      <trkpt lat="42.9282" lon="0.11909">
        <ele>2257.0826300209</ele>
        <time>2015-01-10T12:06:10Z</time>
      </trkpt>
      <trkpt lat="42.92819" lon="0.11909">
        <ele>2257.0826300209</ele>
        <time>2015-01-10T12:06:15Z</time>
      </trkpt>
      <trkpt lat="42.92822" lon="0.11913">
        <ele>2257.0826300209</ele>
        <time>2015-01-10T12:06:25Z</time>
      </trkpt>
      <trkpt lat="42.92824" lon="0.11911">
        <ele>2257.0826300209</ele>
        <time>2015-01-10T12:06:30Z</time>
      </trkpt>
      <trkpt lat="42.92828" lon="0.11909">
        <ele>2257.7252345093</ele>
        <time>2015-01-10T12:06:35Z</time>
      </trkpt>
      <trkpt lat="42.92829" lon="0.11908">
        <ele>2257.7252345093</ele>
        <time>2015-01-10T12:06:40Z</time>
      </trkpt>
      <trkpt lat="42.92831" lon="0.11909">
        <ele>2257.7252345093</ele>
        <time>2015-01-10T12:06:45Z</time>
      </trkpt>
      <trkpt lat="42.92836" lon="0.11913">
        <ele>2258.297773589</ele>
        <time>2015-01-10T12:06:51Z</time>
      </trkpt>
      <trkpt lat="42.92841" lon="0.11915">
        <ele>2258.297773589</ele>
        <time>2015-01-10T12:06:54Z</time>
      </trkpt>
      <trkpt lat="42.92846" lon="0.11914">
        <ele>2258.7516943349</ele>
        <time>2015-01-10T12:07:01Z</time>
      </trkpt>
      <trkpt lat="42.92845" lon="0.11913">
        <ele>2258.7516943349</ele>
        <time>2015-01-10T12:07:05Z</time>
      </trkpt>
      <trkpt lat="42.92847" lon="0.11909">
        <ele>2258.7516943349</ele>
        <time>2015-01-10T12:07:20Z</time>
      </trkpt>
      <trkpt lat="42.92852" lon="0.1191">
        <ele>2259.0134157218</ele>
        <time>2015-01-10T12:07:25Z</time>
      </trkpt>
      <trkpt lat="42.92859" lon="0.11911">
        <ele>2259.0134157218</ele>
        <time>2015-01-10T12:07:30Z</time>
      </trkpt>
      <trkpt lat="42.92862" lon="0.11911">
        <ele>2259.1304798103</ele>
        <time>2015-01-10T12:07:35Z</time>
      </trkpt>
      <trkpt lat="42.92864" lon="0.1191">
        <ele>2259.1304798103</ele>
        <time>2015-01-10T12:07:40Z</time>
      </trkpt>
      <trkpt lat="42.92868" lon="0.11908">
        <ele>2259.1304798103</ele>
        <time>2015-01-10T12:07:45Z</time>
      </trkpt>
      <trkpt lat="42.92869" lon="0.11907">
        <ele>2259.1304798103</ele>
        <time>2015-01-10T12:07:50Z</time>
      </trkpt>
      <trkpt lat="42.9287" lon="0.11904">
        <ele>2259.3201601816</ele>
        <time>2015-01-10T12:07:55Z</time>
      </trkpt>
      <trkpt lat="42.92873" lon="0.11903">
        <ele>2259.3201601816</ele>
        <time>2015-01-10T12:08:00Z</time>
      </trkpt>
      <trkpt lat="42.92877" lon="0.11904">
        <ele>2259.3201601816</ele>
        <time>2015-01-10T12:08:05Z</time>
      </trkpt>
      <trkpt lat="42.9288" lon="0.11903">
        <ele>2259.567278951</ele>
        <time>2015-01-10T12:08:10Z</time>
      </trkpt>
      <trkpt lat="42.9288" lon="0.11906">
        <ele>2259.567278951</ele>
        <time>2015-01-10T12:08:14Z</time>
      </trkpt>
      <trkpt lat="42.92879" lon="0.119">
        <ele>2259.567278951</ele>
        <time>2015-01-10T12:08:40Z</time>
      </trkpt>
      <trkpt lat="42.92883" lon="0.119">
        <ele>2260.1601213696</ele>
        <time>2015-01-10T12:08:45Z</time>
      </trkpt>
      <trkpt lat="42.92887" lon="0.11901">
        <ele>2260.1601213696</ele>
        <time>2015-01-10T12:08:50Z</time>
      </trkpt>
      <trkpt lat="42.92891" lon="0.119">
        <ele>2260.1601213696</ele>
        <time>2015-01-10T12:08:56Z</time>
      </trkpt>
      <trkpt lat="42.92901" lon="0.11903">
        <ele>2260.5144424095</ele>
        <time>2015-01-10T12:09:05Z</time>
      </trkpt>
      <trkpt lat="42.92904" lon="0.11901">
        <ele>2260.5144424095</ele>
        <time>2015-01-10T12:09:10Z</time>
      </trkpt>
      <trkpt lat="42.92909" lon="0.11901">
        <ele>2260.5144424095</ele>
        <time>2015-01-10T12:09:15Z</time>
      </trkpt>
      <trkpt lat="42.9291" lon="0.11903">
        <ele>2260.7667775874</ele>
        <time>2015-01-10T12:09:21Z</time>
      </trkpt>
      <trkpt lat="42.92911" lon="0.11904">
        <ele>2260.7667775874</ele>
        <time>2015-01-10T12:09:25Z</time>
      </trkpt>
      <trkpt lat="42.92914" lon="0.11898">
        <ele>2260.7667775874</ele>
        <time>2015-01-10T12:09:40Z</time>
      </trkpt>
      <trkpt lat="42.92916" lon="0.11895">
        <ele>2260.8132097271</ele>
        <time>2015-01-10T12:09:45Z</time>
      </trkpt>
      <trkpt lat="42.9292" lon="0.11896">
        <ele>2260.8132097271</ele>
        <time>2015-01-10T12:09:50Z</time>
      </trkpt>
      <trkpt lat="42.92923" lon="0.11897">
        <ele>2260.8132097271</ele>
        <time>2015-01-10T12:09:55Z</time>
      </trkpt>
      <trkpt lat="42.92929" lon="0.11901">
        <ele>2260.7452444632</ele>
        <time>2015-01-10T12:10:00Z</time>
      </trkpt>
      <trkpt lat="42.92931" lon="0.11898">
        <ele>2260.7452444632</ele>
        <time>2015-01-10T12:10:05Z</time>
      </trkpt>
      <trkpt lat="42.92934" lon="0.11899">
        <ele>2260.7452444632</ele>
        <time>2015-01-10T12:10:10Z</time>
      </trkpt>
      <trkpt lat="42.92938" lon="0.11901">
        <ele>2260.4316837353</ele>
        <time>2015-01-10T12:10:15Z</time>
      </trkpt>
      <trkpt lat="42.92939" lon="0.11901">
        <ele>2260.4316837353</ele>
        <time>2015-01-10T12:10:20Z</time>
      </trkpt>
      <trkpt lat="42.9294" lon="0.11902">
        <ele>2260.4316837353</ele>
        <time>2015-01-10T12:10:25Z</time>
      </trkpt>
      <trkpt lat="42.9295" lon="0.11908">
        <ele>2260.198261649</ele>
        <time>2015-01-10T12:10:41Z</time>
      </trkpt>
      <trkpt lat="42.92955" lon="0.11911">
        <ele>2260.198261649</ele>
        <time>2015-01-10T12:10:45Z</time>
      </trkpt>
      <trkpt lat="42.92959" lon="0.11912">
        <ele>2259.8852607654</ele>
        <time>2015-01-10T12:10:50Z</time>
      </trkpt>
      <trkpt lat="42.92962" lon="0.11911">
        <ele>2259.8852607654</ele>
        <time>2015-01-10T12:10:55Z</time>
      </trkpt>
      <trkpt lat="42.9296" lon="0.11909">
        <ele>2259.8852607654</ele>
        <time>2015-01-10T12:11:00Z</time>
      </trkpt>
      <trkpt lat="42.9296" lon="0.11907">
        <ele>2259.8852607654</ele>
        <time>2015-01-10T12:11:05Z</time>
      </trkpt>
      <trkpt lat="42.92961" lon="0.11905">
        <ele>2259.8852607654</ele>
        <time>2015-01-10T12:11:10Z</time>
      </trkpt>
      <trkpt lat="42.92962" lon="0.11903">
        <ele>2259.3735952694</ele>
        <time>2015-01-10T12:11:15Z</time>
      </trkpt>
      <trkpt lat="42.92966" lon="0.11902">
        <ele>2259.3735952694</ele>
        <time>2015-01-10T12:11:20Z</time>
      </trkpt>
      <trkpt lat="42.92968" lon="0.11901">
        <ele>2259.3735952694</ele>
        <time>2015-01-10T12:11:25Z</time>
      </trkpt>
      <trkpt lat="42.9297" lon="0.11901">
        <ele>2259.3735952694</ele>
        <time>2015-01-10T12:11:30Z</time>
      </trkpt>
      <trkpt lat="42.92973" lon="0.11899">
        <ele>2258.7695009158</ele>
        <time>2015-01-10T12:11:35Z</time>
      </trkpt>
      <trkpt lat="42.92976" lon="0.119">
        <ele>2258.7695009158</ele>
        <time>2015-01-10T12:11:40Z</time>
      </trkpt>
      <trkpt lat="42.92983" lon="0.11902">
        <ele>2258.4885596967</ele>
        <time>2015-01-10T12:12:15Z</time>
      </trkpt>
      <trkpt lat="42.9299" lon="0.11895">
        <ele>2258.4885596967</ele>
        <time>2015-01-10T12:12:45Z</time>
      </trkpt>
      <trkpt lat="42.92993" lon="0.11894">
        <ele>2258.5688961873</ele>
        <time>2015-01-10T12:12:50Z</time>
      </trkpt>
      <trkpt lat="42.92997" lon="0.11891">
        <ele>2258.5688961873</ele>
        <time>2015-01-10T12:12:56Z</time>
      </trkpt>
      <trkpt lat="42.92998" lon="0.1189">
        <ele>2258.5688961873</ele>
        <time>2015-01-10T12:13:00Z</time>
      </trkpt>
      <trkpt lat="42.92999" lon="0.11889">
        <ele>2258.5688961873</ele>
        <time>2015-01-10T12:13:04Z</time>
      </trkpt>
      <trkpt lat="42.93005" lon="0.119">
        <ele>2258.7276200238</ele>
        <time>2015-01-10T12:13:15Z</time>
      </trkpt>
      <trkpt lat="42.93003" lon="0.11894">
        <ele>2258.7276200238</ele>
        <time>2015-01-10T12:13:54Z</time>
      </trkpt>
      <trkpt lat="42.93002" lon="0.11895">
        <ele>2258.7276200238</ele>
        <time>2015-01-10T12:14:00Z</time>
      </trkpt>
      <trkpt lat="42.93" lon="0.11896">
        <ele>2258.7276200238</ele>
        <time>2015-01-10T12:14:05Z</time>
      </trkpt>
      <trkpt lat="42.92998" lon="0.11896">
        <ele>2259.9271936358</ele>
        <time>2015-01-10T12:14:10Z</time>
      </trkpt>
      <trkpt lat="42.92998" lon="0.11896">
        <ele>2259.9271936358</ele>
        <time>2015-01-10T12:14:15Z</time>
      </trkpt>
      <trkpt lat="42.93" lon="0.11895">
        <ele>2259.9271936358</ele>
        <time>2015-01-10T12:14:18Z</time>
      </trkpt>
      <trkpt lat="42.93001" lon="0.11896">
        <ele>2259.9271936358</ele>
        <time>2015-01-10T12:14:25Z</time>
      </trkpt>
      <trkpt lat="42.93004" lon="0.11897">
        <ele>2259.9271936358</ele>
        <time>2015-01-10T12:14:30Z</time>
      </trkpt>
      <trkpt lat="42.93006" lon="0.11899">
        <ele>2261.2693322742</ele>
        <time>2015-01-10T12:14:35Z</time>
      </trkpt>
      <trkpt lat="42.9301" lon="0.119">
        <ele>2261.2693322742</ele>
        <time>2015-01-10T12:14:40Z</time>
      </trkpt>
      <trkpt lat="42.93012" lon="0.11903">
        <ele>2261.2693322742</ele>
        <time>2015-01-10T12:14:45Z</time>
      </trkpt>
      <trkpt lat="42.93012" lon="0.11903">
        <ele>2261.2693322742</ele>
        <time>2015-01-10T12:14:49Z</time>
      </trkpt>
      <trkpt lat="42.93014" lon="0.1191">
        <ele>2263.3334917392</ele>
        <time>2015-01-10T12:15:44Z</time>
      </trkpt>
      <trkpt lat="42.93012" lon="0.11911">
        <ele>2263.3334917392</ele>
        <time>2015-01-10T12:15:50Z</time>
      </trkpt>
      <trkpt lat="42.9301" lon="0.11914">
        <ele>2263.3334917392</ele>
        <time>2015-01-10T12:15:55Z</time>
      </trkpt>
      <trkpt lat="42.93008" lon="0.11917">
        <ele>2263.3334917392</ele>
        <time>2015-01-10T12:16:00Z</time>
      </trkpt>
      <trkpt lat="42.93006" lon="0.11918">
        <ele>2265.5159349828</ele>
        <time>2015-01-10T12:16:05Z</time>
      </trkpt>
      <trkpt lat="42.93003" lon="0.1192">
        <ele>2265.5159349828</ele>
        <time>2015-01-10T12:16:10Z</time>
      </trkpt>
      <trkpt lat="42.93" lon="0.11923">
        <ele>2265.5159349828</ele>
        <time>2015-01-10T12:16:15Z</time>
      </trkpt>
      <trkpt lat="42.92999" lon="0.11927">
        <ele>2267.7324039559</ele>
        <time>2015-01-10T12:16:20Z</time>
      </trkpt>
      <trkpt lat="42.92997" lon="0.1193">
        <ele>2267.7324039559</ele>
        <time>2015-01-10T12:16:25Z</time>
      </trkpt>
      <trkpt lat="42.92993" lon="0.11932">
        <ele>2267.7324039559</ele>
        <time>2015-01-10T12:16:30Z</time>
      </trkpt>
      <trkpt lat="42.9299" lon="0.11935">
        <ele>2269.9478793112</ele>
        <time>2015-01-10T12:16:35Z</time>
      </trkpt>
      <trkpt lat="42.92988" lon="0.11937">
        <ele>2269.9478793112</ele>
        <time>2015-01-10T12:16:39Z</time>
      </trkpt>
      <trkpt lat="42.92987" lon="0.11935">
        <ele>2269.9478793112</ele>
        <time>2015-01-10T12:16:45Z</time>
      </trkpt>
      <trkpt lat="42.92984" lon="0.11943">
        <ele>2272.31719071</ele>
        <time>2015-01-10T12:17:05Z</time>
      </trkpt>
      <trkpt lat="42.92988" lon="0.11946">
        <ele>2272.31719071</ele>
        <time>2015-01-10T12:17:10Z</time>
      </trkpt>
      <trkpt lat="42.9299" lon="0.11947">
        <ele>2272.31719071</ele>
        <time>2015-01-10T12:17:15Z</time>
      </trkpt>
      <trkpt lat="42.92993" lon="0.11948">
        <ele>2274.5221529722</ele>
        <time>2015-01-10T12:17:20Z</time>
      </trkpt>
      <trkpt lat="42.92998" lon="0.11949">
        <ele>2274.5221529722</ele>
        <time>2015-01-10T12:17:25Z</time>
      </trkpt>
      <trkpt lat="42.93" lon="0.11951">
        <ele>2274.5221529722</ele>
        <time>2015-01-10T12:18:00Z</time>
      </trkpt>
      <trkpt lat="42.93002" lon="0.11953">
        <ele>2276.3692549499</ele>
        <time>2015-01-10T12:18:05Z</time>
      </trkpt>
      <trkpt lat="42.93005" lon="0.11955">
        <ele>2276.3692549499</ele>
        <time>2015-01-10T12:18:10Z</time>
      </trkpt>
      <trkpt lat="42.93009" lon="0.11958">
        <ele>2276.3692549499</ele>
        <time>2015-01-10T12:18:15Z</time>
      </trkpt>
      <trkpt lat="42.93011" lon="0.11961">
        <ele>2278.1557465927</ele>
        <time>2015-01-10T12:18:20Z</time>
      </trkpt>
      <trkpt lat="42.93014" lon="0.11964">
        <ele>2278.1557465927</ele>
        <time>2015-01-10T12:18:25Z</time>
      </trkpt>
      <trkpt lat="42.93015" lon="0.11965">
        <ele>2278.1557465927</ele>
        <time>2015-01-10T12:18:30Z</time>
      </trkpt>
      <trkpt lat="42.93016" lon="0.11967">
        <ele>2278.1557465927</ele>
        <time>2015-01-10T12:18:35Z</time>
      </trkpt>
      <trkpt lat="42.93026" lon="0.11971">
        <ele>2280.5607113001</ele>
        <time>2015-01-10T12:19:20Z</time>
      </trkpt>
      <trkpt lat="42.93029" lon="0.11972">
        <ele>2280.5607113001</ele>
        <time>2015-01-10T12:19:25Z</time>
      </trkpt>
      <trkpt lat="42.93029" lon="0.11973">
        <ele>2280.5607113001</ele>
        <time>2015-01-10T12:19:30Z</time>
      </trkpt>
      <trkpt lat="42.93028" lon="0.11972">
        <ele>2280.5607113001</ele>
        <time>2015-01-10T12:19:45Z</time>
      </trkpt>
      <trkpt lat="42.93024" lon="0.11976">
        <ele>2283.4622348199</ele>
        <time>2015-01-10T12:19:55Z</time>
      </trkpt>
      <trkpt lat="42.93022" lon="0.11978">
        <ele>2283.4622348199</ele>
        <time>2015-01-10T12:20:00Z</time>
      </trkpt>
      <trkpt lat="42.93021" lon="0.1198">
        <ele>2283.4622348199</ele>
        <time>2015-01-10T12:20:05Z</time>
      </trkpt>
      <trkpt lat="42.9302" lon="0.11981">
        <ele>2283.4622348199</ele>
        <time>2015-01-10T12:20:10Z</time>
      </trkpt>
      <trkpt lat="42.93019" lon="0.1198">
        <ele>2283.4622348199</ele>
        <time>2015-01-10T12:20:15Z</time>
      </trkpt>
      <trkpt lat="42.93018" lon="0.11981">
        <ele>2283.4622348199</ele>
        <time>2015-01-10T12:20:20Z</time>
      </trkpt>
      <trkpt lat="42.93017" lon="0.11984">
        <ele>2286.7171574133</ele>
        <time>2015-01-10T12:20:25Z</time>
      </trkpt>
      <trkpt lat="42.93016" lon="0.11987">
        <ele>2286.7171574133</ele>
        <time>2015-01-10T12:20:29Z</time>
      </trkpt>
      <trkpt lat="42.93014" lon="0.11987">
        <ele>2286.7171574133</ele>
        <time>2015-01-10T12:20:35Z</time>
      </trkpt>
      <trkpt lat="42.93011" lon="0.11988">
        <ele>2286.7171574133</ele>
        <time>2015-01-10T12:20:40Z</time>
      </trkpt>
      <trkpt lat="42.9301" lon="0.11989">
        <ele>2286.7171574133</ele>
        <time>2015-01-10T12:20:45Z</time>
      </trkpt>
      <trkpt lat="42.93009" lon="0.11988">
        <ele>2290.6097969506</ele>
        <time>2015-01-10T12:21:10Z</time>
      </trkpt>
      <trkpt lat="42.93006" lon="0.1199">
        <ele>2290.6097969506</ele>
        <time>2015-01-10T12:21:15Z</time>
      </trkpt>
      <trkpt lat="42.93003" lon="0.11992">
        <ele>2290.6097969506</ele>
        <time>2015-01-10T12:21:20Z</time>
      </trkpt>
      <trkpt lat="42.93001" lon="0.11993">
        <ele>2290.6097969506</ele>
        <time>2015-01-10T12:21:25Z</time>
      </trkpt>
      <trkpt lat="42.92998" lon="0.11997">
        <ele>2294.3786554608</ele>
        <time>2015-01-10T12:21:29Z</time>
      </trkpt>
      <trkpt lat="42.92996" lon="0.11999">
        <ele>2294.3786554608</ele>
        <time>2015-01-10T12:21:35Z</time>
      </trkpt>
      <trkpt lat="42.92993" lon="0.12001">
        <ele>2294.3786554608</ele>
        <time>2015-01-10T12:21:40Z</time>
      </trkpt>
      <trkpt lat="42.92992" lon="0.12001">
        <ele>2294.3786554608</ele>
        <time>2015-01-10T12:21:45Z</time>
      </trkpt>
      <trkpt lat="42.93" lon="0.12013">
        <ele>2298.6011788936</ele>
        <time>2015-01-10T12:22:21Z</time>
      </trkpt>
      <trkpt lat="42.93" lon="0.12013">
        <ele>2298.6011788936</ele>
        <time>2015-01-10T12:22:25Z</time>
      </trkpt>
      <trkpt lat="42.93009" lon="0.12017">
        <ele>2302.8312541181</ele>
        <time>2015-01-10T12:23:20Z</time>
      </trkpt>
      <trkpt lat="42.93009" lon="0.12018">
        <ele>2302.8312541181</ele>
        <time>2015-01-10T12:23:25Z</time>
      </trkpt>
      <trkpt lat="42.93015" lon="0.12023">
        <ele>2302.8312541181</ele>
        <time>2015-01-10T12:23:45Z</time>
      </trkpt>
      <trkpt lat="42.93018" lon="0.12024">
        <ele>2306.972670799</ele>
        <time>2015-01-10T12:23:50Z</time>
      </trkpt>
      <trkpt lat="42.93018" lon="0.12024">
        <ele>2306.972670799</ele>
        <time>2015-01-10T12:23:55Z</time>
      </trkpt>
      <trkpt lat="42.93013" lon="0.12024">
        <ele>2306.972670799</ele>
        <time>2015-01-10T12:24:05Z</time>
      </trkpt>
      <trkpt lat="42.93012" lon="0.12024">
        <ele>2306.972670799</ele>
        <time>2015-01-10T12:24:10Z</time>
      </trkpt>
      <trkpt lat="42.93008" lon="0.12026">
        <ele>2311.3978179421</ele>
        <time>2015-01-10T12:24:20Z</time>
      </trkpt>
      <trkpt lat="42.93006" lon="0.12028">
        <ele>2311.3978179421</ele>
        <time>2015-01-10T12:24:25Z</time>
      </trkpt>
      <trkpt lat="42.93004" lon="0.12028">
        <ele>2311.3978179421</ele>
        <time>2015-01-10T12:24:30Z</time>
      </trkpt>
      <trkpt lat="42.92998" lon="0.12035">
        <ele>2315.7305225955</ele>
        <time>2015-01-10T12:24:50Z</time>
      </trkpt>
      <trkpt lat="42.92995" lon="0.12039">
        <ele>2315.7305225955</ele>
        <time>2015-01-10T12:24:55Z</time>
      </trkpt>
      <trkpt lat="42.92995" lon="0.12039">
        <ele>2315.7305225955</ele>
        <time>2015-01-10T12:24:59Z</time>
      </trkpt>
      <trkpt lat="42.9299" lon="0.12043">
        <ele>2319.7667769736</ele>
        <time>2015-01-10T12:25:06Z</time>
      </trkpt>
      <trkpt lat="42.92989" lon="0.12047">
        <ele>2319.7667769736</ele>
        <time>2015-01-10T12:25:09Z</time>
      </trkpt>
      <trkpt lat="42.92985" lon="0.12046">
        <ele>2319.7667769736</ele>
        <time>2015-01-10T12:25:15Z</time>
      </trkpt>
      <trkpt lat="42.92985" lon="0.12045">
        <ele>2319.7667769736</ele>
        <time>2015-01-10T12:25:20Z</time>
      </trkpt>
      <trkpt lat="42.92985" lon="0.12047">
        <ele>2323.765311074</ele>
        <time>2015-01-10T12:25:35Z</time>
      </trkpt>
      <trkpt lat="42.92983" lon="0.1205">
        <ele>2323.765311074</ele>
        <time>2015-01-10T12:25:40Z</time>
      </trkpt>
      <trkpt lat="42.92984" lon="0.12052">
        <ele>2323.765311074</ele>
        <time>2015-01-10T12:25:45Z</time>
      </trkpt>
      <trkpt lat="42.9299" lon="0.12058">
        <ele>2327.6635081366</ele>
        <time>2015-01-10T12:26:10Z</time>
      </trkpt>
      <trkpt lat="42.92993" lon="0.12058">
        <ele>2327.6635081366</ele>
        <time>2015-01-10T12:26:14Z</time>
      </trkpt>
      <trkpt lat="42.92999" lon="0.12058">
        <ele>2327.6635081366</ele>
        <time>2015-01-10T12:26:20Z</time>
      </trkpt>
      <trkpt lat="42.93002" lon="0.12057">
        <ele>2331.173250544</ele>
        <time>2015-01-10T12:26:25Z</time>
      </trkpt>
      <trkpt lat="42.93005" lon="0.12058">
        <ele>2331.173250544</ele>
        <time>2015-01-10T12:26:30Z</time>
      </trkpt>
      <trkpt lat="42.93011" lon="0.12062">
        <ele>2334.3891547622</ele>
        <time>2015-01-10T12:26:35Z</time>
      </trkpt>
      <trkpt lat="42.93012" lon="0.12063">
        <ele>2334.3891547622</ele>
        <time>2015-01-10T12:26:40Z</time>
      </trkpt>
      <trkpt lat="42.93012" lon="0.12064">
        <ele>2334.3891547622</ele>
        <time>2015-01-10T12:26:45Z</time>
      </trkpt>
      <trkpt lat="42.93016" lon="0.12067">
        <ele>2334.3891547622</ele>
        <time>2015-01-10T12:27:00Z</time>
      </trkpt>
      <trkpt lat="42.93017" lon="0.12067">
        <ele>2334.3891547622</ele>
        <time>2015-01-10T12:27:05Z</time>
      </trkpt>
      <trkpt lat="42.93021" lon="0.12067">
        <ele>2337.6304937367</ele>
        <time>2015-01-10T12:27:15Z</time>
      </trkpt>
      <trkpt lat="42.93023" lon="0.12067">
        <ele>2337.6304937367</ele>
        <time>2015-01-10T12:27:20Z</time>
      </trkpt>
      <trkpt lat="42.93022" lon="0.12067">
        <ele>2337.6304937367</ele>
        <time>2015-01-10T12:27:25Z</time>
      </trkpt>
      <trkpt lat="42.93022" lon="0.12063">
        <ele>2337.6304937367</ele>
        <time>2015-01-10T12:27:35Z</time>
      </trkpt>
      <trkpt lat="42.9302" lon="0.12066">
        <ele>2337.6304937367</ele>
        <time>2015-01-10T12:27:50Z</time>
      </trkpt>
      <trkpt lat="42.93018" lon="0.12068">
        <ele>2341.1788105976</ele>
        <time>2015-01-10T12:27:55Z</time>
      </trkpt>
      <trkpt lat="42.93014" lon="0.1207">
        <ele>2341.1788105976</ele>
        <time>2015-01-10T12:28:00Z</time>
      </trkpt>
      <trkpt lat="42.93015" lon="0.12071">
        <ele>2341.1788105976</ele>
        <time>2015-01-10T12:28:04Z</time>
      </trkpt>
      <trkpt lat="42.93015" lon="0.12071">
        <ele>2341.1788105976</ele>
        <time>2015-01-10T12:28:10Z</time>
      </trkpt>
      <trkpt lat="42.93008" lon="0.12073">
        <ele>2345.0349121004</ele>
        <time>2015-01-10T12:28:30Z</time>
      </trkpt>
      <trkpt lat="42.93008" lon="0.12076">
        <ele>2345.0349121004</ele>
        <time>2015-01-10T12:28:35Z</time>
      </trkpt>
      <trkpt lat="42.93008" lon="0.1208">
        <ele>2345.0349121004</ele>
        <time>2015-01-10T12:28:42Z</time>
      </trkpt>
      <trkpt lat="42.93007" lon="0.12084">
        <ele>2345.0349121004</ele>
        <time>2015-01-10T12:28:43Z</time>
      </trkpt>
      <trkpt lat="42.93002" lon="0.12088">
        <ele>2348.5936224224</ele>
        <time>2015-01-10T12:28:51Z</time>
      </trkpt>
      <trkpt lat="42.93" lon="0.12092">
        <ele>2348.5936224224</ele>
        <time>2015-01-10T12:28:55Z</time>
      </trkpt>
      <trkpt lat="42.93" lon="0.12096">
        <ele>2348.5936224224</ele>
        <time>2015-01-10T12:29:00Z</time>
      </trkpt>
      <trkpt lat="42.92997" lon="0.121">
        <ele>2351.857296294</ele>
        <time>2015-01-10T12:29:05Z</time>
      </trkpt>
      <trkpt lat="42.92996" lon="0.12103">
        <ele>2351.857296294</ele>
        <time>2015-01-10T12:29:10Z</time>
      </trkpt>
      <trkpt lat="42.92994" lon="0.12104">
        <ele>2351.857296294</ele>
        <time>2015-01-10T12:29:15Z</time>
      </trkpt>
      <trkpt lat="42.92994" lon="0.12113">
        <ele>2355.0164936099</ele>
        <time>2015-01-10T12:29:55Z</time>
      </trkpt>
      <trkpt lat="42.92991" lon="0.12116">
        <ele>2355.0164936099</ele>
        <time>2015-01-10T12:30:00Z</time>
      </trkpt>
      <trkpt lat="42.92989" lon="0.12119">
        <ele>2355.0164936099</ele>
        <time>2015-01-10T12:30:05Z</time>
      </trkpt>
      <trkpt lat="42.92985" lon="0.12124">
        <ele>2357.8735829491</ele>
        <time>2015-01-10T12:30:09Z</time>
      </trkpt>
      <trkpt lat="42.92985" lon="0.12127">
        <ele>2357.8735829491</ele>
        <time>2015-01-10T12:30:16Z</time>
      </trkpt>
      <trkpt lat="42.9298" lon="0.12133">
        <ele>2360.4050181266</ele>
        <time>2015-01-10T12:30:19Z</time>
      </trkpt>
      <trkpt lat="42.9298" lon="0.12134">
        <ele>2360.4050181266</ele>
        <time>2015-01-10T12:30:24Z</time>
      </trkpt>
      <trkpt lat="42.92971" lon="0.1214">
        <ele>2362.8927198082</ele>
        <time>2015-01-10T12:30:50Z</time>
      </trkpt>
      <trkpt lat="42.92969" lon="0.12141">
        <ele>2362.8927198082</ele>
        <time>2015-01-10T12:30:55Z</time>
      </trkpt>
      <trkpt lat="42.9297" lon="0.12141">
        <ele>2362.8927198082</ele>
        <time>2015-01-10T12:30:59Z</time>
      </trkpt>
      <trkpt lat="42.92979" lon="0.12144">
        <ele>2365.5549698368</ele>
        <time>2015-01-10T12:31:25Z</time>
      </trkpt>
      <trkpt lat="42.92981" lon="0.12145">
        <ele>2365.5549698368</ele>
        <time>2015-01-10T12:31:29Z</time>
      </trkpt>
      <trkpt lat="42.92982" lon="0.12144">
        <ele>2365.5549698368</ele>
        <time>2015-01-10T12:31:34Z</time>
      </trkpt>
      <trkpt lat="42.92981" lon="0.12143">
        <ele>2365.5549698368</ele>
        <time>2015-01-10T12:31:40Z</time>
      </trkpt>
      <trkpt lat="42.92987" lon="0.12152">
        <ele>2368.276653248</ele>
        <time>2015-01-10T12:32:10Z</time>
      </trkpt>
      <trkpt lat="42.92994" lon="0.12154">
        <ele>2368.276653248</ele>
        <time>2015-01-10T12:32:15Z</time>
      </trkpt>
      <trkpt lat="42.92996" lon="0.12155">
        <ele>2370.6772959296</ele>
        <time>2015-01-10T12:32:20Z</time>
      </trkpt>
      <trkpt lat="42.92999" lon="0.12156">
        <ele>2370.6772959296</ele>
        <time>2015-01-10T12:32:25Z</time>
      </trkpt>
      <trkpt lat="42.93001" lon="0.12159">
        <ele>2370.6772959296</ele>
        <time>2015-01-10T12:32:30Z</time>
      </trkpt>
      <trkpt lat="42.93002" lon="0.12159">
        <ele>2370.6772959296</ele>
        <time>2015-01-10T12:32:35Z</time>
      </trkpt>
      <trkpt lat="42.93005" lon="0.12158">
        <ele>2373.010693566</ele>
        <time>2015-01-10T12:32:40Z</time>
      </trkpt>
      <trkpt lat="42.93002" lon="0.12161">
        <ele>2373.010693566</ele>
        <time>2015-01-10T12:33:30Z</time>
      </trkpt>
      <trkpt lat="42.92998" lon="0.12163">
        <ele>2373.010693566</ele>
        <time>2015-01-10T12:33:35Z</time>
      </trkpt>
      <trkpt lat="42.92994" lon="0.12165">
        <ele>2376.0023090286</ele>
        <time>2015-01-10T12:33:40Z</time>
      </trkpt>
      <trkpt lat="42.92991" lon="0.12167">
        <ele>2376.0023090286</ele>
        <time>2015-01-10T12:33:44Z</time>
      </trkpt>
      <trkpt lat="42.92987" lon="0.1217">
        <ele>2376.0023090286</ele>
        <time>2015-01-10T12:33:51Z</time>
      </trkpt>
      <trkpt lat="42.9298" lon="0.12178">
        <ele>2378.9391353717</ele>
        <time>2015-01-10T12:34:10Z</time>
      </trkpt>
      <trkpt lat="42.9298" lon="0.12177">
        <ele>2378.9391353717</ele>
        <time>2015-01-10T12:34:15Z</time>
      </trkpt>
      <trkpt lat="42.92976" lon="0.12186">
        <ele>2378.9391353717</ele>
        <time>2015-01-10T12:34:20Z</time>
      </trkpt>
      <trkpt lat="42.92978" lon="0.12187">
        <ele>2381.593158006</ele>
        <time>2015-01-10T12:34:25Z</time>
      </trkpt>
      <trkpt lat="42.92983" lon="0.12186">
        <ele>2381.593158006</ele>
        <time>2015-01-10T12:34:30Z</time>
      </trkpt>
      <trkpt lat="42.92989" lon="0.12185">
        <ele>2384.013426361</ele>
        <time>2015-01-10T12:34:35Z</time>
      </trkpt>
      <trkpt lat="42.9299" lon="0.12185">
        <ele>2384.013426361</ele>
        <time>2015-01-10T12:34:40Z</time>
      </trkpt>
      <trkpt lat="42.92996" lon="0.12182">
        <ele>2384.013426361</ele>
        <time>2015-01-10T12:34:45Z</time>
      </trkpt>
      <trkpt lat="42.92995" lon="0.12182">
        <ele>2384.013426361</ele>
        <time>2015-01-10T12:34:50Z</time>
      </trkpt>
      <trkpt lat="42.92999" lon="0.12183">
        <ele>2386.1740999439</ele>
        <time>2015-01-10T12:34:55Z</time>
      </trkpt>
      <trkpt lat="42.93" lon="0.12183">
        <ele>2386.1740999439</ele>
        <time>2015-01-10T12:35:00Z</time>
      </trkpt>
      <trkpt lat="42.93004" lon="0.12182">
        <ele>2386.1740999439</ele>
        <time>2015-01-10T12:35:05Z</time>
      </trkpt>
      <trkpt lat="42.93007" lon="0.12181">
        <ele>2386.1740999439</ele>
        <time>2015-01-10T12:35:10Z</time>
      </trkpt>
      <trkpt lat="42.93009" lon="0.12179">
        <ele>2388.311468919</ele>
        <time>2015-01-10T12:35:15Z</time>
      </trkpt>
      <trkpt lat="42.93009" lon="0.12178">
        <ele>2388.311468919</ele>
        <time>2015-01-10T12:35:20Z</time>
      </trkpt>
      <trkpt lat="42.93006" lon="0.12185">
        <ele>2388.311468919</ele>
        <time>2015-01-10T12:35:40Z</time>
      </trkpt>
      <trkpt lat="42.93005" lon="0.12186">
        <ele>2388.311468919</ele>
        <time>2015-01-10T12:35:44Z</time>
      </trkpt>
      <trkpt lat="42.93007" lon="0.12187">
        <ele>2390.3419915347</ele>
        <time>2015-01-10T12:35:51Z</time>
      </trkpt>
      <trkpt lat="42.93004" lon="0.12188">
        <ele>2390.3419915347</ele>
        <time>2015-01-10T12:35:55Z</time>
      </trkpt>
      <trkpt lat="42.93004" lon="0.12188">
        <ele>2390.3419915347</ele>
        <time>2015-01-10T12:36:00Z</time>
      </trkpt>
      <trkpt lat="42.93" lon="0.12193">
        <ele>2390.3419915347</ele>
        <time>2015-01-10T12:36:05Z</time>
      </trkpt>
      <trkpt lat="42.93" lon="0.12194">
        <ele>2392.347168107</ele>
        <time>2015-01-10T12:36:09Z</time>
      </trkpt>
      <trkpt lat="42.92999" lon="0.12191">
        <ele>2392.347168107</ele>
        <time>2015-01-10T12:36:15Z</time>
      </trkpt>
      <trkpt lat="42.92999" lon="0.1219">
        <ele>2392.347168107</ele>
        <time>2015-01-10T12:36:20Z</time>
      </trkpt>
      <trkpt lat="42.92999" lon="0.1219">
        <ele>2392.347168107</ele>
        <time>2015-01-10T12:36:25Z</time>
      </trkpt>
      <trkpt lat="42.9301" lon="0.12193">
        <ele>2394.9502788275</ele>
        <time>2015-01-10T12:36:55Z</time>
      </trkpt>
      <trkpt lat="42.93014" lon="0.12195">
        <ele>2394.9502788275</ele>
        <time>2015-01-10T12:37:00Z</time>
      </trkpt>
      <trkpt lat="42.93016" lon="0.12196">
        <ele>2394.9502788275</ele>
        <time>2015-01-10T12:37:05Z</time>
      </trkpt>
      <trkpt lat="42.93019" lon="0.12195">
        <ele>2397.4446156589</ele>
        <time>2015-01-10T12:37:10Z</time>
      </trkpt>
      <trkpt lat="42.93019" lon="0.12194">
        <ele>2397.4446156589</ele>
        <time>2015-01-10T12:37:15Z</time>
      </trkpt>
      <trkpt lat="42.93022" lon="0.12199">
        <ele>2397.4446156589</ele>
        <time>2015-01-10T12:37:45Z</time>
      </trkpt>
      <trkpt lat="42.93024" lon="0.122">
        <ele>2397.4446156589</ele>
        <time>2015-01-10T12:37:50Z</time>
      </trkpt>
      <trkpt lat="42.93026" lon="0.122">
        <ele>2397.4446156589</ele>
        <time>2015-01-10T12:37:55Z</time>
      </trkpt>
      <trkpt lat="42.93028" lon="0.122">
        <ele>2400.314225668</ele>
        <time>2015-01-10T12:38:00Z</time>
      </trkpt>
      <trkpt lat="42.9303" lon="0.12196">
        <ele>2400.314225668</ele>
        <time>2015-01-10T12:38:05Z</time>
      </trkpt>
      <trkpt lat="42.93032" lon="0.12196">
        <ele>2400.314225668</ele>
        <time>2015-01-10T12:38:10Z</time>
      </trkpt>
      <trkpt lat="42.93033" lon="0.12197">
        <ele>2400.314225668</ele>
        <time>2015-01-10T12:38:15Z</time>
      </trkpt>
      <trkpt lat="42.93035" lon="0.12195">
        <ele>2402.9257633977</ele>
        <time>2015-01-10T12:38:20Z</time>
      </trkpt>
      <trkpt lat="42.93033" lon="0.12204">
        <ele>2402.9257633977</ele>
        <time>2015-01-10T12:38:40Z</time>
      </trkpt>
      <trkpt lat="42.93032" lon="0.12208">
        <ele>2405.5002024956</ele>
        <time>2015-01-10T12:38:45Z</time>
      </trkpt>
      <trkpt lat="42.93032" lon="0.12209">
        <ele>2405.5002024956</ele>
        <time>2015-01-10T12:38:50Z</time>
      </trkpt>
      <trkpt lat="42.93032" lon="0.1221">
        <ele>2405.5002024956</ele>
        <time>2015-01-10T12:38:55Z</time>
      </trkpt>
      <trkpt lat="42.93029" lon="0.12214">
        <ele>2405.5002024956</ele>
        <time>2015-01-10T12:39:00Z</time>
      </trkpt>
      <trkpt lat="42.9303" lon="0.12213">
        <ele>2405.5002024956</ele>
        <time>2015-01-10T12:39:05Z</time>
      </trkpt>
      <trkpt lat="42.9302" lon="0.12218">
        <ele>2408.1847870688</ele>
        <time>2015-01-10T12:39:20Z</time>
      </trkpt>
      <trkpt lat="42.93019" lon="0.12223">
        <ele>2408.1847870688</ele>
        <time>2015-01-10T12:39:45Z</time>
      </trkpt>
      <trkpt lat="42.93017" lon="0.12224">
        <ele>2408.1847870688</ele>
        <time>2015-01-10T12:39:50Z</time>
      </trkpt>
      <trkpt lat="42.93015" lon="0.12223">
        <ele>2408.1847870688</ele>
        <time>2015-01-10T12:39:55Z</time>
      </trkpt>
      <trkpt lat="42.93005" lon="0.12229">
        <ele>2411.0868536281</ele>
        <time>2015-01-10T12:40:15Z</time>
      </trkpt>
      <trkpt lat="42.93008" lon="0.12229">
        <ele>2411.0868536281</ele>
        <time>2015-01-10T12:40:20Z</time>
      </trkpt>
      <trkpt lat="42.93011" lon="0.12229">
        <ele>2411.0868536281</ele>
        <time>2015-01-10T12:40:25Z</time>
      </trkpt>
      <trkpt lat="42.93013" lon="0.12229">
        <ele>2411.0868536281</ele>
        <time>2015-01-10T12:40:29Z</time>
      </trkpt>
      <trkpt lat="42.93015" lon="0.1223">
        <ele>2413.8008912636</ele>
        <time>2015-01-10T12:40:35Z</time>
      </trkpt>
      <trkpt lat="42.93021" lon="0.12231">
        <ele>2413.8008912636</ele>
        <time>2015-01-10T12:40:40Z</time>
      </trkpt>
      <trkpt lat="42.93023" lon="0.12232">
        <ele>2413.8008912636</ele>
        <time>2015-01-10T12:40:45Z</time>
      </trkpt>
      <trkpt lat="42.93026" lon="0.12236">
        <ele>2416.5281835277</ele>
        <time>2015-01-10T12:40:50Z</time>
      </trkpt>
      <trkpt lat="42.93027" lon="0.12234">
        <ele>2416.5281835277</ele>
        <time>2015-01-10T12:40:54Z</time>
      </trkpt>
      <trkpt lat="42.93031" lon="0.12236">
        <ele>2416.5281835277</ele>
        <time>2015-01-10T12:41:00Z</time>
      </trkpt>
      <trkpt lat="42.93027" lon="0.12234">
        <ele>2419.4552221135</ele>
        <time>2015-01-10T12:41:20Z</time>
      </trkpt>
      <trkpt lat="42.9303" lon="0.12234">
        <ele>2419.4552221135</ele>
        <time>2015-01-10T12:41:24Z</time>
      </trkpt>
      <trkpt lat="42.93033" lon="0.12233">
        <ele>2419.4552221135</ele>
        <time>2015-01-10T12:41:30Z</time>
      </trkpt>
      <trkpt lat="42.93035" lon="0.12232">
        <ele>2422.1345899038</ele>
        <time>2015-01-10T12:41:35Z</time>
      </trkpt>
      <trkpt lat="42.93036" lon="0.12231">
        <ele>2422.1345899038</ele>
        <time>2015-01-10T12:41:40Z</time>
      </trkpt>
      <trkpt lat="42.93041" lon="0.12242">
        <ele>2424.8297807735</ele>
        <time>2015-01-10T12:42:21Z</time>
      </trkpt>
      <trkpt lat="42.93038" lon="0.12245">
        <ele>2424.8297807735</ele>
        <time>2015-01-10T12:42:25Z</time>
      </trkpt>
      <trkpt lat="42.93043" lon="0.12244">
        <ele>2424.8297807735</ele>
        <time>2015-01-10T12:42:40Z</time>
      </trkpt>
      <trkpt lat="42.93048" lon="0.12244">
        <ele>2427.6263903471</ele>
        <time>2015-01-10T12:42:50Z</time>
      </trkpt>
      <trkpt lat="42.93051" lon="0.12243">
        <ele>2427.6263903471</ele>
        <time>2015-01-10T12:42:55Z</time>
      </trkpt>
      <trkpt lat="42.93052" lon="0.12243">
        <ele>2427.6263903471</ele>
        <time>2015-01-10T12:43:00Z</time>
      </trkpt>
      <trkpt lat="42.93053" lon="0.12243">
        <ele>2427.6263903471</ele>
        <time>2015-01-10T12:43:05Z</time>
      </trkpt>
      <trkpt lat="42.93051" lon="0.12249">
        <ele>2430.8484540285</ele>
        <time>2015-01-10T12:44:05Z</time>
      </trkpt>
      <trkpt lat="42.93049" lon="0.12252">
        <ele>2430.8484540285</ele>
        <time>2015-01-10T12:44:10Z</time>
      </trkpt>
      <trkpt lat="42.93048" lon="0.12255">
        <ele>2430.8484540285</ele>
        <time>2015-01-10T12:44:15Z</time>
      </trkpt>
      <trkpt lat="42.93048" lon="0.12255">
        <ele>2430.8484540285</ele>
        <time>2015-01-10T12:44:20Z</time>
      </trkpt>
      <trkpt lat="42.93039" lon="0.12262">
        <ele>2433.9735986359</ele>
        <time>2015-01-10T12:44:44Z</time>
      </trkpt>
      <trkpt lat="42.93048" lon="0.1227">
        <ele>2436.8207510174</ele>
        <time>2015-01-10T12:45:00Z</time>
      </trkpt>
      <trkpt lat="42.93049" lon="0.1227">
        <ele>2436.8207510174</ele>
        <time>2015-01-10T12:45:05Z</time>
      </trkpt>
      <trkpt lat="42.9305" lon="0.12269">
        <ele>2436.8207510174</ele>
        <time>2015-01-10T12:45:10Z</time>
      </trkpt>
      <trkpt lat="42.93049" lon="0.1227">
        <ele>2436.8207510174</ele>
        <time>2015-01-10T12:45:14Z</time>
      </trkpt>
      <trkpt lat="42.93057" lon="0.12271">
        <ele>2439.4391070376</ele>
        <time>2015-01-10T12:46:00Z</time>
      </trkpt>
      <trkpt lat="42.93059" lon="0.12269">
        <ele>2439.4391070376</ele>
        <time>2015-01-10T12:46:05Z</time>
      </trkpt>
      <trkpt lat="42.93057" lon="0.12268">
        <ele>2439.4391070376</ele>
        <time>2015-01-10T12:46:10Z</time>
      </trkpt>
      <trkpt lat="42.93061" lon="0.12269">
        <ele>2439.4391070376</ele>
        <time>2015-01-10T12:46:15Z</time>
      </trkpt>
      <trkpt lat="42.93062" lon="0.12268">
        <ele>2439.4391070376</ele>
        <time>2015-01-10T12:46:20Z</time>
      </trkpt>
      <trkpt lat="42.93065" lon="0.12267">
        <ele>2442.1198993937</ele>
        <time>2015-01-10T12:46:25Z</time>
      </trkpt>
      <trkpt lat="42.93069" lon="0.12267">
        <ele>2442.1198993937</ele>
        <time>2015-01-10T12:46:30Z</time>
      </trkpt>
      <trkpt lat="42.9307" lon="0.12267">
        <ele>2442.1198993937</ele>
        <time>2015-01-10T12:46:35Z</time>
      </trkpt>
      <trkpt lat="42.93074" lon="0.12263">
        <ele>2444.8013540337</ele>
        <time>2015-01-10T12:46:40Z</time>
      </trkpt>
      <trkpt lat="42.93077" lon="0.12261">
        <ele>2444.8013540337</ele>
        <time>2015-01-10T12:46:45Z</time>
      </trkpt>
      <trkpt lat="42.93076" lon="0.1226">
        <ele>2444.8013540337</ele>
        <time>2015-01-10T12:46:50Z</time>
      </trkpt>
      <trkpt lat="42.93072" lon="0.12262">
        <ele>2444.8013540337</ele>
        <time>2015-01-10T12:47:10Z</time>
      </trkpt>
      <trkpt lat="42.9307" lon="0.12263">
        <ele>2448.1756274305</ele>
        <time>2015-01-10T12:47:15Z</time>
      </trkpt>
      <trkpt lat="42.93067" lon="0.12266">
        <ele>2448.1756274305</ele>
        <time>2015-01-10T12:47:20Z</time>
      </trkpt>
      <trkpt lat="42.93068" lon="0.12268">
        <ele>2448.1756274305</ele>
        <time>2015-01-10T12:47:27Z</time>
      </trkpt>
      <trkpt lat="42.93069" lon="0.12271">
        <ele>2448.1756274305</ele>
        <time>2015-01-10T12:47:29Z</time>
      </trkpt>
      <trkpt lat="42.93068" lon="0.12275">
        <ele>2451.3977576075</ele>
        <time>2015-01-10T12:47:36Z</time>
      </trkpt>
      <trkpt lat="42.93068" lon="0.12274">
        <ele>2451.3977576075</ele>
        <time>2015-01-10T12:47:39Z</time>
      </trkpt>
      <trkpt lat="42.93064" lon="0.12273">
        <ele>2451.3977576075</ele>
        <time>2015-01-10T12:47:45Z</time>
      </trkpt>
      <trkpt lat="42.93066" lon="0.12275">
        <ele>2451.3977576075</ele>
        <time>2015-01-10T12:47:50Z</time>
      </trkpt>
      <trkpt lat="42.93063" lon="0.12279">
        <ele>2454.5643737896</ele>
        <time>2015-01-10T12:47:55Z</time>
      </trkpt>
      <trkpt lat="42.93073" lon="0.12284">
        <ele>2457.5490126671</ele>
        <time>2015-01-10T12:48:00Z</time>
      </trkpt>
      <trkpt lat="42.93073" lon="0.12285">
        <ele>2457.5490126671</ele>
        <time>2015-01-10T12:48:06Z</time>
      </trkpt>
      <trkpt lat="42.93071" lon="0.12285">
        <ele>2457.5490126671</ele>
        <time>2015-01-10T12:48:10Z</time>
      </trkpt>
      <trkpt lat="42.93067" lon="0.12288">
        <ele>2457.5490126671</ele>
        <time>2015-01-10T12:48:15Z</time>
      </trkpt>
      <trkpt lat="42.93063" lon="0.1229">
        <ele>2460.5808961377</ele>
        <time>2015-01-10T12:48:20Z</time>
      </trkpt>
      <trkpt lat="42.93063" lon="0.12292">
        <ele>2460.5808961377</ele>
        <time>2015-01-10T12:48:25Z</time>
      </trkpt>
      <trkpt lat="42.93059" lon="0.12294">
        <ele>2460.5808961377</ele>
        <time>2015-01-10T12:48:30Z</time>
      </trkpt>
      <trkpt lat="42.93058" lon="0.12294">
        <ele>2460.5808961377</ele>
        <time>2015-01-10T12:48:35Z</time>
      </trkpt>
      <trkpt lat="42.93054" lon="0.12298">
        <ele>2463.3102593753</ele>
        <time>2015-01-10T12:48:45Z</time>
      </trkpt>
      <trkpt lat="42.93053" lon="0.12299">
        <ele>2463.3102593753</ele>
        <time>2015-01-10T12:48:50Z</time>
      </trkpt>
      <trkpt lat="42.93053" lon="0.12299">
        <ele>2463.3102593753</ele>
        <time>2015-01-10T12:48:54Z</time>
      </trkpt>
      <trkpt lat="42.93058" lon="0.12295">
        <ele>2463.3102593753</ele>
        <time>2015-01-10T12:49:34Z</time>
      </trkpt>
      <trkpt lat="42.93062" lon="0.12297">
        <ele>2465.6732961488</ele>
        <time>2015-01-10T12:49:40Z</time>
      </trkpt>
      <trkpt lat="42.93066" lon="0.12297">
        <ele>2465.6732961488</ele>
        <time>2015-01-10T12:49:44Z</time>
      </trkpt>
      <trkpt lat="42.9307" lon="0.12299">
        <ele>2465.6732961488</ele>
        <time>2015-01-10T12:49:50Z</time>
      </trkpt>
      <trkpt lat="42.93072" lon="0.12299">
        <ele>2467.7992727244</ele>
        <time>2015-01-10T12:49:55Z</time>
      </trkpt>
      <trkpt lat="42.93076" lon="0.12298">
        <ele>2467.7992727244</ele>
        <time>2015-01-10T12:49:59Z</time>
      </trkpt>
      <trkpt lat="42.93079" lon="0.12299">
        <ele>2467.7992727244</ele>
        <time>2015-01-10T12:50:05Z</time>
      </trkpt>
      <trkpt lat="42.93079" lon="0.12299">
        <ele>2467.7992727244</ele>
        <time>2015-01-10T12:50:10Z</time>
      </trkpt>
      <trkpt lat="42.93075" lon="0.12305">
        <ele>2470.4283120495</ele>
        <time>2015-01-10T12:50:45Z</time>
      </trkpt>
      <trkpt lat="42.93074" lon="0.12307">
        <ele>2470.4283120495</ele>
        <time>2015-01-10T12:50:50Z</time>
      </trkpt>
      <trkpt lat="42.93072" lon="0.12309">
        <ele>2470.4283120495</ele>
        <time>2015-01-10T12:51:05Z</time>
      </trkpt>
      <trkpt lat="42.9307" lon="0.12311">
        <ele>2470.4283120495</ele>
        <time>2015-01-10T12:51:09Z</time>
      </trkpt>
      <trkpt lat="42.9307" lon="0.12313">
        <ele>2470.4283120495</ele>
        <time>2015-01-10T12:51:16Z</time>
      </trkpt>
      <trkpt lat="42.93069" lon="0.12314">
        <ele>2472.7892386577</ele>
        <time>2015-01-10T12:51:20Z</time>
      </trkpt>
      <trkpt lat="42.93064" lon="0.12319">
        <ele>2472.7892386577</ele>
        <time>2015-01-10T12:51:25Z</time>
      </trkpt>
      <trkpt lat="42.93064" lon="0.1232">
        <ele>2472.7892386577</ele>
        <time>2015-01-10T12:51:30Z</time>
      </trkpt>
      <trkpt lat="42.93068" lon="0.12322">
        <ele>2475.0617681982</ele>
        <time>2015-01-10T12:52:00Z</time>
      </trkpt>
      <trkpt lat="42.93069" lon="0.12322">
        <ele>2475.0617681982</ele>
        <time>2015-01-10T12:52:05Z</time>
      </trkpt>
      <trkpt lat="42.93071" lon="0.12323">
        <ele>2475.0617681982</ele>
        <time>2015-01-10T12:52:10Z</time>
      </trkpt>
      <trkpt lat="42.93074" lon="0.12323">
        <ele>2475.0617681982</ele>
        <time>2015-01-10T12:52:15Z</time>
      </trkpt>
      <trkpt lat="42.93076" lon="0.12322">
        <ele>2475.0617681982</ele>
        <time>2015-01-10T12:52:20Z</time>
      </trkpt>
      <trkpt lat="42.93078" lon="0.12322">
        <ele>2477.066790317</ele>
        <time>2015-01-10T12:52:25Z</time>
      </trkpt>
      <trkpt lat="42.93078" lon="0.12322">
        <ele>2477.066790317</ele>
        <time>2015-01-10T12:52:30Z</time>
      </trkpt>
      <trkpt lat="42.93078" lon="0.12327">
        <ele>2477.066790317</ele>
        <time>2015-01-10T12:53:20Z</time>
      </trkpt>
      <trkpt lat="42.93077" lon="0.1233">
        <ele>2477.066790317</ele>
        <time>2015-01-10T12:53:24Z</time>
      </trkpt>
      <trkpt lat="42.93074" lon="0.12333">
        <ele>2479.0714255396</ele>
        <time>2015-01-10T12:53:31Z</time>
      </trkpt>
      <trkpt lat="42.93073" lon="0.12335">
        <ele>2479.0714255396</ele>
        <time>2015-01-10T12:53:35Z</time>
      </trkpt>
      <trkpt lat="42.93073" lon="0.12336">
        <ele>2479.0714255396</ele>
        <time>2015-01-10T12:53:40Z</time>
      </trkpt>
      <trkpt lat="42.93072" lon="0.12338">
        <ele>2479.0714255396</ele>
        <time>2015-01-10T12:53:45Z</time>
      </trkpt>
      <trkpt lat="42.93071" lon="0.12339">
        <ele>2479.0714255396</ele>
        <time>2015-01-10T12:53:50Z</time>
      </trkpt>
      <trkpt lat="42.93068" lon="0.12347">
        <ele>2481.3375684343</ele>
        <time>2015-01-10T12:54:25Z</time>
      </trkpt>
      <trkpt lat="42.93065" lon="0.12352">
        <ele>2481.3375684343</ele>
        <time>2015-01-10T12:54:30Z</time>
      </trkpt>
      <trkpt lat="42.93063" lon="0.12355">
        <ele>2481.3375684343</ele>
        <time>2015-01-10T12:54:35Z</time>
      </trkpt>
      <trkpt lat="42.93062" lon="0.12355">
        <ele>2481.3375684343</ele>
        <time>2015-01-10T12:54:40Z</time>
      </trkpt>
      <trkpt lat="42.9307" lon="0.12357">
        <ele>2483.7756652162</ele>
        <time>2015-01-10T12:55:55Z</time>
      </trkpt>
      <trkpt lat="42.93072" lon="0.12356">
        <ele>2483.7756652162</ele>
        <time>2015-01-10T12:56:00Z</time>
      </trkpt>
      <trkpt lat="42.93075" lon="0.12355">
        <ele>2483.7756652162</ele>
        <time>2015-01-10T12:56:05Z</time>
      </trkpt>
      <trkpt lat="42.93077" lon="0.12356">
        <ele>2483.7756652162</ele>
        <time>2015-01-10T12:56:10Z</time>
      </trkpt>
      <trkpt lat="42.93077" lon="0.12356">
        <ele>2483.7756652162</ele>
        <time>2015-01-10T12:56:15Z</time>
      </trkpt>
      <trkpt lat="42.93082" lon="0.12356">
        <ele>2486.4751677302</ele>
        <time>2015-01-10T12:56:45Z</time>
      </trkpt>
      <trkpt lat="42.9308" lon="0.12358">
        <ele>2486.4751677302</ele>
        <time>2015-01-10T12:56:50Z</time>
      </trkpt>
      <trkpt lat="42.93078" lon="0.12362">
        <ele>2486.4751677302</ele>
        <time>2015-01-10T12:56:55Z</time>
      </trkpt>
      <trkpt lat="42.93078" lon="0.12364">
        <ele>2486.4751677302</ele>
        <time>2015-01-10T12:57:00Z</time>
      </trkpt>
      <trkpt lat="42.93075" lon="0.12366">
        <ele>2489.1290972873</ele>
        <time>2015-01-10T12:57:05Z</time>
      </trkpt>
      <trkpt lat="42.9307" lon="0.12368">
        <ele>2489.1290972873</ele>
        <time>2015-01-10T12:57:09Z</time>
      </trkpt>
      <trkpt lat="42.93071" lon="0.12369">
        <ele>2489.1290972873</ele>
        <time>2015-01-10T12:57:15Z</time>
      </trkpt>
      <trkpt lat="42.93073" lon="0.1237">
        <ele>2489.1290972873</ele>
        <time>2015-01-10T12:57:20Z</time>
      </trkpt>
      <trkpt lat="42.9308" lon="0.1237">
        <ele>2491.6692934667</ele>
        <time>2015-01-10T12:57:25Z</time>
      </trkpt>
      <trkpt lat="42.93082" lon="0.1237">
        <ele>2491.6692934667</ele>
        <time>2015-01-10T12:57:30Z</time>
      </trkpt>
      <trkpt lat="42.93083" lon="0.12369">
        <ele>2491.6692934667</ele>
        <time>2015-01-10T12:57:40Z</time>
      </trkpt>
      <trkpt lat="42.93081" lon="0.12371">
        <ele>2491.6692934667</ele>
        <time>2015-01-10T12:57:45Z</time>
      </trkpt>
      <trkpt lat="42.93086" lon="0.12371">
        <ele>2494.1193615035</ele>
        <time>2015-01-10T12:57:50Z</time>
      </trkpt>
      <trkpt lat="42.93087" lon="0.1237">
        <ele>2494.1193615035</ele>
        <time>2015-01-10T12:57:55Z</time>
      </trkpt>
      <trkpt lat="42.93089" lon="0.12371">
        <ele>2494.1193615035</ele>
        <time>2015-01-10T12:58:00Z</time>
      </trkpt>
      <trkpt lat="42.9309" lon="0.12369">
        <ele>2494.1193615035</ele>
        <time>2015-01-10T12:58:05Z</time>
      </trkpt>
      <trkpt lat="42.93093" lon="0.12366">
        <ele>2494.1193615035</ele>
        <time>2015-01-10T12:58:10Z</time>
      </trkpt>
      <trkpt lat="42.93092" lon="0.12366">
        <ele>2496.6166870278</ele>
        <time>2015-01-10T12:58:15Z</time>
      </trkpt>
      <trkpt lat="42.93093" lon="0.12369">
        <ele>2496.6166870278</ele>
        <time>2015-01-10T12:58:20Z</time>
      </trkpt>
      <trkpt lat="42.93094" lon="0.1237">
        <ele>2496.6166870278</ele>
        <time>2015-01-10T12:58:25Z</time>
      </trkpt>
      <trkpt lat="42.93104" lon="0.12365">
        <ele>2499.4757480939</ele>
        <time>2015-01-10T12:58:40Z</time>
      </trkpt>
      <trkpt lat="42.93106" lon="0.12364">
        <ele>2499.4757480939</ele>
        <time>2015-01-10T12:58:45Z</time>
      </trkpt>
      <trkpt lat="42.93106" lon="0.12364">
        <ele>2499.4757480939</ele>
        <time>2015-01-10T12:58:50Z</time>
      </trkpt>
      <trkpt lat="42.93104" lon="0.12364">
        <ele>2499.4757480939</ele>
        <time>2015-01-10T12:58:55Z</time>
      </trkpt>
      <trkpt lat="42.93101" lon="0.12367">
        <ele>2499.4757480939</ele>
        <time>2015-01-10T12:59:00Z</time>
      </trkpt>
      <trkpt lat="42.93099" lon="0.12371">
        <ele>2502.1366235452</ele>
        <time>2015-01-10T12:59:05Z</time>
      </trkpt>
      <trkpt lat="42.93096" lon="0.12375">
        <ele>2502.1366235452</ele>
        <time>2015-01-10T12:59:10Z</time>
      </trkpt>
      <trkpt lat="42.93091" lon="0.12378">
        <ele>2504.4989749568</ele>
        <time>2015-01-10T12:59:15Z</time>
      </trkpt>
      <trkpt lat="42.93088" lon="0.12381">
        <ele>2504.4989749568</ele>
        <time>2015-01-10T12:59:20Z</time>
      </trkpt>
      <trkpt lat="42.93083" lon="0.12385">
        <ele>2506.4994667917</ele>
        <time>2015-01-10T12:59:25Z</time>
      </trkpt>
      <trkpt lat="42.93083" lon="0.12386">
        <ele>2506.4994667917</ele>
        <time>2015-01-10T12:59:29Z</time>
      </trkpt>
      <trkpt lat="42.93085" lon="0.12387">
        <ele>2506.4994667917</ele>
        <time>2015-01-10T12:59:35Z</time>
      </trkpt>
      <trkpt lat="42.93083" lon="0.1239">
        <ele>2506.4994667917</ele>
        <time>2015-01-10T12:59:40Z</time>
      </trkpt>
      <trkpt lat="42.9308" lon="0.12392">
        <ele>2506.4994667917</ele>
        <time>2015-01-10T12:59:45Z</time>
      </trkpt>
      <trkpt lat="42.93071" lon="0.12395">
        <ele>2508.7289029024</ele>
        <time>2015-01-10T12:59:50Z</time>
      </trkpt>
      <trkpt lat="42.93075" lon="0.12395">
        <ele>2508.7289029024</ele>
        <time>2015-01-10T12:59:55Z</time>
      </trkpt>
      <trkpt lat="42.93077" lon="0.12394">
        <ele>2508.7289029024</ele>
        <time>2015-01-10T13:00:00Z</time>
      </trkpt>
      <trkpt lat="42.93082" lon="0.12389">
        <ele>2510.7396466585</ele>
        <time>2015-01-10T13:00:05Z</time>
      </trkpt>
      <trkpt lat="42.93083" lon="0.12388">
        <ele>2510.7396466585</ele>
        <time>2015-01-10T13:00:09Z</time>
      </trkpt>
      <trkpt lat="42.93087" lon="0.12387">
        <ele>2510.7396466585</ele>
        <time>2015-01-10T13:00:14Z</time>
      </trkpt>
      <trkpt lat="42.93093" lon="0.12386">
        <ele>2512.5930903869</ele>
        <time>2015-01-10T13:00:21Z</time>
      </trkpt>
      <trkpt lat="42.93096" lon="0.12385">
        <ele>2512.5930903869</ele>
        <time>2015-01-10T13:00:24Z</time>
      </trkpt>
      <trkpt lat="42.93096" lon="0.12385">
        <ele>2512.5930903869</ele>
        <time>2015-01-10T13:00:30Z</time>
      </trkpt>
      <trkpt lat="42.93093" lon="0.12387">
        <ele>2512.5930903869</ele>
        <time>2015-01-10T13:00:34Z</time>
      </trkpt>
      <trkpt lat="42.93095" lon="0.12386">
        <ele>2512.5930903869</ele>
        <time>2015-01-10T13:00:40Z</time>
      </trkpt>
      <trkpt lat="42.93094" lon="0.12384">
        <ele>2514.3465193899</ele>
        <time>2015-01-10T13:00:45Z</time>
      </trkpt>
      <trkpt lat="42.93094" lon="0.12384">
        <ele>2514.3465193899</ele>
        <time>2015-01-10T13:00:50Z</time>
      </trkpt>
      <trkpt lat="42.93093" lon="0.12383">
        <ele>2514.3465193899</ele>
        <time>2015-01-10T13:00:55Z</time>
      </trkpt>
      <trkpt lat="42.93094" lon="0.12386">
        <ele>2514.3465193899</ele>
        <time>2015-01-10T13:00:59Z</time>
      </trkpt>
      <trkpt lat="42.93092" lon="0.12389">
        <ele>2514.3465193899</ele>
        <time>2015-01-10T13:01:05Z</time>
      </trkpt>
      <trkpt lat="42.93092" lon="0.12392">
        <ele>2514.3465193899</ele>
        <time>2015-01-10T13:01:10Z</time>
      </trkpt>
      <trkpt lat="42.9309" lon="0.12395">
        <ele>2515.9811930449</ele>
        <time>2015-01-10T13:01:14Z</time>
      </trkpt>
      <trkpt lat="42.9309" lon="0.12397">
        <ele>2515.9811930449</ele>
        <time>2015-01-10T13:01:20Z</time>
      </trkpt>
      <trkpt lat="42.9309" lon="0.12399">
        <ele>2515.9811930449</ele>
        <time>2015-01-10T13:01:25Z</time>
      </trkpt>
      <trkpt lat="42.93088" lon="0.124">
        <ele>2515.9811930449</ele>
        <time>2015-01-10T13:01:30Z</time>
      </trkpt>
      <trkpt lat="42.93083" lon="0.12404">
        <ele>2517.5376772808</ele>
        <time>2015-01-10T13:01:35Z</time>
      </trkpt>
      <trkpt lat="42.93082" lon="0.12404">
        <ele>2517.5376772808</ele>
        <time>2015-01-10T13:01:40Z</time>
      </trkpt>
      <trkpt lat="42.93083" lon="0.12402">
        <ele>2517.5376772808</ele>
        <time>2015-01-10T13:01:45Z</time>
      </trkpt>
      <trkpt lat="42.93083" lon="0.12408">
        <ele>2517.5376772808</ele>
        <time>2015-01-10T13:01:50Z</time>
      </trkpt>
      <trkpt lat="42.93087" lon="0.12405">
        <ele>2518.9816687019</ele>
        <time>2015-01-10T13:01:54Z</time>
      </trkpt>
      <trkpt lat="42.93086" lon="0.12406">
        <ele>2518.9816687019</ele>
        <time>2015-01-10T13:02:00Z</time>
      </trkpt>
      <trkpt lat="42.93083" lon="0.12406">
        <ele>2518.9816687019</ele>
        <time>2015-01-10T13:02:05Z</time>
      </trkpt>
      <trkpt lat="42.93083" lon="0.12405">
        <ele>2518.9816687019</ele>
        <time>2015-01-10T13:02:10Z</time>
      </trkpt>
      <trkpt lat="42.93083" lon="0.12406">
        <ele>2518.9816687019</ele>
        <time>2015-01-10T13:02:25Z</time>
      </trkpt>
      <trkpt lat="42.93077" lon="0.12411">
        <ele>2520.4257519127</ele>
        <time>2015-01-10T13:02:30Z</time>
      </trkpt>
      <trkpt lat="42.93076" lon="0.12412">
        <ele>2520.4257519127</ele>
        <time>2015-01-10T13:02:35Z</time>
      </trkpt>
      <trkpt lat="42.93066" lon="0.12421">
        <ele>2522.1615217718</ele>
        <time>2015-01-10T13:03:25Z</time>
      </trkpt>
      <trkpt lat="42.93065" lon="0.12421">
        <ele>2522.1615217718</ele>
        <time>2015-01-10T13:03:30Z</time>
      </trkpt>
      <trkpt lat="42.93069" lon="0.1242">
        <ele>2522.1615217718</ele>
        <time>2015-01-10T13:03:50Z</time>
      </trkpt>
      <trkpt lat="42.93073" lon="0.12421">
        <ele>2522.1615217718</ele>
        <time>2015-01-10T13:03:55Z</time>
      </trkpt>
      <trkpt lat="42.93076" lon="0.12422">
        <ele>2523.5503656004</ele>
        <time>2015-01-10T13:04:00Z</time>
      </trkpt>
      <trkpt lat="42.9308" lon="0.12425">
        <ele>2523.5503656004</ele>
        <time>2015-01-10T13:04:05Z</time>
      </trkpt>
      <trkpt lat="42.93082" lon="0.12425">
        <ele>2523.5503656004</ele>
        <time>2015-01-10T13:04:10Z</time>
      </trkpt>
      <trkpt lat="42.93084" lon="0.12425">
        <ele>2523.5503656004</ele>
        <time>2015-01-10T13:04:14Z</time>
      </trkpt>
      <trkpt lat="42.93087" lon="0.12424">
        <ele>2524.9382057451</ele>
        <time>2015-01-10T13:04:20Z</time>
      </trkpt>
      <trkpt lat="42.93087" lon="0.12424">
        <ele>2524.9382057451</ele>
        <time>2015-01-10T13:04:24Z</time>
      </trkpt>
      <trkpt lat="42.93093" lon="0.12423">
        <ele>2524.9382057451</ele>
        <time>2015-01-10T13:04:55Z</time>
      </trkpt>
      <trkpt lat="42.93093" lon="0.12424">
        <ele>2524.9382057451</ele>
        <time>2015-01-10T13:05:00Z</time>
      </trkpt>
      <trkpt lat="42.93101" lon="0.12431">
        <ele>2526.789591244</ele>
        <time>2015-01-10T13:05:30Z</time>
      </trkpt>
      <trkpt lat="42.931" lon="0.12432">
        <ele>2526.789591244</ele>
        <time>2015-01-10T13:05:35Z</time>
      </trkpt>
      <trkpt lat="42.93098" lon="0.12432">
        <ele>2526.789591244</ele>
        <time>2015-01-10T13:06:05Z</time>
      </trkpt>
      <trkpt lat="42.93098" lon="0.12434">
        <ele>2526.789591244</ele>
        <time>2015-01-10T13:06:10Z</time>
      </trkpt>
      <trkpt lat="42.93097" lon="0.12437">
        <ele>2526.789591244</ele>
        <time>2015-01-10T13:06:15Z</time>
      </trkpt>
      <trkpt lat="42.93097" lon="0.12439">
        <ele>2526.789591244</ele>
        <time>2015-01-10T13:06:18Z</time>
      </trkpt>
      <trkpt lat="42.93093" lon="0.12443">
        <ele>2528.5824330709</ele>
        <time>2015-01-10T13:06:24Z</time>
      </trkpt>
      <trkpt lat="42.9309" lon="0.12446">
        <ele>2528.5824330709</ele>
        <time>2015-01-10T13:06:30Z</time>
      </trkpt>
      <trkpt lat="42.9309" lon="0.12447">
        <ele>2528.5824330709</ele>
        <time>2015-01-10T13:06:34Z</time>
      </trkpt>
      <trkpt lat="42.93088" lon="0.12447">
        <ele>2528.5824330709</ele>
        <time>2015-01-10T13:06:39Z</time>
      </trkpt>
      <trkpt lat="42.93079" lon="0.1245">
        <ele>2530.5392236799</ele>
        <time>2015-01-10T13:07:05Z</time>
      </trkpt>
      <trkpt lat="42.93079" lon="0.1245">
        <ele>2530.5392236799</ele>
        <time>2015-01-10T13:07:10Z</time>
      </trkpt>
      <trkpt lat="42.93084" lon="0.12455">
        <ele>2530.5392236799</ele>
        <time>2015-01-10T13:07:26Z</time>
      </trkpt>
      <trkpt lat="42.93087" lon="0.12457">
        <ele>2532.3900046112</ele>
        <time>2015-01-10T13:07:30Z</time>
      </trkpt>
      <trkpt lat="42.93088" lon="0.12462">
        <ele>2532.3900046112</ele>
        <time>2015-01-10T13:07:35Z</time>
      </trkpt>
      <trkpt lat="42.93092" lon="0.12462">
        <ele>2532.3900046112</ele>
        <time>2015-01-10T13:07:40Z</time>
      </trkpt>
      <trkpt lat="42.93092" lon="0.12461">
        <ele>2532.3900046112</ele>
        <time>2015-01-10T13:07:44Z</time>
      </trkpt>
      <trkpt lat="42.93099" lon="0.12465">
        <ele>2534.346022531</ele>
        <time>2015-01-10T13:08:05Z</time>
      </trkpt>
      <trkpt lat="42.93103" lon="0.12466">
        <ele>2534.346022531</ele>
        <time>2015-01-10T13:08:10Z</time>
      </trkpt>
      <trkpt lat="42.93103" lon="0.12466">
        <ele>2534.346022531</ele>
        <time>2015-01-10T13:08:15Z</time>
      </trkpt>
      <trkpt lat="42.93111" lon="0.12463">
        <ele>2536.6314559739</ele>
        <time>2015-01-10T13:08:35Z</time>
      </trkpt>
      <trkpt lat="42.93111" lon="0.12463">
        <ele>2536.6314559739</ele>
        <time>2015-01-10T13:08:40Z</time>
      </trkpt>
      <trkpt lat="42.93101" lon="0.12461">
        <ele>2539.4097844183</ele>
        <time>2015-01-10T13:09:35Z</time>
      </trkpt>
      <trkpt lat="42.93109" lon="0.12461">
        <ele>2539.4097844183</ele>
        <time>2015-01-10T13:10:40Z</time>
      </trkpt>
    </trkseg>
  </trk>
</gpx>